[[{"header":{"parameterUnit":"m.s-1","parameterCategory":1,"la1":30.6,"la2":28.766,"lo1":-90.7593,"lo2":-88.6598,"dy":0.0162,"dx":0.0183,"nx":116,"ny":114,"refTime":"2024-04-16T12:00:00:Z","depth":0,"parameterNumber":2,"parameterNumberName":"U-component_of_WINDS"},"data":[0.0,0.0,0.0,0.0,0.0,0.0,0.0,0.0,0.0,0.0,0.0,0.0,0.0,0.0,0.0,0.0,0.0,0.0,0.0,0.0,0.0,0.0,0.0,0.0,0.0,0.0,0.0,0.0,0.0,0.0,0.0,0.0,0.0,0.0,0.0,0.0,0.0,0.0,0.0,0.0,0.0,0.0,0.0,0.0,0.0,0.0,0.0,0.0,0.0,0.0,0.0,0.0,0.0,0.0,0.0,0.0,0.0,0.0,0.0,0.0,0.0,0.0,0.0,0.0,0.0,0.0,0.0,0.0,0.0,0.0,0.0,0.0,0.0,0.0,0.0,0.0,0.0,0.0,0.0,0.0,0.0,0.0,0.0,0.0,0.0,0.0,0.0,0.0,0.0,0.0,0.0,0.0,0.0,0.0,0.0,0.0,0.0,0.0,0.0,0.0,0.0,0.0,0.0,0.0,0.0,0.0,0.0,0.0,0.0,0.0,0.0,0.0,0.0,0.0,0.0,0.0,0.0,0.0,0.0,0.0,0.0,0.0,0.0,0.0,0.0,0.0,0.0,0.0,0.0,0.0,0.0,0.0,0.0,0.0,0.0,0.0,0.0,0.0,0.0,0.0,0.0,0.0,0.0,0.0,0.0,0.0,0.0,0.0,0.0,0.0,0.0,0.0,0.0,0.0,0.0,0.0,0.0,0.0,0.0,0.0,0.0,0.0,0.0,0.0,0.0,0.0,0.0,0.0,0.0,0.0,0.0,0.0,0.0,0.0,0.0,0.0,0.0,0.0,0.0,0.0,0.0,0.0,0.0,0.0,0.0,0.0,0.0,0.0,0.0,0.0,0.0,0.0,0.0,0.0,0.0,0.0,0.0,0.0,0.0,0.0,0.0,0.0,0.0,0.0,0.0,0.0,0.0,0.0,0.0,0.0,0.0,0.0,0.0,0.0,0.0,0.0,0.0,0.0,0.0,0.0,0.0,0.0,0.0,0.0,0.0,0.0,0.0,0.0,0.0,0.0,0.0,0.0,0.0,0.0,0.0,0.0,0.0,0.0,0.0,0.0,0.0,0.0,0.0,0.0,0.0,0.0,0.0,0.0,0.0,0.0,0.0,0.0,0.0,0.0,0.0,0.0,0.0,0.0,0.0,0.0,0.0,0.0,0.0,0.0,0.0,0.0,0.0,0.0,0.0,0.0,0.0,0.0,0.0,0.0,0.0,0.0,0.0,0.0,0.0,0.0,0.0,0.0,0.0,0.0,0.0,0.0,0.0,0.0,0.0,0.0,0.0,0.0,0.0,0.0,0.0,0.0,0.0,0.0,0.0,0.0,0.0,0.0,0.0,0.0,0.0,0.0,0.0,0.0,0.0,0.0,0.0,0.0,0.0,0.0,0.0,0.0,0.0,0.0,0.0,0.0,0.0,0.0,0.0,0.0,0.0,0.0,0.0,0.0,0.0,0.0,0.0,0.0,0.0,0.0,0.0,0.0,0.0,0.0,0.0,0.0,0.0,0.0,0.0,0.0,0.0,0.0,0.0,0.0,0.0,0.0,0.0,0.0,0.0,0.0,0.0,0.0,0.0,0.0,0.0,0.0,0.0,0.0,0.0,0.0,0.0,0.0,0.0,0.0,0.0,0.0,0.0,0.0,0.0,0.0,0.0,0.0,0.0,0.0,0.0,0.0,0.0,0.0,0.0,0.0,0.0,0.0,0.0,0.0,0.0,0.0,0.0,0.0,0.0,0.0,0.0,0.0,0.0,0.0,0.0,0.0,0.0,0.0,0.0,0.0,0.0,0.0,0.0,0.0,0.0,0.0,0.0,0.0,0.0,0.0,0.0,0.0,0.0,0.0,0.0,0.0,0.0,0.0,0.0,0.0,0.0,0.0,0.0,0.0,0.0,0.0,0.0,0.0,0.0,0.0,0.0,0.0,0.0,0.0,0.0,0.0,0.0,0.0,0.0,0.0,0.0,0.0,0.0,0.0,0.0,0.0,0.0,0.0,0.0,0.0,0.0,0.0,0.0,0.0,0.0,0.0,0.0,0.0,0.0,0.0,0.0,0.0,0.0,0.0,0.0,0.0,0.0,0.0,0.0,0.0,0.0,0.0,0.0,0.0,0.0,0.0,0.0,0.0,0.0,0.0,0.0,0.0,0.0,0.0,0.0,0.0,0.0,0.0,0.0,0.0,0.0,0.0,0.0,0.0,0.0,0.0,0.0,0.0,0.0,0.0,0.0,0.0,0.0,0.0,0.0,0.0,0.0,0.0,0.0,0.0,0.0,0.0,0.0,0.0,0.0,0.0,0.0,0.0,0.0,0.0,0.0,0.0,0.0,0.0,0.0,0.0,0.0,0.0,0.0,0.0,0.0,0.0,0.0,0.0,0.0,0.0,0.0,0.0,0.0,0.0,0.0,0.0,0.0,0.0,0.0,0.0,0.0,0.0,0.0,0.0,0.0,0.0,0.0,0.0,0.0,0.0,0.0,0.0,0.0,0.0,0.0,0.0,0.0,0.0,0.0,0.0,0.0,0.0,0.0,0.0,0.0,0.0,0.0,0.0,0.0,0.0,0.0,0.0,0.0,0.0,0.0,0.0,0.0,0.0,0.0,0.0,0.0,0.0,0.0,0.0,0.0,0.0,0.0,0.0,0.0,0.0,0.0,0.0,0.0,0.0,0.0,0.0,0.0,0.0,0.0,0.0,0.0,0.0,0.0,0.0,0.0,0.0,0.0,0.0,0.0,0.0,0.0,0.0,0.0,0.0,0.0,0.0,0.0,0.0,0.0,0.0,0.0,0.0,0.0,0.0,0.0,0.0,0.0,0.0,0.0,0.0,0.0,0.0,0.0,0.0,0.0,0.0,0.0,0.0,0.0,0.0,0.0,0.0,0.0,0.0,0.0,0.0,0.0,0.0,0.0,0.0,0.0,0.0,0.0,0.0,0.0,0.0,0.0,0.0,0.0,0.0,0.0,0.0,0.0,0.0,0.0,0.0,0.0,0.0,0.0,0.0,0.0,0.0,0.0,0.0,0.0,0.0,0.0,0.0,0.0,0.0,0.0,0.0,0.0,0.0,0.0,0.0,0.0,0.0,0.0,0.0,0.0,0.0,0.0,0.0,0.0,0.0,0.0,0.0,0.0,0.0,0.0,0.0,0.0,0.0,0.0,0.0,0.0,0.0,0.0,0.0,0.0,0.0,0.0,0.0,0.0,0.0,0.0,0.0,0.0,0.0,0.0,0.0,0.0,0.0,0.0,0.0,0.0,0.0,0.0,0.0,0.0,0.0,0.0,0.0,0.0,0.0,0.0,0.0,0.0,0.0,0.0,0.0,0.0,0.0,0.0,0.0,0.0,0.0,0.0,0.0,0.0,0.0,0.0,0.0,0.0,0.0,0.0,0.0,0.0,0.0,0.0,0.0,0.0,0.0,0.0,0.0,0.0,0.0,0.0,0.0,0.0,0.0,0.0,0.0,0.0,0.0,0.0,0.0,0.0,0.0,0.0,0.0,0.0,0.0,0.0,0.0,0.0,0.0,0.0,0.0,0.0,0.0,0.0,0.0,0.0,0.0,0.0,0.0,0.0,0.0,0.0,0.0,0.0,0.0,0.0,0.0,0.0,0.0,0.0,0.0,0.0,0.0,0.0,0.0,0.0,0.0,0.0,0.0,0.0,0.0,0.0,0.0,0.0,0.0,0.0,0.0,0.0,0.0,0.0,0.0,0.0,0.0,0.0,0.0,0.0,0.0,0.0,0.0,0.0,0.0,0.0,0.0,0.0,0.0,0.0,0.0,0.0,0.0,0.0,0.0,0.0,0.0,0.0,0.0,0.0,0.0,0.0,0.0,0.0,0.0,0.0,0.0,0.0,0.0,0.0,0.0,0.0,0.0,0.0,0.0,0.0,0.0,0.0,0.0,0.0,0.0,0.0,0.0,0.0,0.0,0.0,0.0,0.0,0.0,0.0,0.0,0.0,0.0,0.0,0.0,0.0,0.0,0.0,0.0,0.0,0.0,0.0,0.0,0.0,0.0,0.0,0.0,0.0,0.0,0.0,0.0,0.0,0.0,0.0,0.0,0.0,0.0,0.0,0.0,0.0,0.0,0.0,0.0,0.0,0.0,0.0,0.0,0.0,0.0,0.0,0.0,0.0,0.0,0.0,0.0,0.0,0.0,0.0,0.0,0.0,0.0,0.0,0.0,0.0,0.0,0.0,0.0,0.0,0.0,0.0,0.0,0.0,0.0,0.0,0.0,0.0,0.0,0.0,0.0,0.0,0.0,0.0,0.0,0.0,0.0,0.0,0.0,0.0,0.0,0.0,0.0,0.0,0.0,0.0,0.0,0.0,0.0,0.0,0.0,0.0,0.0,0.0,0.0,0.0,0.0,0.0,0.0,0.0,0.0,0.0,0.0,0.0,0.0,0.0,0.0,0.0,0.0,0.0,0.0,0.0,0.0,0.0,0.0,0.0,0.0,0.0,0.0,0.0,0.0,0.0,0.0,0.0,0.0,0.0,0.0,0.0,0.0,0.0,0.0,0.0,0.0,0.0,0.0,0.0,0.0,0.0,0.0,0.0,0.0,0.0,0.0,0.0,0.0,0.0,0.0,0.0,0.0,0.0,0.0,0.0,0.0,0.0,0.0,0.0,0.0,0.0,0.0,0.0,0.0,0.0,0.0,0.0,0.0,0.0,0.0,0.0,0.0,0.0,0.0,0.0,0.0,0.0,0.0,0.0,0.0,0.0,0.0,0.0,0.0,0.0,0.0,0.0,0.0,0.0,0.0,0.0,0.0,0.0,0.0,0.0,0.0,0.0,0.0,0.0,0.0,0.0,0.0,0.0,0.0,0.0,0.0,0.0,0.0,0.0,0.0,0.0,0.0,0.0,0.0,0.0,0.0,0.0,0.0,0.0,0.0,0.0,0.0,0.0,0.0,0.0,0.0,0.0,0.0,0.0,0.0,0.0,0.0,0.0,0.0,0.0,0.0,0.0,0.0,0.0,0.0,0.0,0.0,0.0,0.0,0.0,0.0,0.0,0.0,0.0,0.0,0.0,0.0,0.0,0.0,0.0,0.0,0.0,0.0,0.0,0.0,0.0,0.0,0.0,0.0,0.0,0.0,0.0,0.0,0.0,0.0,0.0,0.0,0.0,0.0,0.0,0.0,0.0,0.0,0.0,0.0,0.0,0.0,0.0,0.0,0.0,0.0,0.0,0.0,0.0,0.0,0.0,0.0,0.0,0.0,0.0,0.0,0.0,0.0,0.0,0.0,0.0,0.0,0.0,0.0,0.0,0.0,0.0,0.0,0.0,0.0,0.0,0.0,0.0,0.0,0.0,0.0,0.0,0.0,0.0,0.0,0.0,0.0,0.0,0.0,0.0,0.0,0.0,0.0,0.0,0.0,0.0,0.0,0.0,0.0,0.0,0.0,0.0,0.0,0.0,0.0,0.0,0.0,0.0,0.0,0.0,0.0,0.0,0.0,0.0,0.0,0.0,0.0,0.0,0.0,0.0,0.0,0.0,0.0,0.0,0.0,0.0,0.0,0.0,0.0,0.0,0.0,0.0,0.0,0.0,0.0,0.0,0.0,0.0,0.0,0.0,0.0,0.0,0.0,0.0,0.0,0.0,0.0,0.0,0.0,0.0,0.0,0.0,0.0,0.0,0.0,0.0,0.0,0.0,0.0,0.0,0.0,0.0,0.0,0.0,0.0,0.0,0.0,0.0,0.0,0.0,0.0,0.0,0.0,0.0,0.0,0.0,0.0,0.0,0.0,0.0,0.0,0.0,0.0,0.0,0.0,0.0,0.0,0.0,0.0,0.0,0.0,0.0,0.0,0.0,0.0,0.0,0.0,0.0,0.0,0.0,0.0,0.0,0.0,0.0,0.0,0.0,0.0,0.0,0.0,0.0,0.0,0.0,0.0,0.0,0.0,0.0,0.0,0.0,0.0,0.0,0.0,0.0,0.0,0.0,0.0,0.0,0.0,0.0,0.0,0.0,0.0,0.0,0.0,0.0,0.0,0.0,0.0,0.0,0.0,0.0,0.0,0.0,0.0,0.0,0.0,0.0,0.0,0.0,0.0,0.0,0.0,0.0,0.0,0.0,0.0,5.8661,0.0,0.0,0.0,0.0,0.0,0.0,0.0,0.0,0.0,0.0,0.0,0.0,0.0,0.0,0.0,0.0,0.0,0.0,0.0,0.0,0.0,0.0,0.0,0.0,5.3225,5.3225,5.3225,5.3555,5.3959,5.4363,0.0,0.0,0.0,0.0,0.0,0.0,0.0,5.7997,5.7997,5.7997,5.7997,5.7997,5.7997,5.7997,5.7997,0.0,0.0,0.0,0.0,0.0,0.0,0.0,0.0,0.0,0.0,0.0,0.0,0.0,0.0,0.0,0.0,0.0,0.0,0.0,0.0,0.0,0.0,0.0,0.0,0.0,0.0,0.0,0.0,0.0,0.0,0.0,0.0,0.0,0.0,0.0,0.0,0.0,0.0,0.0,0.0,0.0,0.0,0.0,0.0,0.0,0.0,0.0,0.0,0.0,0.0,0.0,0.0,0.0,0.0,0.0,0.0,0.0,0.0,0.0,0.0,0.0,0.0,0.0,0.0,0.0,0.0,0.0,0.0,0.0,0.0,0.0,5.8437,0.0,0.0,0.0,0.0,0.0,0.0,0.0,0.0,0.0,0.0,0.0,0.0,0.0,0.0,0.0,0.0,0.0,0.0,0.0,0.0,0.0,5.3225,5.3225,5.3225,5.3261,5.3408,5.4032,5.4509,5.4803,5.6051,0.0,0.0,0.0,5.7997,5.7997,5.7997,5.7997,5.7997,5.7997,5.7997,5.7997,5.7997,5.7997,5.7997,5.7997,0.0,0.0,0.0,0.0,0.0,0.0,0.0,0.0,0.0,0.0,0.0,0.0,0.0,0.0,0.0,0.0,0.0,0.0,0.0,0.0,0.0,0.0,0.0,0.0,0.0,0.0,0.0,0.0,0.0,0.0,0.0,0.0,0.0,0.0,0.0,0.0,0.0,0.0,0.0,0.0,0.0,0.0,0.0,0.0,0.0,0.0,0.0,0.0,0.0,0.0,0.0,0.0,0.0,0.0,0.0,0.0,0.0,0.0,0.0,0.0,0.0,0.0,0.0,5.8887,5.9169,5.9797,5.9706,5.9983,6.0535,5.9353,5.8806,5.871,5.862,0.0,0.0,0.0,0.0,0.0,0.0,0.0,0.0,0.0,0.0,0.0,0.0,0.0,0.0,0.0,0.0,0.0,0.0,0.0,5.3225,5.3225,5.3225,5.3482,5.4179,5.4326,5.4987,5.6381,5.6675,5.7116,5.7813,5.7923,5.7997,5.7997,5.7997,5.7997,5.7997,5.7997,5.7997,5.7997,5.7997,5.7997,5.7997,5.7997,5.7997,5.7997,0.0,0.0,0.0,0.0,0.0,0.0,0.0,0.0,0.0,0.0,0.0,0.0,0.0,0.0,0.0,0.0,0.0,0.0,0.0,0.0,0.0,0.0,0.0,0.0,0.0,0.0,0.0,0.0,0.0,0.0,0.0,0.0,0.0,0.0,0.0,0.0,0.0,0.0,0.0,0.0,0.0,5.5721,5.6565,0.0,0.0,0.0,0.0,0.0,0.0,0.0,0.0,0.0,0.0,0.0,0.0,0.0,5.9641,5.9684,6.0307,6.0678,6.0678,6.0678,6.0626,6.0646,6.06,6.0628,6.0609,6.0388,0.0,6.0136,6.0136,0.0,0.0,0.0,0.0,0.0,0.0,0.0,0.0,0.0,0.0,0.0,0.0,0.0,0.0,0.0,0.0,0.0,0.0,0.0,0.0,0.0,5.3592,5.4032,5.4363,5.5244,5.6051,5.6748,5.7226,5.7629,5.796,5.7997,5.7997,5.7997,5.7997,5.7997,5.7997,5.7997,5.7997,5.7997,5.7997,5.7997,5.7997,5.7997,5.7997,5.7997,5.7997,0.0,0.0,0.0,0.0,0.0,0.0,0.0,0.0,0.0,0.0,0.0,0.0,0.0,0.0,0.0,0.0,0.0,0.0,0.0,0.0,0.0,0.0,0.0,0.0,0.0,0.0,0.0,0.0,0.0,0.0,0.0,0.0,0.0,0.0,0.0,0.0,0.0,0.0,0.0,5.6638,5.7079,5.7446,5.7483,5.7629,0.0,0.0,0.0,0.0,0.0,0.0,0.0,0.0,0.0,5.9767,6.0092,6.0277,6.0367,6.0646,6.0748,6.0748,6.0702,6.0877,6.1224,6.1224,6.1482,6.1826,6.1826,6.1826,6.1704,6.0786,6.0419,6.0419,0.0,0.0,0.0,0.0,6.0419,6.0419,0.0,0.0,0.0,0.0,0.0,0.0,0.0,0.0,0.0,0.0,0.0,0.0,5.3518,5.4216,5.4803,5.4987,5.6124,5.6895,5.7079,5.7666,5.7997,5.7997,5.7997,5.7997,5.7997,5.7997,5.7997,5.7997,5.7997,5.7997,5.7997,5.7997,5.7997,5.7997,5.7997,5.7997,5.7997,5.7997,5.7997,5.7997,0.0,0.0,0.0,0.0,0.0,0.0,0.0,0.0,0.0,0.0,0.0,0.0,0.0,0.0,0.0,0.0,0.0,0.0,0.0,0.0,0.0,0.0,0.0,0.0,0.0,0.0,0.0,0.0,0.0,0.0,0.0,0.0,0.0,0.0,0.0,0.0,0.0,5.7629,5.7997,5.7997,5.7997,5.7997,0.0,0.0,0.0,0.0,0.0,0.0,5.9651,5.9688,6.0029,6.0794,6.0923,6.1034,6.1126,6.1218,6.1235,6.1235,6.1103,6.1385,6.1924,6.1924,6.2218,6.2805,6.2805,6.2805,6.2732,6.152,6.1006,6.1006,6.1006,6.1006,6.1006,6.1006,6.1006,6.1006,0.0,0.0,0.0,0.0,0.0,0.0,0.0,0.0,0.0,0.0,0.0,5.4326,5.4326,5.506,5.5831,5.6602,5.6748,5.7116,5.7886,5.796,5.7997,5.7997,5.7997,5.7997,5.7997,5.7997,5.7997,5.7997,5.7997,5.7997,5.7997,5.7997,5.7997,5.7997,5.7997,5.7997,5.7997,5.7997,5.7997,5.7997,5.7997,0.0,0.0,0.0,0.0,0.0,0.0,0.0,0.0,0.0,0.0,0.0,0.0,0.0,0.0,0.0,0.0,0.0,0.0,0.0,0.0,0.0,0.0,0.0,0.0,0.0,0.0,0.0,0.0,0.0,0.0,0.0,0.0,0.0,0.0,0.0,0.0,0.0,0.0,5.7997,5.7997,0.0,0.0,0.0,0.0,5.9171,5.9869,6.0357,6.0535,6.0535,6.0619,6.0785,6.1569,6.1892,6.1939,6.2714,6.2988,6.2892,6.2892,6.2794,6.2768,6.2768,6.2768,6.2805,6.2805,6.2805,6.2805,6.2732,6.2695,6.2695,6.2695,6.2695,6.2695,6.2695,6.2695,6.2695,0.0,0.0,0.0,0.0,0.0,5.3225,5.3225,5.3225,5.3225,5.3225,5.3922,5.4399,5.4399,5.5574,5.6492,5.6785,5.7262,5.7703,5.796,5.7997,5.7997,5.7997,5.7997,5.7997,5.7997,5.7997,5.8253,5.8767,5.8767,5.9061,5.9538,5.9538,5.9538,5.9538,5.9538,5.9538,5.9465,5.8437,5.7997,5.7997,5.7997,5.7997,0.0,0.0,0.0,0.0,0.0,0.0,0.0,0.0,0.0,0.0,0.0,0.0,0.0,0.0,0.0,0.0,0.0,0.0,0.0,0.0,0.0,0.0,0.0,0.0,0.0,0.0,0.0,0.0,0.0,0.0,0.0,0.0,0.0,0.0,0.0,0.0,0.0,5.7997,5.8474,0.0,5.8767,5.9501,5.9979,5.9979,6.0236,6.0639,6.1202,6.1238,6.1507,6.2059,6.2353,6.25,6.25,6.2806,6.3198,6.3713,6.3713,6.3957,6.442,6.442,6.442,6.442,6.442,6.442,6.442,6.442,6.3796,6.2805,6.2805,6.2805,6.2805,6.2805,6.2805,6.2805,0.0,0.0,0.0,0.0,0.0,5.3225,5.3225,5.3225,5.3298,5.3592,5.4326,5.4913,5.517,5.6418,5.7189,5.7189,5.7703,5.7997,5.7997,5.7997,5.7997,5.7997,5.7997,5.8143,5.84,5.84,5.8804,5.9612,5.9612,5.9905,6.0419,6.0419,6.0419,6.0419,6.0334,6.0371,6.0346,5.9197,5.8757,5.8804,5.851,5.84,5.84,0.0,0.0,0.0,0.0,0.0,0.0,0.0,0.0,0.0,0.0,0.0,0.0,0.0,0.0,0.0,0.0,0.0,0.0,0.0,0.0,0.0,0.0,0.0,0.0,0.0,0.0,0.0,0.0,0.0,0.0,0.0,0.0,0.0,0.0,0.0,5.851,5.8767,5.9281,5.9612,5.9612,6.0346,6.0786,6.0786,6.108,6.1447,6.1998,6.1998,6.2365,6.3209,6.3246,6.3392,6.3649,6.3649,6.3943,6.4494,6.4494,6.4787,6.5301,6.5301,6.5301,6.5301,6.5301,6.5301,6.5301,6.5301,6.4677,6.3649,6.3649,6.3649,6.3649,6.3649,6.3649,6.3649,0.0,0.0,0.0,0.0,0.0,5.3225,5.3225,5.3225,5.3518,5.4289,5.5097,5.5941,5.6712,5.7519,5.7997,5.7997,5.7997,5.7997,5.7997,5.7997,5.7997,5.7997,5.8033,5.84,5.9208,5.9245,5.9648,6.0456,6.0456,6.0456,6.0493,6.0493,6.0493,6.0493,6.0311,6.0311,6.0444,6.0311,6.0311,6.0371,5.9575,5.9197,5.9124,0.0,0.0,0.0,0.0,0.0,0.0,0.0,0.0,0.0,0.0,0.0,0.0,0.0,0.0,0.0,0.0,0.0,0.0,0.0,0.0,0.0,0.0,0.0,0.0,0.0,0.0,0.0,0.0,0.0,0.0,0.0,0.0,0.0,5.9355,5.9245,5.9538,6.0309,6.0419,6.0456,6.0456,6.1153,6.163,6.163,6.2401,6.2842,6.2842,6.2879,6.3282,6.409,6.4127,6.4494,6.5301,6.5301,6.5301,6.5338,6.5338,6.5375,6.5375,6.5375,6.5375,6.5375,6.5375,6.5375,6.5375,6.5375,6.5375,6.5375,6.5338,6.5301,6.5301,6.5301,6.5301,6.5301,0.0,0.0,0.0,5.3225,5.3225,5.3225,5.3225,5.3702,5.4142,5.4363,5.5611,5.6565,5.6785,5.7519,5.7997,5.7997,5.7997,5.7997,5.7997,5.7997,5.7997,5.7997,5.8547,5.8988,5.9208,5.97,6.0311,6.1153,6.1153,6.1396,6.1843,6.1945,6.1945,6.1843,6.1792,6.1792,6.1843,6.1792,6.1547,6.1046,6.0358,5.9761,5.932,0.0,0.0,0.0,0.0,0.0,0.0,0.0,0.0,0.0,0.0,0.0,0.0,0.0,0.0,0.0,0.0,0.0,0.0,0.0,0.0,0.0,0.0,0.0,0.0,0.0,0.0,0.0,0.0,0.0,0.0,0.0,0.0,6.0309,6.0126,6.0089,6.0162,6.0382,6.0896,6.1263,6.1263,6.1998,6.2475,6.2475,6.3246,6.3723,6.3723,6.431,6.4714,6.4971,6.4971,6.5081,6.5301,6.5301,6.5595,6.6182,6.6182,6.6476,6.7026,6.7026,6.7026,6.7026,6.7026,6.7026,6.7026,6.7026,6.7026,6.6916,6.5778,6.5301,6.5301,6.5301,6.5301,6.5301,0.0,0.0,0.0,5.3225,5.3225,5.3335,5.3665,5.4106,5.4656,5.5317,5.6235,5.6932,5.7262,5.7703,5.7997,5.7997,5.7997,5.7997,5.7997,5.7997,5.8143,5.851,5.8904,5.9443,6.0103,6.0481,6.1003,6.1806,6.1806,6.187,6.1987,6.2059,6.1897,6.1528,6.1787,6.1787,6.162,6.1787,6.1508,6.0843,6.0538,6.0142,5.9709,5.9756,5.975,5.9786,6.009,5.9944,5.9626,5.9626,0.0,0.0,0.0,0.0,0.0,0.0,0.0,0.0,0.0,0.0,0.0,0.0,0.0,0.0,0.0,0.0,0.0,0.0,0.0,0.0,0.0,0.0,0.0,0.0,6.119,6.141,6.141,6.1117,6.1043,6.1374,6.1814,6.2108,6.2108,6.2879,6.3356,6.3356,6.4127,6.4604,6.4604,6.5044,6.5448,6.5778,6.5815,6.5962,6.6292,6.6329,6.6549,6.699,6.699,6.7247,6.7687,6.7687,6.7687,6.7687,6.7687,6.7687,6.7687,6.7687,6.7687,0.0,0.0,0.0,0.0,0.0,6.6223,6.6186,0.0,0.0,0.0,5.3225,5.3298,5.3592,5.4289,5.4546,5.517,5.6602,5.6895,5.7226,5.7923,5.7997,5.7997,5.7997,5.7997,5.7997,5.7997,5.807,5.8474,5.9124,5.9249,5.9969,6.1346,6.1354,6.1652,6.2381,6.2381,6.2041,6.1358,6.1358,6.0974,6.0371,6.0891,6.0796,6.0371,6.0891,6.0676,6.0058,6.0184,6.0189,6.0039,5.9414,5.9529,6.0077,6.0041,6.0107,6.0199,6.0199,0.0,0.0,0.0,0.0,0.0,0.0,0.0,0.0,0.0,0.0,0.0,0.0,0.0,0.0,0.0,0.0,0.0,0.0,0.0,0.0,0.0,0.0,0.0,0.0,6.2328,6.2842,6.2952,6.2328,6.2144,6.2879,6.2952,6.2989,6.3099,6.3796,6.4237,6.4237,6.4971,6.5448,6.5448,0.0,0.0,0.0,0.0,6.699,6.7687,6.7687,6.7687,6.7687,6.7687,6.7687,6.7687,6.7687,6.7687,6.7687,6.7687,6.7687,6.7687,6.7687,6.7579,6.747,6.7579,6.7633,6.7633,6.7524,6.747,6.7414,0.0,0.0,5.3225,5.3225,5.3739,5.4216,5.4363,5.55,5.6455,5.6748,5.7373,5.7813,5.796,5.7997,5.7997,5.7997,5.7997,5.7997,5.7997,5.8621,5.9014,5.9066,6.0262,6.1053,6.1244,6.1745,6.2093,6.2238,6.2238,6.1823,6.1104,6.1185,6.0831,6.0093,6.0156,6.0156,6.0093,6.0156,5.9803,5.9145,5.9145,5.9276,5.9464,5.9946,6.0249,6.0404,6.0333,6.0289,6.0232,6.0232,5.9853,5.9522,6.0053,0.0,0.0,0.0,0.0,0.0,0.0,0.0,0.0,0.0,0.0,0.0,0.0,0.0,0.0,0.0,0.0,0.0,0.0,0.0,0.0,6.2585,6.2695,6.3062,6.3759,6.3686,6.3649,6.3833,6.3833,6.409,6.4751,6.4971,6.5081,6.5081,6.5815,6.6256,6.6256,6.688,6.7283,6.7467,6.7467,6.754,6.7687,6.7687,6.7687,6.7687,0.0,0.0,6.7687,6.7687,6.7687,6.7687,6.7687,6.7687,6.7687,6.7579,6.7414,6.7266,6.7266,6.7322,6.7266,6.7266,6.7266,6.7266,0.0,5.3482,5.3335,5.3739,5.4142,5.4656,5.5464,5.6271,5.6932,5.7336,5.774,5.7997,5.7997,5.7997,5.7997,5.7997,5.7997,5.818,5.8584,5.8988,5.948,6.0188,6.0943,6.1463,6.1673,6.195,6.2114,6.2114,6.1768,6.1221,6.0468,6.0184,5.9674,5.8944,5.9314,5.9247,5.9012,5.9314,5.9045,5.8388,5.8388,5.8458,5.8598,5.9346,5.9867,6.0219,6.0219,6.0427,6.069,6.069,6.0755,6.0861,6.1193,6.1382,6.1432,0.0,0.0,0.0,0.0,0.0,0.0,0.0,0.0,0.0,0.0,0.0,0.0,0.0,0.0,6.2328,6.2732,0.0,6.3466,6.3466,6.3796,6.42,6.464,6.4714,6.4714,6.4714,6.4714,6.4861,6.5264,6.5668,6.5888,6.5888,6.6659,6.71,6.71,6.7467,6.7687,6.7687,6.7687,6.7687,6.7687,6.7687,6.7687,6.7687,6.7687,6.7687,6.7687,6.7687,6.7687,6.7687,6.7633,6.7579,6.7579,6.7359,6.719,6.7097,6.7019,6.7097,6.721,6.7097,6.7097,6.7097,0.0,0.0,5.3885,5.4509,5.4766,5.5317,5.6602,5.6932,5.7262,5.7923,5.7997,5.7997,5.7997,5.7997,5.7997,5.7997,5.7997,5.8327,5.9171,5.9355,5.9993,6.1359,6.139,6.1688,6.2185,6.206,6.2005,6.2005,6.1315,6.0651,5.9966,5.9247,5.8528,5.7954,5.8458,5.8388,5.7954,5.8458,5.8388,5.7881,5.7881,5.7881,5.7954,5.8528,5.918,5.9774,5.9644,6.0058,6.0736,6.0736,6.1185,6.1787,6.1933,6.1987,6.2041,6.2185,6.2238,0.0,0.0,0.0,0.0,0.0,0.0,0.0,0.0,0.0,6.2879,6.3025,6.3062,6.3099,6.3282,6.387,6.431,6.431,6.4897,6.5375,6.5521,6.5521,6.5595,6.5742,6.5632,6.5595,6.5742,6.6366,6.6733,6.6733,6.732,6.7687,6.7687,6.7687,6.7687,6.7687,6.7687,6.7687,6.7687,6.7687,6.7687,6.7687,6.7687,6.7687,6.7687,6.7687,6.7687,6.7687,6.7524,6.747,6.7359,6.7134,6.7019,6.6961,6.6845,6.6961,6.7097,6.7019,6.6961,6.6961,0.0,0.0,0.0,5.5427,5.6051,5.6602,5.6785,5.7409,5.7886,5.7997,5.7997,5.7997,5.7997,5.7997,5.7997,5.7997,5.7997,5.8327,5.9171,5.9869,6.0628,6.1396,6.1938,6.2271,6.2185,6.206,6.2005,6.2005,6.1315,6.0651,5.9966,5.9247,5.8528,5.7881,5.7954,5.7954,5.7881,5.7954,5.7954,5.7881,5.7881,5.7881,5.7881,5.7954,5.8458,5.8977,5.8351,5.8598,5.9145,5.9145,5.9346,5.9574,6.0246,6.0555,6.0736,6.1358,0.0,6.1676,6.2291,6.25,6.2464,6.1915,6.2271,6.2805,0.0,0.0,6.3025,6.3796,6.3943,6.4163,6.4897,6.5118,6.5191,6.5191,6.5264,6.5558,6.6256,6.6366,6.6623,6.7357,6.6806,6.6659,6.7357,6.7504,6.7577,6.7577,6.765,6.7687,6.7687,6.7687,6.7687,6.7687,6.7687,6.7687,6.7687,6.7687,6.7687,6.7687,6.7687,6.7687,6.7687,6.7687,6.7687,6.7687,6.7524,6.7303,6.7076,6.7019,6.6961,6.6786,6.6822,6.6786,6.6845,6.6786,6.6786,6.6786,0.0,0.0,0.0,5.6895,5.6895,5.6969,5.7446,5.7776,5.7997,5.7997,5.7997,5.7997,5.7997,5.7997,5.7997,5.7997,5.7997,5.8547,5.9832,6.0236,6.0921,6.2054,6.2266,6.2381,6.2185,6.206,6.2005,6.2005,6.1315,6.0686,5.9966,5.9247,5.8528,5.7881,5.7881,5.7881,5.7881,5.7881,5.7881,5.7881,5.7881,5.7881,5.7881,5.7881,5.8065,5.828,5.8027,5.8317,0.0,5.8909,5.9212,5.9674,5.9966,6.0156,6.0344,6.095,6.1127,0.0,6.2185,6.2529,0.0,0.0,6.3298,6.3686,6.4163,6.4273,6.4383,6.4714,6.4787,6.4897,6.5264,6.5705,6.5999,0.0,6.6402,6.6806,6.7136,6.7173,6.732,6.765,6.7393,6.732,6.765,6.7687,6.7687,6.7687,6.7687,6.7687,6.7687,6.7687,6.7687,6.7687,6.7687,6.7687,6.7687,6.7687,6.7687,6.7687,6.7687,6.7687,6.7687,6.7174,6.6852,6.6677,6.704,6.6867,6.6258,6.6258,6.6233,6.6172,6.6172,6.6452,6.6786,6.6786,6.6786,6.6786,0.0,0.0,0.0,5.7886,5.7519,5.7336,5.7923,5.7997,5.7997,5.7997,5.7997,5.7997,5.7997,5.7997,5.7997,5.7997,5.8217,5.8914,6.0309,6.0603,6.1288,6.253,6.25,6.2344,6.2185,6.2114,6.195,6.1692,6.1081,6.0344,5.9709,5.8977,5.8388,5.7881,5.7881,5.7881,5.7881,5.7881,5.7881,5.7881,5.7881,5.7881,5.7881,5.7881,5.8017,5.8186,5.8186,5.8515,5.8977,5.9183,5.9599,6.0006,6.0006,6.0006,6.014,6.0854,6.1167,6.1412,6.1946,0.0,0.0,6.3213,6.3675,6.4128,6.4765,6.5108,6.5286,6.5595,6.5632,6.5705,6.5925,6.6439,6.6843,6.6843,6.732,6.7687,6.7687,6.7687,6.7687,6.7687,6.7687,6.7687,6.7687,6.7687,6.7687,6.7687,6.7687,6.7687,6.7687,6.7687,6.7687,6.7687,6.7687,6.7687,6.7687,6.7488,6.7433,6.7433,6.723,6.7081,6.7024,6.6307,6.5878,6.5625,6.6161,6.6136,6.5697,6.5697,6.5824,6.6012,6.6012,6.633,6.6786,6.6786,6.6786,6.6786,0.0,0.0,0.0,0.0,5.796,5.796,5.7997,5.7997,5.7997,5.7997,5.7997,5.7997,5.7997,5.7997,5.7997,5.7997,5.8731,5.9538,6.0346,6.1117,6.1875,6.2567,6.2603,6.2449,6.2185,6.2185,6.1823,6.1045,6.0344,5.9644,5.8909,5.828,5.7881,5.7881,5.7881,5.7881,5.7881,5.7881,5.7881,5.7881,5.7881,5.7881,5.7881,5.7881,5.8355,5.8998,5.8998,5.8964,5.9099,5.9776,6.0088,6.0088,6.0088,6.0088,0.0,6.1008,6.1674,6.2013,6.1432,0.0,6.2244,6.1606,6.2634,6.3716,6.3892,6.4475,6.5291,6.6239,6.6476,6.6696,6.7467,6.765,6.765,6.765,6.765,6.7687,6.7687,6.7687,6.7687,6.7687,6.7687,6.7687,0.0,6.7687,6.7687,6.7687,6.7687,6.7687,6.7687,6.7687,6.7687,6.7687,6.7687,6.7687,6.7687,6.7061,6.6736,6.6736,6.6002,6.559,6.5397,6.5131,6.4968,6.487,6.487,6.5171,6.5697,6.5697,6.611,6.6727,6.6727,6.6786,6.6786,6.6786,6.6786,6.6786,0.0,0.0,0.0,0.0,0.0,5.7997,5.7997,5.7997,5.7997,5.7997,5.7997,0.0,0.0,0.0,0.0,0.0,5.8767,5.9538,6.0346,6.1153,6.1911,6.2567,6.25,6.2397,6.2185,6.2114,6.195,6.1692,6.0986,6.0282,5.9644,5.8909,5.8351,5.7881,5.7881,5.7881,5.7881,5.7881,5.7881,5.7881,5.7881,5.7881,5.7949,5.8457,5.8795,5.9133,0.0,6.0182,5.9776,6.0013,6.0114,6.0114,6.0114,6.0114,6.0231,6.1005,6.1707,6.2196,6.2053,0.0,6.2578,6.2883,6.3347,6.3938,6.45,6.4956,6.5309,6.5658,6.579,6.6138,6.6874,6.7061,6.7174,6.7633,6.7687,6.7687,6.7687,6.7687,6.7687,6.7687,6.7687,0.0,0.0,0.0,0.0,6.7687,6.7687,6.7687,6.7687,6.7687,6.7488,6.7061,6.7061,6.6736,6.6089,6.5904,6.5716,6.5554,6.5361,6.4835,6.4253,6.47,6.453,6.397,6.4428,6.4497,6.4253,6.4253,6.4669,6.5338,6.5338,6.5922,6.6786,6.6786,6.6786,6.6786,0.0,0.0,0.0,0.0,0.0,0.0,0.0,0.0,0.0,0.0,0.0,0.0,0.0,0.0,0.0,0.0,0.0,5.9869,6.0382,6.1361,6.2105,6.2515,6.2449,6.2291,6.2168,6.2114,6.195,6.1636,6.0986,6.0282,5.9578,5.8841,5.8317,5.7881,5.7881,5.7881,5.7881,5.7881,5.8051,5.8287,5.8287,5.8457,5.8727,5.9201,5.9573,0.0,6.096,6.1129,6.0926,6.0926,6.0926,6.0926,6.0926,6.0926,6.0969,6.1497,6.1987,6.2301,6.2402,6.243,6.2591,6.317,6.3519,6.383,6.439,6.4835,6.5101,6.5166,6.5297,6.5526,6.6002,6.6404,6.6677,6.6816,6.7341,6.7633,6.7378,6.7542,6.7687,6.7687,6.7687,6.7687,0.0,0.0,0.0,6.7687,6.7687,6.7687,6.7687,6.7488,6.7117,6.6618,6.6344,6.5842,6.5232,6.4968,6.4667,6.4323,6.4253,6.39,6.3348,6.3719,6.3608,6.3158,6.3643,6.3716,6.3531,6.3531,6.4041,6.5008,6.5008,6.576,6.6786,6.6786,6.6786,6.6786,0.0,0.0,0.0,0.0,0.0,0.0,0.0,0.0,0.0,0.0,0.0,0.0,0.0,0.0,0.0,0.0,0.0,0.0,6.0419,6.1825,6.2552,6.2433,6.2433,6.2275,6.2005,6.2114,6.1823,6.1045,6.0344,5.9709,5.8943,5.8385,5.8095,5.8022,5.8056,5.809,5.8017,5.8017,5.8423,5.9066,5.9066,5.9471,6.0114,6.0148,6.0655,6.1298,6.1332,6.1806,6.2381,6.2381,6.2381,6.2381,6.2381,6.2381,6.2381,6.2381,6.2381,6.2381,6.2381,6.2381,6.2381,6.2381,6.2966,6.3496,6.3574,6.4183,6.4735,6.4866,6.4866,6.4933,0.0,0.0,6.6064,6.5462,6.6641,6.7433,6.6831,6.7266,6.7687,0.0,0.0,0.0,0.0,0.0,0.0,6.7633,0.0,6.7687,6.7633,6.7061,6.6559,6.6283,6.559,6.5101,6.4866,6.4253,6.3608,6.3,6.277,6.2693,6.2727,6.2459,6.2381,6.2381,6.2381,6.2813,6.3457,6.3496,6.4323,6.5697,6.5697,6.6172,6.6786,6.6786,6.6786,6.6786,0.0,0.0,0.0,0.0,0.0,0.0,0.0,0.0,0.0,0.0,0.0,0.0,0.0,0.0,0.0,0.0,0.0,0.0,6.0419,6.1875,6.2654,6.2397,6.2433,6.2275,6.2005,6.2005,6.195,6.1748,6.1045,6.0651,6.0468,6.0369,6.0081,5.956,6.011,6.0062,5.9539,5.9539,5.9641,5.981,5.981,5.9945,6.0182,6.0757,6.1129,6.1366,6.1907,6.2245,6.2381,6.2381,6.2381,6.2381,6.2381,6.2381,6.2381,6.2381,6.2381,6.2381,6.2381,6.2381,6.2381,6.2381,6.2537,6.2659,6.2736,6.3007,6.3233,6.3274,6.3422,6.3681,0.0,0.0,0.0,6.6002,6.6582,0.0,6.7378,6.7174,0.0,6.7633,0.0,6.7174,6.7633,6.7687,0.0,0.0,6.7433,6.7433,6.6794,6.6582,6.594,6.4667,6.4462,6.4006,6.3274,6.3007,6.2736,6.2537,6.2459,6.2459,6.2459,6.2381,6.2381,6.2381,6.2381,6.2537,6.2736,6.3308,6.4076,6.4941,6.5468,6.6172,6.6786,6.6786,6.6786,6.6786,0.0,0.0,0.0,0.0,0.0,0.0,0.0,0.0,0.0,0.0,0.0,0.0,0.0,0.0,0.0,0.0,0.0,0.0,0.0,6.1875,6.2654,6.25,6.2381,6.2275,6.2168,6.206,6.2186,6.2567,6.1516,6.1165,6.1486,6.098,6.0307,5.9599,6.0013,5.9795,5.9133,5.9133,5.9505,0.0,0.0,6.052,6.1163,6.1603,6.1772,6.1839,6.2245,6.2381,6.2381,6.2381,6.2381,6.2381,6.2381,6.2381,6.2381,6.2381,6.2381,6.2381,6.2381,6.2381,6.2381,6.2381,6.2381,6.2381,6.2381,6.2459,6.2537,6.2537,6.2693,0.0,6.3199,6.3754,0.0,0.0,0.0,0.0,6.6344,6.6559,6.6736,0.0,6.6736,0.0,6.6758,6.6758,6.6641,0.0,6.6852,6.7004,6.6464,6.5815,6.5136,6.4393,6.3754,6.3158,6.2537,6.2459,6.2381,6.2381,6.2381,6.2381,6.2381,6.2381,6.2381,6.2381,0.0,6.2615,6.2889,6.3308,6.4112,6.5141,6.5533,6.6172,6.6786,6.6786,6.6786,6.6786,0.0,0.0,0.0,0.0,0.0,0.0,0.0,0.0,0.0,0.0,5.7997,5.7997,0.0,0.0,0.0,0.0,0.0,0.0,0.0,0.0,6.2603,6.2603,6.2397,6.2291,6.2433,6.2168,6.2386,6.3239,6.181,6.1462,6.2141,6.0892,5.9914,5.9183,5.9219,5.8802,5.8186,5.8186,5.893,6.0114,6.0114,6.096,6.2245,0.0,6.2313,6.2381,6.2381,6.2381,6.2381,6.2381,6.2381,6.2381,6.2381,6.2381,6.2381,6.2381,6.2381,6.2381,6.2381,6.2381,6.2381,6.2381,6.2381,6.2381,6.2381,6.2381,6.2381,6.2381,0.0,6.2381,6.2381,6.3199,6.3681,6.3193,0.0,6.5202,6.477,6.5625,6.6125,6.559,6.6002,6.6125,6.559,6.5526,6.5526,6.5397,6.6002,6.6283,6.6064,6.4905,6.4288,6.4462,6.3308,6.2571,6.2381,6.2381,6.2381,6.2381,6.2381,6.2381,6.2381,6.2381,6.2381,6.2381,6.2537,0.0,6.3531,6.3716,6.4532,6.5697,6.5824,6.6233,6.6786,6.6786,6.6786,6.6786,0.0,0.0,0.0,0.0,0.0,0.0,0.0,0.0,0.0,0.0,5.7997,5.7997,0.0,0.0,0.0,0.0,0.0,0.0,0.0,0.0,0.0,6.2603,6.2552,6.25,6.2397,6.2275,6.2241,6.2403,6.1987,6.1912,6.2057,6.1914,6.1423,6.0688,6.0774,6.0378,5.9708,5.9708,5.9877,6.0114,6.0114,6.0655,6.1501,6.1501,0.0,0.0,6.2381,6.2381,6.2381,6.2381,6.2381,6.2381,6.2381,6.2381,6.2381,6.2381,6.2381,6.2381,6.2381,6.2381,6.2381,6.2381,6.2381,6.2381,6.2381,6.2381,0.0,0.0,6.2381,6.2381,6.2381,6.2693,6.3083,6.3754,6.4077,6.4462,6.507,6.4803,6.4667,0.0,6.487,6.4803,6.5065,0.0,0.0,0.0,0.0,6.4462,6.4393,6.4006,6.3535,6.2855,6.2615,6.2459,6.2381,6.2381,6.2381,6.2381,6.2381,6.2381,6.2381,6.2381,6.2381,6.2459,6.3007,0.0,6.357,6.4806,6.5468,6.576,6.6391,6.6668,6.6786,6.6786,6.6786,6.6786,0.0,0.0,0.0,0.0,0.0,0.0,0.0,5.7997,5.7997,5.7997,5.7997,5.7997,5.7997,5.7997,5.7997,0.0,0.0,0.0,0.0,0.0,0.0,0.0,6.2654,6.2603,6.2603,6.2397,6.2563,6.3017,0.0,6.2332,6.2731,6.2269,6.1557,6.0563,6.0587,5.9943,5.8964,5.8964,5.9167,5.9539,5.9539,6.0013,6.0723,0.0,0.0,0.0,0.0,6.2381,6.2381,6.2381,6.2381,6.2381,6.2381,6.2381,6.2381,6.2381,6.2381,6.2381,6.2381,6.2381,6.2381,6.2381,6.2381,6.2381,6.2381,0.0,0.0,0.0,6.2381,6.2381,6.2381,6.2537,0.0,6.3233,6.3422,6.3643,6.4006,6.4077,6.4006,6.3935,6.4077,6.4077,0.0,6.4006,6.397,6.3496,0.0,6.3496,6.3898,6.3681,6.3199,6.2459,6.2381,6.2381,6.2381,6.2381,6.2381,6.2381,6.2381,6.2381,6.2381,6.2381,6.2381,6.2459,6.3158,0.0,6.4112,6.5273,6.5949,6.6294,6.6668,6.6786,6.6786,6.6786,6.6786,6.6786,0.0,0.0,0.0,0.0,0.0,0.0,5.7997,5.7997,5.7997,5.7997,5.7997,5.7997,5.7997,5.7997,5.7997,0.0,0.0,0.0,0.0,0.0,0.0,0.0,0.0,0.0,0.0,0.0,0.0,6.3555,6.2672,0.0,0.0,0.0,0.0,0.0,6.003,5.9314,5.8137,5.8137,5.8366,0.0,0.0,5.9201,0.0,0.0,0.0,0.0,0.0,6.2245,6.2381,6.2381,6.2381,6.2381,6.2381,6.2381,6.2381,6.2381,6.2381,6.2381,6.2381,6.2381,6.2381,6.2381,6.2381,6.2381,6.2381,6.2381,0.0,6.2381,6.2381,6.2381,6.2381,6.2537,6.2615,0.0,6.277,6.2923,6.2923,6.3348,6.3462,0.0,6.3348,0.0,6.2923,6.2923,0.0,6.2847,6.2693,6.2923,6.3457,6.3383,6.3007,6.2381,6.2381,6.2381,6.2381,6.2381,6.2381,6.2381,6.2381,6.2381,6.2381,6.2537,6.2693,6.2659,6.357,0.0,0.0,6.5633,6.6233,6.6786,6.6786,6.6786,6.6786,6.6786,6.6786,6.6845,0.0,0.0,0.0,0.0,0.0,0.0,5.7997,5.7997,5.7997,5.7997,5.7997,5.7997,5.7997,5.7997,5.7997,0.0,0.0,0.0,0.0,0.0,0.0,0.0,0.0,0.0,0.0,0.0,0.0,6.2713,6.2485,0.0,0.0,0.0,0.0,0.0,0.0,5.9578,5.8841,5.8841,0.0,0.0,0.0,0.0,0.0,0.0,0.0,0.0,0.0,6.1839,6.2381,6.2381,6.2381,6.2381,6.2381,6.2381,6.2381,6.2381,0.0,0.0,6.2381,6.2381,6.2381,6.2381,6.2381,6.2381,6.2381,0.0,6.2381,6.2381,6.2381,6.2381,6.2381,6.2381,0.0,0.0,0.0,6.2537,6.2693,6.2615,6.2537,6.2459,0.0,0.0,6.2459,6.2615,6.2615,6.2459,6.2459,6.2459,6.2537,6.2537,6.2459,6.2381,6.2381,6.2381,6.2381,6.2381,6.2381,6.2381,6.2381,6.2381,6.2381,6.3083,6.3383,6.3531,6.4873,0.0,0.0,6.6391,6.6727,6.6786,6.6786,6.6786,6.6786,6.6786,6.6845,6.7019,0.0,0.0,0.0,0.0,0.0,0.0,5.7997,5.7997,5.7997,5.7997,5.7997,5.7997,5.7997,5.7997,5.7997,5.7997,0.0,0.0,0.0,0.0,0.0,0.0,0.0,0.0,0.0,0.0,6.2705,6.2705,6.2603,0.0,0.0,0.0,0.0,0.0,0.0,6.0219,5.9513,5.9113,0.0,0.0,0.0,0.0,0.0,0.0,0.0,0.0,0.0,0.0,6.2381,6.2381,6.2381,6.2381,6.2381,6.2381,6.2381,6.2381,6.2381,6.2381,6.2381,6.2381,6.2381,6.2381,6.2381,6.2381,6.2381,0.0,6.2381,6.2381,6.2381,6.2381,6.2381,6.2381,6.2381,6.2459,6.2459,6.2459,6.2459,6.2459,6.2381,6.2381,6.2459,0.0,0.0,0.0,6.2459,6.2381,6.2381,6.2381,6.2381,6.2381,6.2381,6.2381,6.2381,6.2381,6.2381,6.2381,6.2381,6.2381,6.2381,6.2381,6.2381,6.2659,6.2813,6.2966,6.4393,0.0,0.0,6.633,6.6786,6.6786,6.6786,6.6845,6.6903,6.6903,6.7019,6.7154,0.0,0.0,0.0,0.0,0.0,5.7997,5.7997,5.7997,5.7997,5.7997,5.7997,5.7997,5.7997,5.7997,5.7997,5.7997,5.851,0.0,0.0,0.0,0.0,0.0,0.0,0.0,0.0,0.0,6.2805,6.2805,6.2705,6.2654,0.0,0.0,0.0,0.0,0.0,0.0,0.0,0.0,0.0,0.0,0.0,0.0,0.0,0.0,0.0,0.0,0.0,0.0,0.0,0.0,0.0,6.2381,6.2381,6.2381,6.2381,6.2381,6.2381,6.2381,6.2381,6.2381,6.2381,6.2381,6.2381,6.2381,0.0,0.0,6.2381,6.2381,6.2381,6.2381,6.2381,6.2381,6.2381,6.2381,6.2381,6.2381,6.2381,6.2381,6.2381,6.2381,0.0,6.2381,0.0,6.2381,6.2381,6.2381,6.2381,6.2381,6.2381,6.2381,6.2381,6.2381,6.2381,6.2381,6.2381,6.2381,6.2381,6.2381,6.2381,6.2381,6.2381,6.2615,6.2889,6.3158,6.4393,0.0,0.0,6.6391,6.6786,6.6845,6.6845,6.6961,6.704,6.704,6.7154,6.7322,0.0,0.0,0.0,0.0,0.0,5.7997,5.7997,5.7997,5.7997,5.7997,5.7997,5.7997,5.7997,5.7997,5.7997,5.7997,5.7997,0.0,0.0,0.0,0.0,0.0,0.0,0.0,0.0,0.0,6.2805,6.2805,6.2805,6.2705,6.2603,6.2449,6.2291,6.2185,0.0,0.0,0.0,0.0,0.0,0.0,0.0,0.0,0.0,0.0,0.0,0.0,0.0,0.0,0.0,0.0,0.0,0.0,0.0,6.2381,6.2381,6.2381,6.2381,6.2381,6.2381,6.2381,6.2381,6.2381,6.2381,6.2381,0.0,6.2381,6.2381,6.2381,6.2381,6.2381,6.2381,6.2381,6.2381,6.2381,6.2381,6.2381,6.2381,6.2381,6.2381,0.0,0.0,6.2381,6.2381,6.2381,6.2381,6.2381,6.2381,0.0,6.2381,6.2381,6.2381,6.2381,6.2381,6.2381,6.2381,6.2381,6.2381,6.2381,6.2381,6.2381,6.2381,6.3158,6.3933,6.4601,0.0,0.0,0.0,6.6786,6.6845,6.7019,6.7019,6.7097,6.721,6.721,6.7322,6.7506,0.0,0.0,0.0,0.0,0.0,0.0,5.7997,5.7997,5.7997,5.7997,5.7997,5.7997,5.7997,5.7997,5.7997,5.7997,5.7997,0.0,0.0,0.0,0.0,0.0,0.0,0.0,0.0,0.0,6.2805,6.2805,6.2805,6.2755,6.2705,6.2603,6.2449,6.2291,6.2222,0.0,0.0,0.0,0.0,0.0,0.0,0.0,0.0,0.0,0.0,0.0,0.0,0.0,0.0,0.0,0.0,0.0,0.0,0.0,0.0,6.2381,6.2381,6.2381,6.2381,6.2381,6.2381,6.2381,6.2381,6.2381,6.2381,6.2381,6.2381,6.2381,6.2381,6.2381,6.2381,6.2381,6.2381,6.2381,6.2381,6.2381,6.2381,0.0,0.0,6.2381,6.2381,6.2381,0.0,0.0,6.2381,6.2381,6.2381,6.2381,6.2381,6.2381,6.2381,6.2381,6.2381,6.2381,6.2381,6.2381,6.2381,6.2381,6.2381,6.2381,6.2381,6.2659,6.3158,0.0,0.0,0.0,0.0,6.6691,6.6961,6.7019,6.7097,6.721,6.7414,6.7414,6.7524,6.7633,0.0,0.0,0.0,0.0,0.0,0.0,5.7997,5.7997,5.7997,5.7997,5.7997,5.7997,5.7997,5.7997,5.7997,5.7997,5.7997,0.0,0.0,0.0,0.0,0.0,0.0,0.0,6.2805,6.2805,6.2805,6.2805,6.2805,6.2805,6.2805,6.2654,6.2552,6.2449,6.2344,6.2222,0.0,0.0,0.0,0.0,0.0,0.0,5.7881,0.0,0.0,0.0,0.0,0.0,0.0,0.0,0.0,0.0,0.0,0.0,0.0,0.0,6.2381,6.2381,6.2381,6.2381,6.2381,6.2381,6.2381,6.2381,6.2381,6.2381,6.2381,6.2381,6.2381,6.2381,6.2381,6.2381,6.2381,6.2381,6.2381,6.2381,0.0,0.0,0.0,6.2381,0.0,0.0,0.0,6.2381,6.2381,6.2381,6.2381,6.2381,6.2381,6.2381,6.2381,6.2381,6.2381,6.2381,6.2381,6.2381,6.2381,6.2381,6.2381,6.2381,6.2381,6.2659,6.3233,0.0,0.0,0.0,0.0,6.6867,6.7097,6.719,6.7266,6.7414,6.7579,6.7579,6.7633,6.7687,0.0,0.0,0.0,0.0,0.0,0.0,0.0,5.7997,5.7997,5.7997,5.7997,5.7997,5.7997,5.7997,5.7997,5.7997,5.7997,0.0,0.0,0.0,0.0,0.0,0.0,0.0,6.2695,6.2768,6.2805,6.2805,6.2805,6.2805,6.2805,6.2654,6.2603,6.2603,6.2449,6.2344,0.0,0.0,0.0,0.0,5.9279,5.8564,0.0,0.0,0.0,0.0,0.0,0.0,0.0,0.0,0.0,0.0,0.0,0.0,0.0,0.0,0.0,0.0,0.0,6.2381,6.2381,6.2381,6.2381,6.2381,6.2381,6.2381,0.0,6.2381,6.2381,6.2381,6.2381,6.2381,6.2381,6.2381,0.0,0.0,0.0,6.2381,0.0,0.0,6.2381,0.0,6.2381,6.2381,6.2381,6.2381,6.2381,6.2381,6.2381,6.2381,6.2381,6.2381,6.2381,6.2381,6.2381,6.2381,6.2381,6.2381,6.2459,6.2459,6.2537,6.3233,6.4004,0.0,0.0,0.0,0.0,6.7154,6.7322,6.747,6.747,6.7579,6.7687,6.7687,6.7687,6.7687,0.0,0.0,0.0,0.0,0.0,0.0,0.0,0.0,0.0,0.0,5.7997,5.7997,5.7997,5.7997,5.7997,0.0,0.0,0.0,0.0,0.0,0.0,0.0,0.0,0.0,6.1887,6.2511,6.2805,6.2805,6.2805,6.2805,6.2805,6.2755,6.2705,6.2603,6.2552,6.2397,0.0,0.0,0.0,0.0,6.003,5.9314,0.0,0.0,0.0,0.0,5.8761,5.9471,0.0,0.0,0.0,0.0,0.0,0.0,0.0,0.0,6.2381,6.2381,6.2381,0.0,6.2381,6.2381,6.2381,6.2381,0.0,6.2381,6.2381,6.2381,0.0,6.2381,6.2381,6.2381,6.2381,0.0,0.0,6.2381,6.2381,0.0,0.0,6.2381,6.2381,6.2381,6.2381,6.2381,6.2381,6.2381,6.2381,6.2381,6.2381,6.2381,6.2381,6.2381,6.2381,6.2381,6.2381,6.2381,6.2381,6.2381,6.2966,6.3233,6.3233,6.4004,6.4806,0.0,0.0,0.0,6.7154,6.7359,6.747,6.747,6.7579,6.7687,6.7687,6.7687,6.7687,6.7687,0.0,0.0,0.0,0.0,0.0,0.0,0.0,0.0,0.0,0.0,5.7997,5.7997,5.7997,5.7997,5.7997,0.0,0.0,0.0,0.0,0.0,0.0,0.0,0.0,6.1227,6.1594,6.2401,6.2805,6.2805,6.2805,6.2805,6.2805,6.2805,6.2755,6.2705,6.2552,6.2397,0.0,0.0,0.0,0.0,6.0156,0.0,0.0,0.0,0.0,0.0,5.8355,5.9201,0.0,6.0588,6.1467,6.2381,0.0,0.0,0.0,0.0,6.2381,6.2381,6.2381,6.2381,6.2381,6.2381,6.2381,6.2381,6.2381,6.2381,6.2381,6.2381,6.2381,6.2381,6.2381,6.2381,6.2381,0.0,6.2381,0.0,0.0,0.0,6.2381,6.2381,6.2381,6.2381,0.0,0.0,6.2381,6.2381,6.2381,6.2381,6.2381,6.2381,6.2381,6.2381,6.2381,6.2381,6.2381,6.2381,6.2381,6.2381,6.3158,6.3531,6.3496,6.4601,6.5403,0.0,0.0,0.0,6.7359,6.7524,6.7579,6.7579,6.7687,6.7687,6.7687,6.7687,6.7687,6.7687,0.0,0.0,0.0,0.0,0.0,0.0,0.0,0.0,0.0,0.0,0.0,0.0,0.0,0.0,0.0,0.0,0.0,0.0,0.0,0.0,0.0,0.0,5.9905,6.0713,6.141,6.2328,6.2805,6.2805,6.2805,6.2805,6.2805,6.2805,6.2805,6.2805,6.2552,6.2344,0.0,0.0,0.0,0.0,6.0093,0.0,0.0,0.0,0.0,0.0,0.0,0.0,0.0,6.0114,6.1129,6.2381,6.2381,0.0,0.0,0.0,0.0,0.0,6.2381,6.2381,6.2381,6.2381,6.2381,6.2381,6.2381,6.2381,6.2381,6.2381,6.2381,6.2381,6.2381,6.2381,0.0,0.0,0.0,0.0,6.2381,6.2381,6.2381,6.2381,6.2381,0.0,6.2381,6.2381,6.2381,6.2381,6.2381,6.2381,6.2381,6.2381,6.2381,6.2381,6.2381,6.2381,6.2381,6.2381,6.2459,6.2615,6.3308,6.3716,6.3861,6.5273,6.6012,6.61,0.0,0.0,6.7524,6.7633,6.7687,6.7687,6.7687,6.7687,6.7687,6.7687,6.7687,6.7687,0.0,0.0,0.0,0.0,0.0,0.0,0.0,0.0,0.0,0.0,0.0,0.0,0.0,0.0,0.0,0.0,0.0,0.0,0.0,0.0,0.0,5.818,5.9612,6.0456,6.0566,6.2034,6.2805,6.2805,6.2805,6.2805,6.2805,6.2805,6.2805,6.2805,6.2654,6.25,6.2344,0.0,0.0,6.1579,6.0503,0.0,0.0,0.0,0.0,0.0,0.0,0.0,0.0,6.0114,6.1129,6.2381,6.2381,0.0,0.0,0.0,0.0,0.0,6.2381,6.2381,6.2381,6.2381,6.2381,6.2381,6.2381,6.2381,6.2381,6.2381,6.2381,6.2381,6.2381,6.2381,6.2381,0.0,0.0,6.2381,0.0,0.0,6.2381,6.2381,0.0,6.2381,6.2381,6.2381,6.2381,6.2381,6.2381,6.2381,6.2381,6.2381,6.2381,6.2381,6.2381,6.2381,6.2381,6.2381,6.2736,6.3383,6.4041,6.4738,6.5403,6.6355,6.6867,6.7004,0.0,6.7524,6.7687,6.7687,6.7687,6.7687,6.7687,6.7687,6.7687,6.7687,6.7687,6.7687,0.0,0.0,0.0,0.0,0.0,0.0,0.0,0.0,0.0,0.0,0.0,0.0,0.0,0.0,0.0,0.0,0.0,0.0,0.0,0.0,5.7997,5.7997,5.9538,6.0419,6.0419,6.1998,6.2805,6.2805,6.2805,6.2805,6.2805,6.2805,6.2755,6.2705,6.2654,6.25,6.2397,6.2275,6.1768,6.0986,0.0,0.0,0.0,0.0,0.0,0.0,0.0,0.0,0.0,0.0,6.1467,6.2381,6.2381,0.0,0.0,0.0,0.0,0.0,6.2381,6.2381,6.2381,6.2381,6.2381,6.2381,6.2381,6.2381,6.2381,6.2381,6.2381,6.2381,6.2381,0.0,6.2381,6.2381,0.0,6.2381,6.2381,6.2381,6.2381,0.0,0.0,6.2381,6.2381,6.2381,6.2381,6.2381,6.2381,6.2381,6.2381,6.2381,6.2381,6.2381,6.2381,6.2381,6.2381,6.2381,6.2615,6.2966,6.4463,6.5141,6.5141,6.6416,6.704,6.721,0.0,6.7579,6.7687,6.7687,6.7687,6.7687,6.7687,6.7687,6.7687,6.7687,6.7687,6.7687,0.0,0.0,0.0,0.0,0.0,0.0,0.0,0.0,0.0,0.0,0.0,0.0,0.0,0.0,0.0,0.0,0.0,0.0,0.0,5.7997,5.807,5.8253,5.9648,6.0419,6.0419,6.1998,6.2805,6.2805,6.2805,6.2805,6.2805,6.2805,6.2755,6.2654,6.2603,6.2552,6.2449,6.2238,6.1508,6.0371,0.0,0.0,0.0,0.0,0.0,0.0,0.0,0.0,0.0,0.0,0.0,0.0,0.0,0.0,0.0,6.2381,6.2381,6.2381,6.2381,6.2381,6.2381,6.2381,6.2381,6.2381,6.2381,6.2381,6.2381,0.0,0.0,0.0,0.0,6.2381,0.0,6.2381,6.2381,6.2381,6.2381,0.0,0.0,0.0,0.0,6.2381,6.2381,6.2381,6.2448,6.2651,6.2651,6.2719,6.2888,6.2753,6.2651,6.2651,6.2482,6.2381,6.2381,6.2615,6.2659,6.2659,6.4532,6.5207,6.4941,6.638,6.7097,6.721,6.747,6.7579,6.7687,6.7687,6.7687,6.7687,6.7687,6.7687,6.7687,6.7687,6.7687,6.7687,0.0,0.0,0.0,0.0,0.0,0.0,0.0,0.0,0.0,0.0,0.0,0.0,0.0,0.0,0.0,0.0,0.0,0.0,0.0,5.7997,5.8327,5.9098,5.9942,6.0419,6.0419,6.1998,6.2805,6.2805,6.2805,6.2805,6.2805,6.2805,6.2805,6.2755,6.2654,6.2603,6.2552,6.2291,6.1768,6.1068,6.0282,0.0,0.0,0.0,0.0,0.0,0.0,0.0,0.0,0.0,0.0,0.0,0.0,0.0,6.2381,6.2381,6.2381,6.2381,6.2381,6.2381,6.2381,6.2381,6.2381,6.2381,6.2381,6.2381,0.0,6.2381,0.0,0.0,0.0,6.2381,6.2381,6.2381,6.2381,6.2381,6.2381,0.0,6.2381,6.2381,6.2381,6.2381,6.2381,6.2381,6.2685,6.3396,6.3429,6.3734,6.441,6.3802,6.3429,6.3429,6.2753,6.2381,6.2381,6.3083,6.3457,6.3457,6.4253,6.5008,6.5697,6.6714,6.721,6.721,6.7542,6.7687,6.7687,6.7687,6.7687,6.7687,6.7687,6.7687,6.7687,6.7687,6.7687,6.7741,0.0,0.0,0.0,0.0,0.0,0.0,0.0,0.0,0.0,0.0,0.0,0.0,0.0,0.0,0.0,0.0,0.0,0.0,0.0,5.7997,5.8364,5.9171,5.9979,6.0639,6.1153,6.2254,6.2805,6.2805,6.2805,6.2805,6.2805,6.2805,6.2805,6.2805,6.2755,6.2705,6.2705,6.2449,6.1676,6.0676,6.0219,5.9314,0.0,0.0,0.0,0.0,0.0,0.0,0.0,0.0,6.2144,6.2381,6.2381,6.2381,6.2381,6.2381,6.2381,6.2381,6.2381,6.2381,6.2381,6.2381,6.2381,0.0,0.0,6.2381,6.2381,6.2381,6.2381,0.0,0.0,0.0,6.2381,6.2381,6.2381,6.2381,6.2381,6.2381,6.2381,6.2381,6.2381,6.2584,6.3057,6.3091,6.3396,6.414,6.4174,6.4309,6.458,6.4343,6.3971,6.3531,6.3631,6.3563,6.3083,6.3861,6.4183,6.4183,6.4941,6.5468,6.5851,6.6772,6.7266,6.7414,6.7633,6.7687,6.7687,6.7687,6.7687,6.7687,6.7687,6.7687,6.7687,6.7687,6.7687,6.7741,0.0,0.0,0.0,0.0,0.0,0.0,0.0,0.0,0.0,0.0,0.0,0.0,0.0,0.0,0.0,0.0,0.0,0.0,5.7997,5.8253,5.8731,5.9538,6.0346,6.1153,6.1961,6.2511,6.2805,6.2805,6.2805,6.2805,6.2805,6.2805,6.2805,6.2805,6.2805,6.2805,6.2755,6.25,6.1787,6.07,6.0219,5.9314,0.0,0.0,0.0,0.0,0.0,0.0,0.0,0.0,6.2381,6.2381,6.2381,6.2381,6.2381,6.2381,6.2381,6.2381,6.2381,6.2381,6.2381,6.2381,6.2381,0.0,6.2381,6.2381,6.2381,6.2381,6.2381,6.2381,6.2381,0.0,0.0,0.0,6.2381,6.2381,6.2381,6.2381,6.2381,6.2381,6.2618,6.3001,6.3825,6.386,6.422,6.5255,6.5323,6.5425,6.5663,6.5665,6.5446,6.4932,6.4951,6.4728,6.4208,6.4428,6.4738,6.4941,6.5468,6.5788,6.5914,6.6831,6.7322,6.7506,6.7633,6.7687,6.7687,6.7687,6.7687,6.7687,6.7687,6.7687,6.7687,6.7687,6.7741,6.7794,0.0,0.0,0.0,0.0,0.0,0.0,0.0,0.0,5.7997,5.7997,5.7997,0.0,0.0,0.0,0.0,0.0,0.0,0.0,5.7997,5.8767,5.9575,6.0382,6.1153,6.1998,6.2805,6.2805,6.2805,6.2805,6.2805,6.2805,6.2805,6.2805,6.2805,6.2805,6.2805,6.2805,6.2755,6.25,6.2095,6.1492,6.0468,5.9644,5.908,0.0,0.0,0.0,0.0,0.0,0.0,0.0,6.2381,6.2381,6.2381,6.2381,6.2381,6.2381,6.2381,6.2381,6.2381,6.2381,6.2381,6.2381,6.2381,0.0,6.2381,6.2381,6.2381,6.2381,6.2381,6.2381,6.2381,0.0,0.0,6.2381,6.2381,6.2381,6.2381,6.2381,6.2381,6.2381,6.3057,6.3859,6.4634,6.4664,6.5289,6.6842,6.6954,6.7221,6.798,6.802,6.8149,6.8114,6.6637,6.5829,6.5829,6.4987,6.5008,6.5725,6.5851,6.5914,6.5914,6.6831,6.7322,6.747,6.7633,6.7687,6.7687,6.7687,6.7687,6.7687,6.7687,6.7687,6.7687,6.7687,6.7794,6.7952,0.0,0.0,0.0,0.0,0.0,0.0,0.0,0.0,5.7997,5.7997,5.7997,0.0,0.0,0.0,0.0,0.0,0.0,0.0,5.8804,5.9098,5.9832,6.119,6.1484,6.1998,6.2805,6.2805,6.2805,6.2805,6.2805,6.2805,6.2805,6.2805,6.2805,6.2805,6.2805,6.2805,6.2805,6.2603,6.2166,6.1584,6.164,6.0995,5.9978,0.0,0.0,0.0,0.0,0.0,0.0,0.0,0.0,0.0,6.2381,6.2381,6.2381,6.2381,6.2381,6.2381,6.2381,6.2381,6.2381,6.2381,6.2381,0.0,0.0,6.2381,0.0,0.0,6.2381,6.2537,6.3083,0.0,0.0,0.0,0.0,6.397,6.397,6.397,6.4178,6.4734,6.4978,6.5607,6.698,6.7074,6.7452,6.8409,6.8553,6.8658,6.8793,6.8881,6.8603,6.8149,6.7585,6.7078,6.6612,6.6406,6.6416,6.6595,6.6772,6.6794,6.6831,6.721,6.747,6.7633,6.7687,6.7687,6.7687,6.7687,6.7687,6.7687,6.7687,6.7687,6.7687,6.7794,6.7899,6.7952,0.0,0.0,0.0,0.0,0.0,0.0,0.0,0.0,5.7997,5.7997,5.7997,5.7997,0.0,0.0,0.0,0.0,0.0,0.0,0.0,5.9795,6.0603,6.1557,6.1924,6.2291,6.2805,6.2805,6.2805,6.2805,6.2805,6.2805,6.2805,6.2805,6.2805,6.2805,6.2805,6.2805,6.2842,6.2984,6.2887,6.2604,6.251,6.1997,6.1285,0.0,0.0,0.0,0.0,0.0,0.0,0.0,0.0,0.0,6.2381,6.2381,6.2381,6.2381,6.2381,6.2381,6.2381,6.2381,6.2381,6.2381,6.2381,6.2381,6.2381,0.0,0.0,0.0,6.2381,6.2615,6.3383,6.3531,0.0,6.4463,6.4601,6.4601,6.4601,6.4882,6.5233,6.5724,6.6356,6.7165,6.8469,6.8539,6.8819,6.96,6.9707,6.9707,6.9707,6.999,6.9916,6.9453,6.8887,6.8355,6.7887,6.7352,6.7097,6.7097,6.721,6.7322,6.7322,6.7414,6.7579,6.7687,6.7687,6.7687,6.7687,6.7687,6.7687,6.7687,6.7741,6.7794,6.7794,6.7952,6.8004,6.8107,0.0,0.0,5.7997,5.7997,0.0,0.0,0.0,0.0,5.7997,5.7997,5.7997,5.7997,0.0,0.0,0.0,0.0,0.0,0.0,0.0,6.0786,6.163,6.1704,6.2401,6.2805,6.2805,6.2805,6.2805,6.2805,6.2805,6.2805,6.2805,6.2805,6.2805,6.2805,6.2805,6.2842,6.2989,6.357,6.3987,6.4134,6.3117,6.284,6.2811,6.1895,0.0,0.0,0.0,0.0,0.0,0.0,0.0,0.0,6.2381,6.2381,6.2381,6.2381,6.2381,6.2381,6.2381,6.2381,6.2381,6.2381,6.2381,6.2381,6.2459,6.2537,6.2459,6.2381,0.0,6.2736,6.3422,6.3643,6.3933,6.4669,6.4806,6.4841,6.4911,6.551,6.6038,6.6179,6.7482,6.8576,6.9404,6.9459,6.9707,7.044,7.0507,7.0507,7.0507,7.1139,7.1494,7.1494,7.0229,6.949,6.9418,6.8028,6.7283,6.721,6.7414,6.7561,6.7561,6.7561,6.7579,6.7687,6.7687,6.7687,6.7687,6.7687,6.7687,6.7741,6.7847,6.7899,6.7952,6.807,6.8208,6.8309,0.0,0.0,5.7997,5.7997,0.0,0.0,0.0,0.0,0.0,5.7997,0.0,0.0,0.0,0.0,0.0,0.0,0.0,0.0,0.0,6.141,6.1887,6.2511,6.2732,6.2805,6.2805,6.2805,6.2805,6.2805,6.2805,6.2805,6.2805,6.2805,6.2805,6.2805,6.2805,6.3172,6.3833,6.3929,6.4406,6.4977,6.4541,6.4434,6.4506,6.3625,6.3328,0.0,0.0,0.0,0.0,0.0,0.0,0.0,6.2381,6.2381,6.2381,6.2381,6.2381,6.2381,6.2381,6.2381,6.2381,6.2381,6.2381,6.2537,6.3158,6.3233,6.3083,6.2537,6.2889,6.3496,6.4253,6.4873,6.5468,6.6172,6.633,6.6546,6.7158,6.741,6.7986,6.9273,6.9741,7.0174,7.0915,7.1031,7.1074,7.124,7.1304,7.1304,7.1304,7.1593,7.1656,7.1494,7.0835,7.0155,6.9418,6.8726,6.8036,6.7414,6.7579,6.7633,6.7633,6.7633,6.7687,6.7687,6.7687,6.7687,6.7687,6.7687,6.7687,6.7741,6.7847,6.7899,6.7952,6.8158,6.8259,6.8309,0.0,0.0,0.0,0.0,0.0,0.0,0.0,0.0,0.0,0.0,0.0,0.0,0.0,0.0,0.0,0.0,0.0,0.0,0.0,0.0,6.2365,6.2805,6.2805,6.2805,6.2805,6.2805,6.2805,6.2805,6.2805,6.2805,6.2805,6.2805,6.2805,6.2842,6.3246,6.3686,6.4127,6.4897,6.5485,6.5873,6.57,6.5695,6.5574,6.439,6.3935,6.3935,6.3457,0.0,0.0,0.0,0.0,0.0,0.0,0.0,6.2381,6.2381,6.2381,6.2381,6.2381,6.2659,6.3007,6.3348,6.3422,6.357,6.3898,6.4076,6.3933,6.357,6.3788,6.4253,6.5008,6.5403,6.5949,6.6668,6.7112,6.751,6.7945,6.8669,6.9466,7.0299,7.0698,7.106,7.1458,7.1494,7.1494,7.1494,7.1593,7.1593,7.1494,7.178,7.1842,7.1656,7.1198,7.0515,6.9654,6.9079,6.8385,6.7579,6.7687,6.7687,6.7687,6.7687,6.7687,6.7687,6.7687,6.7687,6.7687,6.7687,6.7741,6.7794,6.7915,6.8018,6.8107,6.8309,6.8408,6.8408,0.0,0.0,0.0,0.0,0.0,0.0,0.0,0.0,0.0,0.0,0.0,0.0,0.0,0.0,0.0,0.0,0.0,0.0,0.0,0.0,0.0,6.2805,6.2805,6.2805,6.2805,6.2805,6.2805,6.2805,6.2805,6.2805,6.2805,6.2805,6.2879,6.3062,6.3759,6.4237,6.4604,6.5925,6.6586,6.668,6.6446,6.6464,6.6464,0.0,0.0,0.0,6.397,6.3457,6.2966,6.3383,0.0,0.0,0.0,0.0,6.2813,6.2813,6.2813,6.2813,6.2813,6.3233,6.3861,6.4463,6.4601,6.4669,6.4738,6.4806,6.4806,6.4941,6.4873,6.5008,6.5597,6.5824,6.6146,6.6908,6.7583,6.8126,6.838,6.9539,7.0444,7.0553,7.1132,7.1494,7.1494,7.1494,7.1494,7.1557,7.1718,7.1718,7.1557,7.1866,7.2024,7.1842,7.1377,7.0726,6.9884,6.9247,6.8495,6.7687,6.7687,6.7687,6.7687,6.7687,6.7687,6.7687,6.7687,6.7687,6.7687,6.7741,6.7794,6.7952,6.807,6.8208,6.8309,6.8457,6.8506,6.8506,0.0,0.0,0.0,0.0,0.0,0.0,0.0,0.0,0.0,0.0,6.0162,6.0236,0.0,6.097,6.1447,6.1447,6.2181,6.2658,6.2658,0.0,0.0,6.2805,6.2805,6.2805,6.2805,6.2805,6.2805,6.2805,6.2805,6.2805,6.2805,6.2805,6.3209,6.3906,6.4053,6.4861,6.6182,6.6402,6.688,6.7486,6.6664,6.6852,0.0,0.0,0.0,0.0,0.0,0.0,6.3791,6.357,6.3457,0.0,0.0,0.0,6.4323,6.4323,6.4323,6.4323,6.4323,6.4393,6.4463,6.4601,6.4601,6.4806,6.5403,6.5533,6.576,0.0,6.5985,6.5597,6.5697,6.6233,6.6885,6.7728,6.7945,6.8488,6.9865,7.0263,7.0625,7.1277,7.1458,7.1494,7.1494,7.1494,7.1593,7.1755,7.1816,7.1842,7.1927,7.2144,7.2144,7.1988,7.1552,7.0804,6.9884,6.9247,6.8495,6.7687,6.7687,6.7687,6.7687,6.7687,6.7687,6.7687,6.7687,6.7687,6.7687,6.7847,6.7899,6.7952,6.8158,6.8259,6.8309,6.8457,6.8506,6.8506,0.0,0.0,0.0,0.0,0.0,0.0,0.0,0.0,0.0,0.0,0.0,6.108,6.108,6.1777,6.2291,6.2291,6.2622,6.2805,6.2805,6.2805,6.2805,6.2805,6.2805,6.2805,6.2805,6.2805,6.2805,6.2805,6.2805,6.2805,0.0,6.3319,6.3723,6.4127,6.4567,6.5411,6.6512,6.699,6.7357,6.7633,6.6852,6.6736,0.0,0.0,0.0,0.0,0.0,0.0,0.0,0.0,6.4183,6.4183,6.4532,0.0,0.0,0.0,6.4601,6.4738,6.5207,6.5338,6.5468,6.5976,6.6038,6.6161,6.644,6.6559,6.6595,6.6903,6.6691,6.6416,6.6294,6.6969,6.7583,6.7945,6.8742,6.9575,7.0299,7.0734,7.1132,7.1458,7.1494,7.1494,7.1494,7.1494,7.1531,7.1656,7.1842,7.1903,7.1903,7.2204,7.2321,7.2204,7.161,7.0861,6.9998,6.9247,6.8495,6.7687,6.7687,6.7687,6.7687,6.7687,6.7687,6.7687,6.7794,6.7847,6.7847,6.7952,6.8055,6.8158,6.8259,6.8358,6.8408,6.8457,6.8506,6.8506,0.0,0.0,0.0,0.0,0.0,0.0,0.0,0.0,0.0,0.0,0.0,6.1936,6.1887,0.0,0.0,0.0,6.2805,6.2805,6.2805,6.2805,6.2805,6.2805,6.2805,6.2805,6.2805,6.2805,6.2805,6.2805,6.2805,0.0,6.3135,6.3796,6.431,0.0,6.5338,6.6035,0.0,0.0,0.0,0.0,0.0,0.0,0.0,0.0,0.0,0.0,0.0,0.0,0.0,0.0,0.0,0.0,0.0,0.0,0.0,0.0,0.0,6.5273,6.5949,6.6136,6.6258,6.6983,6.7154,6.7154,6.7154,6.7154,6.7097,6.6961,6.7106,6.7193,6.7112,6.7619,6.8126,6.8561,6.9611,7.0444,7.0625,7.1132,7.1494,7.1494,7.1494,7.1494,7.1593,7.1494,7.1557,7.1682,7.1866,7.1988,7.1964,7.2321,7.2365,7.2065,7.1374,7.0624,6.9816,6.9009,6.8274,6.7687,6.7687,6.7687,6.7687,6.7687,6.7687,6.7687,6.7847,6.7952,6.7952,6.8107,6.8208,6.8309,6.8309,6.8408,6.8506,6.8506,6.8506,6.8506,0.0,0.0,0.0,0.0,0.0,0.0,0.0,0.0,0.0,0.0,0.0,6.288,6.2732,6.2768,6.2805,6.2805,6.2805,6.2805,6.2805,6.2805,6.2805,6.2805,6.2805,0.0,6.2805,6.2805,6.2805,6.2805,0.0,0.0,6.4016,6.4053,6.4897,6.6366,6.6402,6.688,6.7614,0.0,0.0,0.0,0.0,0.0,0.0,0.0,0.0,0.0,0.0,0.0,0.0,0.0,0.0,0.0,0.0,0.0,0.0,0.0,0.0,0.0,6.6727,6.6727,6.6786,6.6961,6.7019,6.7019,6.7019,6.7019,6.6961,6.6845,6.7402,6.7945,6.7945,6.7981,6.8488,7.0009,7.0335,7.0625,7.135,7.1494,7.1494,7.1494,7.1494,7.1557,7.1755,7.1593,7.1718,7.224,7.2084,7.2108,7.2438,7.2496,7.2165,7.1394,7.0587,6.9779,6.8972,6.8164,6.7724,6.7687,6.7687,6.7687,6.7687,6.7687,6.7687,6.7687,6.7847,6.7967,6.807,6.8259,6.8309,6.8309,6.8457,6.8506,6.8506,6.8506,6.8506,6.8506,0.0,0.0,0.0,0.0,0.0,0.0,0.0,0.0,0.0,0.0,0.0,0.0,0.0,6.2805,6.2805,6.2805,6.2805,6.2805,6.2805,6.2805,6.2805,6.2805,6.2805,6.2805,6.2805,6.2805,6.3062,6.3613,6.3613,6.4053,6.4897,6.5411,6.5962,6.6512,6.6512,6.6953,6.7687,6.7687,0.0,0.0,0.0,0.0,0.0,0.0,0.0,0.0,0.0,0.0,0.0,0.0,0.0,0.0,0.0,0.0,0.0,0.0,6.6786,6.6786,6.6903,6.6961,6.6961,6.7097,6.7247,6.7303,6.7303,6.7414,6.7414,6.7247,6.7789,6.8364,6.885,6.9237,6.972,7.0299,7.0806,7.1205,7.1458,7.1494,7.1494,7.1494,7.1494,7.1494,7.1593,7.1494,7.162,7.1903,7.2024,7.2108,7.2321,7.1961,7.1615,7.1321,7.0036,6.8935,6.8128,6.7834,6.7687,6.7687,6.7687,6.7687,6.7687,6.7687,6.7794,6.7952,6.8004,6.8055,6.8121,6.8358,6.8408,6.8408,6.8457,6.8506,6.8506,6.8506,6.8506,6.8506,0.0,0.0,0.0,0.0,0.0,6.3002,6.3002,6.3051,6.3051,6.3002,0.0,0.0,0.0,0.0,6.2805,6.2805,6.2805,6.2805,6.2805,6.2805,6.2952,6.3209,6.3246,6.3356,6.3649,6.3099,6.3356,6.4494,6.3943,6.4347,6.5705,6.6256,6.6623,6.688,6.688,6.7173,0.0,0.0,0.0,6.691,0.0,0.0,6.4599,0.0,0.0,0.0,0.0,0.0,0.0,0.0,0.0,0.0,0.0,0.0,0.0,0.0,0.0,0.0,6.6961,6.704,6.7097,6.7266,6.7359,6.7414,6.747,6.7524,6.7598,6.7743,6.8325,6.9012,6.9732,7.0411,7.0832,7.0832,7.1231,7.1494,7.1593,7.1557,7.1494,7.1593,7.1494,7.1557,7.1682,7.1656,7.1656,7.1842,7.2024,0.0,7.1897,7.15,7.1064,7.0513,6.9192,6.8238,6.7687,6.7687,6.7687,6.7687,6.7687,6.7687,6.7687,6.7687,6.7847,6.8055,6.807,6.8121,6.8259,6.8408,6.8506,6.8506,6.8506,6.8506,6.8506,6.8506,6.8506,6.8506,0.0,0.0,6.2805,6.2805,6.2904,6.3002,6.3002,6.3099,6.3147,6.3002,0.0,0.0,0.0,0.0,0.0,6.2879,6.2879,6.2879,6.2879,6.2879,6.3246,6.409,6.4127,6.4494,6.5301,6.3723,6.3686,6.5338,6.3723,6.4163,6.6549,6.6549,6.6953,6.7687,6.7687,6.7687,6.7687,0.0,6.7687,6.7488,0.0,6.5426,6.5779,0.0,0.0,0.0,6.2931,6.3274,0.0,0.0,0.0,0.0,0.0,0.0,0.0,0.0,0.0,0.0,0.0,0.0,0.0,6.7414,6.7359,6.7303,6.7451,6.7395,6.7502,6.8268,6.907,6.9872,7.0675,7.1357,7.1816,7.1816,7.1656,7.1593,7.1816,7.1656,7.1593,7.1816,7.1656,7.162,7.1927,7.1842,7.1842,7.1951,7.2167,7.1897,7.1092,7.1134,7.0513,6.8898,6.8091,6.7687,6.7687,6.7687,6.7687,6.7687,6.7687,6.7687,6.7687,6.7687,6.7794,6.7952,6.8018,6.8259,6.8506,6.8506,6.8506,6.8506,6.8506,6.8506,6.8506,6.8506,6.8506,6.8506,0.0,6.2805,6.2805,6.2805,6.2805,6.2855,6.2855,6.2855,6.2904,0.0,0.0,0.0,0.0,0.0,6.398,6.4567,6.4604,6.4604,6.4604,6.4604,6.4714,6.4971,6.4971,6.5081,6.5301,6.4861,6.5118,6.6182,6.5705,6.6093,6.7231,6.7303,6.7413,6.7524,6.7524,6.7579,6.7687,6.7687,0.0,0.0,6.6028,6.5267,0.0,0.0,0.0,0.0,0.0,6.2659,0.0,0.0,6.3158,6.4076,0.0,0.0,0.0,0.0,0.0,0.0,6.7097,0.0,0.0,0.0,0.0,0.0,6.8142,6.856,6.9034,6.9425,7.0004,7.0624,7.0939,7.1537,7.2024,7.2181,7.1903,7.178,7.1927,7.1842,7.1718,7.1816,7.1718,7.1718,7.162,7.1718,7.1623,0.0,7.1208,7.0997,7.0421,6.9889,6.9082,6.8054,6.7797,6.7687,6.7687,6.7687,6.7687,6.7687,6.7687,6.7687,6.7687,6.7687,6.7847,6.8055,6.807,6.8259,6.8506,6.8506,6.8506,6.8506,6.8506,6.8506,6.8506,6.8506,6.8506,6.8506,6.2805,6.2805,6.2805,6.2805,6.2805,6.2805,6.2805,6.2805,6.2805,0.0,0.0,0.0,0.0,0.0,0.0,6.5264,6.5301,6.5301,6.5301,6.5301,6.5448,6.5778,6.5815,6.5856,6.588,6.5186,6.5405,6.6573,6.588,6.619,6.747,0.0,0.0,6.7414,6.7524,6.7579,6.7633,0.0,0.0,0.0,6.5904,0.0,0.0,6.3496,6.3158,0.0,0.0,0.0,6.3199,6.2615,6.3083,0.0,0.0,0.0,0.0,0.0,0.0,0.0,0.0,0.0,0.0,0.0,0.0,0.0,6.8584,6.9091,6.9785,7.0381,7.0726,7.1165,7.1589,7.197,7.2204,7.2358,7.2144,7.2024,7.2144,7.1964,7.1903,7.2,7.1903,7.1696,7.1369,7.1429,7.1162,7.0383,7.0427,7.0271,6.9633,6.8825,6.8164,6.7687,6.7687,6.7687,6.7687,6.7687,6.7687,6.7687,6.7687,6.7687,6.7687,6.7687,6.7847,6.807,6.807,6.8259,6.8506,6.8506,6.8506,6.8506,6.8506,6.8506,6.8506,6.8506,6.8506,6.8506,0.0,6.2805,6.2805,6.2805,6.2805,6.2805,6.2805,6.2805,6.2805,0.0,0.0,0.0,0.0,0.0,0.0,0.0,6.5595,6.5595,6.5595,6.5595,6.5888,6.6586,6.6623,6.6701,6.6794,6.5379,6.5343,6.6794,6.5192,0.0,0.0,0.0,0.0,0.0,6.7488,6.7579,6.747,0.0,0.0,6.7341,6.5653,6.5332,0.0,0.0,6.3308,0.0,6.2889,6.3199,6.4183,6.2889,6.3348,0.0,0.0,0.0,0.0,0.0,6.6903,0.0,0.0,0.0,0.0,0.0,0.0,0.0,6.9045,6.9555,7.0113,7.117,7.1374,7.1594,7.2386,7.238,7.2358,7.2438,7.238,7.2358,7.2358,7.2144,7.2084,7.224,7.2071,7.1646,7.1107,7.0961,7.0558,6.9544,6.9685,6.9522,6.8788,6.8091,6.7687,6.7687,6.7687,6.7687,6.7687,6.7687,6.7687,6.7687,6.7687,6.7687,6.7687,6.7687,6.7847,6.807,6.807,6.8259,6.8506,6.8506,6.8506,6.8506,6.8506,6.8506,6.8506,6.8506,6.8506,6.8506,6.2805,6.2805,6.2805,6.2805,6.2805,6.2805,6.2805,6.2805,6.2805,6.2805,6.3429,0.0,0.0,0.0,0.0,0.0,6.721,6.721,6.721,6.721,6.7283,6.7467,6.7467,6.745,6.7488,6.7158,6.7158,6.7488,0.0,0.0,0.0,0.0,0.0,0.0,6.721,6.7266,6.721,0.0,0.0,6.6368,6.5878,0.0,6.477,6.3716,6.3083,6.2813,6.2537,6.2581,6.2813,0.0,6.3348,6.4601,0.0,0.0,0.0,0.0,0.0,0.0,0.0,0.0,0.0,0.0,0.0,0.0,7.047,7.1085,7.1646,7.2007,7.2102,7.2233,7.2459,7.2496,7.2438,7.2358,7.2416,7.2438,7.2438,7.2204,7.1988,7.2048,7.1441,7.0943,7.0738,7.0237,6.9566,6.8877,6.8385,6.8091,6.7944,6.7797,6.7687,6.7687,6.7687,6.7687,6.7687,6.7687,6.7687,6.7687,6.7687,6.7687,6.7687,6.7687,6.7847,6.807,6.807,6.8259,6.8506,6.8506,6.8506,6.8506,6.8506,6.8506,6.8506,6.8506,6.8506,6.8506,6.2805,6.2805,6.2805,6.2805,6.2805,6.2805,6.2805,6.2805,6.2989,6.3392,6.453,0.0,0.0,0.0,0.0,0.0,0.0,0.0,0.0,6.7687,6.7542,6.723,6.7174,6.6852,6.6125,6.6125,6.6283,6.6523,0.0,0.0,0.0,0.0,0.0,0.0,6.6404,6.6618,6.65,0.0,6.61,6.644,6.5171,0.0,6.4077,6.3308,6.2736,6.2381,6.2381,6.2381,6.2459,6.2813,6.3958,0.0,0.0,6.5918,6.7402,0.0,6.7579,6.7768,0.0,0.0,0.0,6.9357,0.0,0.0,0.0,7.1677,7.2204,7.238,7.238,7.238,7.2496,7.2496,7.2438,7.2358,7.205,7.1998,7.2189,7.1838,7.156,7.1641,7.0829,7.0055,6.969,6.9253,6.8726,6.8128,6.7853,6.7687,6.7687,6.7687,6.7687,6.7687,6.7687,6.7687,6.7687,6.7687,6.7687,6.7687,6.7687,6.7687,6.7687,6.7687,6.7847,6.807,6.807,6.8259,6.8506,6.8506,6.8506,6.8506,6.8506,6.8506,6.8506,6.8506,6.8506,6.8506,6.2842,6.2805,6.2805,6.2805,6.2805,6.2879,6.3025,6.3062,6.3429,6.442,0.0,0.0,0.0,0.0,0.0,0.0,0.0,0.0,0.0,0.0,6.7322,6.6946,6.6736,6.6161,6.5039,6.4838,6.4905,6.5368,6.5171,0.0,0.0,0.0,0.0,0.0,0.0,0.0,0.0,0.0,0.0,6.6319,0.0,6.3754,6.3935,6.2855,6.2459,6.2581,6.2459,6.2381,6.2571,6.3405,0.0,6.5759,6.5404,6.6653,0.0,0.0,0.0,0.0,0.0,0.0,0.0,0.0,0.0,7.1186,0.0,0.0,0.0,7.2496,7.2496,7.2496,7.2496,7.2496,7.2401,7.208,7.1699,0.0,0.0,7.1062,0.0,7.1113,7.0098,6.9201,6.8637,6.8325,6.796,6.7451,6.7579,6.7687,6.7687,6.7687,6.7687,6.7687,6.7687,6.7687,6.7687,6.7687,6.7687,6.7687,6.7687,6.7687,6.7687,6.7687,6.7847,6.807,6.807,6.8259,6.8506,6.8506,6.8506,6.8506,6.8506,6.8506,6.8506,6.8506,6.8506,6.8506,6.2952,6.2805,6.2805,6.2805,6.2805,6.3062,6.3833,6.3943,6.4494,0.0,0.0,0.0,0.0,0.0,0.0,0.0,0.0,0.0,6.6736,0.0,0.0,6.7542,6.7004,6.6618,6.6464,6.5653,6.5267,6.5332,6.453,6.4566,6.5237,0.0,0.0,0.0,6.5752,0.0,0.0,0.0,6.4806,0.0,6.3861,6.4323,0.0,6.3199,6.2813,6.3308,6.2581,6.2381,6.2639,0.0,6.512,6.6004,0.0,6.8327,0.0,0.0,0.0,0.0,0.0,0.0,0.0,0.0,7.1134,0.0,0.0,0.0,7.2496,7.2496,0.0,0.0,0.0,0.0,0.0,0.0,0.0,0.0,6.9914,6.9659,6.9841,7.0568,6.9413,6.8466,6.8277,6.77,6.7283,6.721,6.7414,6.7579,6.7687,6.7687,6.7687,6.7687,6.7687,6.7687,6.7687,6.7687,6.7687,6.7687,6.7687,6.7687,6.7687,6.7687,6.7847,6.807,6.807,6.8259,6.8506,6.8506,6.8506,6.8506,6.8506,6.8506,6.8506,6.8506,6.8506,6.8506,6.3062,6.2805,6.2705,6.236,6.3006,6.3548,6.3527,6.4616,6.5742,0.0,0.0,0.0,0.0,0.0,0.0,0.0,0.0,6.6344,0.0,0.0,0.0,0.0,6.5815,0.0,6.4738,6.4463,6.4393,6.4601,6.4323,6.4601,6.5273,0.0,0.0,0.0,6.4702,0.0,6.5074,0.0,6.4873,0.0,0.0,0.0,0.0,6.3199,6.2615,6.2881,6.3046,6.3057,6.3238,0.0,6.5792,0.0,0.0,0.0,0.0,0.0,0.0,0.0,0.0,0.0,0.0,0.0,0.0,0.0,0.0,0.0,7.2496,0.0,0.0,0.0,0.0,0.0,0.0,0.0,7.077,0.0,0.0,0.0,6.8408,6.9209,0.0,0.0,6.7411,6.7201,6.7097,6.721,6.7414,6.7524,6.7687,6.7687,6.7687,6.7687,6.7687,6.7687,6.7687,6.7687,6.7488,6.7117,6.7117,6.7117,6.7117,6.7117,6.7451,6.8004,6.8107,6.8208,6.8408,6.8457,6.8506,6.8506,6.8506,6.8506,6.8506,6.8506,6.8506,6.8506,6.3796,0.0,6.3069,6.2604,6.3276,6.3857,6.3727,6.5332,0.0,0.0,0.0,0.0,6.7687,6.7341,0.0,0.0,0.0,6.5914,0.0,0.0,6.5397,0.0,0.0,0.0,0.0,0.0,6.3673,6.3858,6.4074,6.4393,6.4806,6.4738,0.0,0.0,0.0,6.4041,6.4323,0.0,6.4806,6.5074,6.4532,6.4603,6.4986,6.3508,6.2921,6.2787,6.3531,6.3802,6.3937,6.4856,6.6351,0.0,6.6884,0.0,0.0,0.0,0.0,0.0,7.1223,0.0,0.0,0.0,0.0,0.0,0.0,0.0,0.0,0.0,0.0,0.0,0.0,0.0,0.0,0.0,0.0,6.9295,0.0,6.7869,0.0,0.0,0.0,0.0,0.0,6.6903,6.7019,6.721,6.7359,6.7524,6.7687,6.7687,6.7687,6.7687,6.7687,6.7687,6.7687,6.7687,6.7378,6.6677,6.6677,6.6618,6.6404,6.6404,6.6852,6.7614,6.7773,6.8018,6.8309,6.8457,6.8506,6.8506,6.8506,6.8506,6.8506,6.8506,6.8506,6.8506,6.5375,6.464,0.0,0.0,6.3621,6.3728,6.5113,0.0,0.0,0.0,0.0,0.0,0.0,0.0,0.0,0.0,0.0,6.3967,6.4601,0.0,6.4838,0.0,0.0,6.4532,0.0,0.0,0.0,6.3302,6.3302,6.3377,6.3377,6.4004,6.3861,0.0,6.4288,6.4288,6.357,6.4323,6.4183,6.357,6.3496,6.3528,6.3623,0.0,6.4102,6.3565,6.4309,0.0,0.0,6.6289,6.6842,0.0,0.0,0.0,0.0,0.0,0.0,0.0,0.0,0.0,0.0,7.2024,0.0,0.0,0.0,0.0,7.2358,0.0,0.0,0.0,0.0,0.0,0.0,0.0,0.0,0.0,0.0,0.0,0.0,0.0,0.0,0.0,0.0,6.6786,6.6903,0.0,6.721,6.7322,6.7687,6.7687,6.7687,6.7687,6.7687,6.7687,6.7687,6.7687,6.7378,6.6677,6.6677,6.6344,6.5653,6.5653,6.6125,6.6931,6.7101,6.7577,6.8309,6.8457,6.8506,6.8506,6.8506,6.8506,6.8506,6.8506,6.8506,6.8506,6.5586,0.0,0.0,0.0,0.0,0.0,0.0,6.6223,0.0,0.0,0.0,0.0,0.0,0.0,6.5397,0.0,0.0,6.4288,6.4393,6.4076,0.0,0.0,0.0,6.3604,0.0,0.0,0.0,0.0,0.0,6.3417,6.3933,6.3457,6.3643,6.4393,0.0,6.3348,0.0,0.0,0.0,0.0,0.0,6.4205,6.4241,0.0,0.0,6.4343,6.5053,6.5324,0.0,6.6466,6.7193,6.7591,6.7628,6.837,6.9126,6.8524,6.8828,0.0,0.0,0.0,6.9165,7.0806,0.0,0.0,0.0,0.0,0.0,0.0,0.0,0.0,0.0,0.0,0.0,0.0,0.0,0.0,0.0,0.0,0.0,0.0,0.0,0.0,0.0,0.0,0.0,0.0,6.7322,0.0,6.7687,6.7687,6.7687,6.7687,6.7687,6.7687,6.7687,6.723,6.6677,6.594,6.5497,6.5171,6.4905,6.4905,6.5368,6.6125,6.678,6.7268,6.7577,6.8222,6.8506,6.8506,6.8506,6.8506,6.8506,6.8506,6.8506,6.8506,6.559,6.5039,0.0,0.0,0.0,0.0,0.0,0.0,0.0,0.0,6.6002,0.0,6.5653,0.0,6.5105,0.0,6.4358,6.4076,6.3933,6.3639,0.0,6.3535,6.3343,0.0,0.0,0.0,0.0,0.0,0.0,6.3268,6.3861,6.3042,6.3233,6.4183,0.0,6.2889,6.3117,6.3658,6.3761,0.0,0.0,6.4994,0.0,0.0,6.5222,6.5087,0.0,6.6102,6.617,6.6643,6.7112,6.7488,6.6946,6.7488,6.8215,6.7731,6.7935,6.8447,6.8676,6.86,0.0,6.9849,6.9954,0.0,7.1521,0.0,0.0,0.0,0.0,0.0,0.0,0.0,0.0,0.0,0.0,0.0,0.0,6.6786,0.0,0.0,0.0,0.0,0.0,0.0,0.0,0.0,0.0,0.0,0.0,6.7687,6.7687,6.7687,6.7687,6.7687,6.7687,6.7061,6.6344,6.559,6.4905,6.4463,6.4218,6.4218,6.4601,6.5303,6.6211,6.6801,6.7213,6.8033,6.8457,6.8506,6.8506,6.8506,6.8506,6.8506,6.8506,6.8506,6.5462,6.4972,0.0,0.0,6.4039,0.0,0.0,0.0,6.4838,0.0,6.5526,6.5526,6.5462,6.4905,6.4532,6.4532,6.375,0.0,6.3227,6.3076,0.0,0.0,6.2847,6.2923,6.2727,0.0,0.0,0.0,0.0,0.0,6.3,6.277,6.2727,6.2693,6.3302,0.0,6.2561,6.4016,6.4205,6.3734,6.5121,6.5696,6.5831,6.6542,6.6373,6.5831,6.6542,6.6812,6.6812,6.6812,6.6812,6.6812,6.6812,6.6812,6.6812,6.6812,6.6812,6.698,6.7696,6.8524,6.9091,6.9276,0.0,0.0,0.0,0.0,7.0872,0.0,0.0,0.0,0.0,0.0,0.0,0.0,0.0,0.0,0.0,0.0,0.0,0.0,0.0,0.0,0.0,0.0,0.0,0.0,0.0,0.0,0.0,6.7633,6.7687,6.7687,6.7687,6.7687,6.7633,6.7004,6.6283,6.5526,6.4838,6.4218,6.36,6.36,6.3967,6.4601,6.5361,6.6235,6.712,6.793,6.8358,6.8506,6.8506,6.8506,6.8506,6.8506,6.8506,6.8506,6.4076,6.3967,6.3858,0.0,6.3712,6.3673,0.0,0.0,0.0,0.0,6.4532,6.4669,6.4147,6.3967,6.3785,6.3639,6.3452,0.0,0.0,0.0,0.0,6.2459,6.2693,6.2693,6.2459,6.2537,0.0,6.2537,0.0,0.0,6.277,6.2537,6.2537,6.2727,6.3271,6.3351,6.326,6.4211,6.4776,6.5155,6.5527,6.6034,6.6542,0.0,6.6677,6.6542,6.6745,6.6812,6.6812,6.6812,6.6812,6.6812,6.6812,6.6812,6.6812,6.6812,6.6812,6.6812,6.7029,6.7277,6.7569,6.8215,6.8524,6.8828,0.0,0.0,0.0,0.0,0.0,0.0,0.0,0.0,0.0,0.0,0.0,0.0,0.0,0.0,0.0,6.6786,0.0,0.0,0.0,0.0,0.0,0.0,0.0,0.0,6.7633,0.0,6.7579,6.7687,6.7687,6.7433,6.6946,6.6247,6.5561,6.4838,6.4147,6.3785,6.36,6.36,6.3712,6.3895,6.4702,6.5518,6.6319,6.7195,6.7893,6.8506,6.8506,6.8506,6.8506,6.8506,6.8506,6.8506,6.36,6.36,0.0,6.36,0.0,0.0,6.36,0.0,0.0,6.3673,6.3895,0.0,6.3673,6.3526,6.3452,6.3302,6.3152,0.0,0.0,0.0,0.0,6.2381,6.2459,6.2537,6.2381,6.2381,0.0,6.2888,0.0,0.0,6.3521,6.3441,6.3441,6.3521,6.3882,6.4005,6.4038,6.4783,6.5493,6.617,6.617,6.644,0.0,6.6812,6.6812,6.6812,6.6812,6.6812,6.6812,6.6812,6.6812,6.6812,6.6812,6.6812,6.6812,6.6812,6.6812,6.6812,6.6812,6.7029,6.7325,6.7407,6.7731,6.8172,6.8642,6.9165,6.9566,0.0,0.0,0.0,0.0,0.0,0.0,0.0,0.0,0.0,0.0,0.0,0.0,0.0,6.6786,0.0,0.0,0.0,0.0,0.0,0.0,0.0,0.0,0.0,6.7061,6.7266,6.6816,6.6523,6.6222,6.5433,6.4905,6.4601,6.3895,6.36,6.36,6.36,6.36,6.3673,6.4393,6.5232,6.6042,6.6915,6.7736,6.8506,6.8506,6.8506,6.8506,6.8506,6.8506,6.8506,6.36,0.0,0.0,0.0,0.0,0.0,0.0,6.36,0.0,6.36,0.0,6.36,6.36,6.348,6.3439,6.3364,0.0,6.2999,6.2921,6.2764,6.2685,6.2685,6.2685,6.2685,6.2685,6.2685,0.0,0.0,0.0,0.0,6.4613,6.4613,6.4613,6.4613,6.4715,6.4783,6.4918,6.5561,6.6203,6.6812,6.6812,6.6812,6.6812,6.6812,6.6812,6.6812,6.6812,6.6812,6.6812,6.6812,6.6812,6.6812,6.6812,6.6812,6.6812,6.6812,6.6812,6.6812,6.6812,6.736,6.765,6.6946,6.736,6.7856,6.7856,6.7935,6.8162,6.8926,6.852,6.8034,0.0,0.0,0.0,0.0,0.0,0.0,0.0,0.0,0.0,0.0,0.0,0.0,0.0,0.0,0.0,0.0,0.0,0.0,0.0,0.0,6.6464,6.6677,6.5815,6.5397,6.5462,6.4702,6.4393,6.4463,6.393,6.36,6.36,6.36,6.36,6.3673,6.4218,6.507,6.6078,6.6685,6.754,6.8506,6.8506,6.8506,6.8506,6.8506,6.8506,6.8506,0.0,0.0,0.0,0.0,0.0,6.36,6.36,6.36,6.36,6.36,6.36,6.3526,6.3377,6.3851,6.4076,6.3767,6.4234,0.0,0.0,0.0,0.0,6.4208,6.4208,6.4208,6.4208,6.4208,6.4275,0.0,0.0,0.0,0.0,6.4613,6.4613,6.4613,6.5222,6.5831,6.644,6.6576,0.0,6.6812,6.6812,6.6812,6.6812,6.6812,6.6812,6.6812,6.6812,6.6812,6.6812,6.6812,6.6812,6.6812,6.6812,6.6812,6.6812,6.6812,6.6812,6.6812,6.6812,6.6896,6.698,6.6812,6.6896,6.7029,6.7029,6.7488,6.8007,6.8217,6.8077,6.8034,6.8005,0.0,0.0,0.0,0.0,0.0,0.0,0.0,0.0,0.0,0.0,6.6786,0.0,0.0,0.0,0.0,0.0,0.0,0.0,0.0,6.638,0.0,6.594,6.5267,0.0,0.0,6.4288,6.3785,6.3673,6.36,6.36,6.36,6.36,6.36,6.3712,6.4634,6.5981,6.6139,6.714,6.8506,6.8506,6.8506,6.8506,6.8506,6.8506,6.8506,0.0,0.0,0.0,0.0,0.0,0.0,0.0,6.4152,0.0,6.3634,6.391,6.4077,6.3886,6.4461,6.4674,6.4359,6.4619,6.4661,6.4613,6.4613,6.4613,6.4613,6.4613,0.0,6.4613,6.4613,6.4783,6.5155,0.0,0.0,0.0,0.0,0.0,6.5764,6.6102,6.6474,6.6812,0.0,0.0,6.6812,6.6812,6.6812,6.6812,6.6812,6.6812,6.6812,6.6812,6.6812,6.6812,6.6812,6.6812,6.6812,6.6812,6.6812,6.6812,6.6812,6.6812,6.6812,6.6812,6.6812,6.6812,6.6812,6.6812,6.6812,6.6812,6.7112,6.7227,6.6879,6.7092,6.7394,6.7403,6.7076,0.0,0.0,0.0,0.0,0.0,0.0,0.0,0.0,0.0,0.0,0.0,0.0,0.0,0.0,0.0,6.6961,6.7322,0.0,6.5661,0.0,0.0,0.0,6.3967,0.0,6.3823,6.36,6.36,6.36,6.36,6.36,6.36,6.36,6.36,6.4497,6.6078,6.6935,6.7752,6.8506,6.8506,6.8506,6.8506,6.8506,6.8506,6.8506,0.0,6.36,0.0,0.0,6.3841,0.0,6.4841,6.4945,6.4663,6.4152,6.449,6.4793,6.4564,6.5016,6.5301,6.506,6.5067,6.5087,6.5087,6.5087,6.5087,6.5087,6.5087,6.5087,6.5087,6.5087,6.5358,0.0,0.0,0.0,0.0,0.0,0.0,0.0,0.0,0.0,0.0,0.0,6.6812,6.6812,6.6812,6.6812,6.6812,6.6812,6.6812,6.6812,6.6812,6.6812,6.6812,6.6812,6.6812,6.6812,6.6812,6.6812,6.6812,6.6812,6.6812,6.6812,6.6812,6.6812,6.6812,6.6812,6.6812,6.6812,6.6812,6.6812,6.6622,6.5817,6.6206,6.6524,6.6325,6.6608,0.0,0.0,0.0,0.0,0.0,0.0,0.0,0.0,0.0,0.0,6.6391,0.0,0.0,0.0,0.0,6.6845,6.6946,6.5661,6.4873,0.0,0.0,6.3152,6.3302,0.0,6.3452,6.36,6.36,6.36,6.36,6.36,6.36,6.36,6.36,6.4497,6.6103,6.7804,6.8506,6.8506,6.8506,6.8506,6.8506,6.8506,6.8506,6.8506,0.0,0.0,0.0,0.0,0.0,0.0,6.5669,6.5585,6.5474,6.5669,6.5551,6.5353,6.5118,6.5642,6.5841,6.5677,6.6203,6.6609,6.6609,6.6609,6.6609,6.6609,6.6609,6.6609,6.6609,6.6609,6.6643,0.0,0.0,0.0,0.0,0.0,0.0,0.0,0.0,0.0,0.0,6.6812,6.6812,6.6812,6.6812,6.6812,6.6812,6.6812,6.6812,6.6812,6.6812,6.6812,6.6812,6.6812,6.6812,6.6812,6.6812,6.6812,6.6812,6.6812,6.6812,6.6812,6.6812,6.6812,6.6812,6.6812,6.6812,6.6812,6.6812,6.6812,6.6622,6.5817,6.5759,6.5581,6.4908,6.5922,6.6608,0.0,0.0,0.0,0.0,0.0,0.0,0.0,0.0,0.0,0.0,6.6048,0.0,0.0,6.6512,6.6572,6.6064,6.5338,6.4669,6.4148,6.3531,6.3302,6.3302,6.3452,6.36,6.36,6.36,6.36,6.36,6.36,6.36,6.36,6.36,6.4497,6.6103,6.7804,6.8506,6.8506,6.8506,6.8506,6.8506,6.8506,6.8506,6.8506,0.0,0.0,0.0,0.0,0.0,0.0,0.0,6.6141,6.62,6.6759,6.6337,6.587,6.5744,6.6262,6.6622,6.6373,6.6643,6.6812,6.6812,6.6812,6.6812,6.6812,6.6812,6.6812,6.6812,6.6812,6.6812,0.0,0.0,0.0,0.0,0.0,0.0,0.0,0.0,6.6812,6.6812,6.6812,6.6812,6.6812,6.6812,6.6812,6.6812,6.6812,6.6812,6.6812,6.6812,6.6812,6.6812,6.6812,6.6812,6.6812,6.6812,6.6812,6.6812,6.6812,6.6812,6.6812,6.6812,6.6812,6.6812,6.6812,6.6812,6.6812,6.6812,6.6474,6.5914,6.5153,6.5013,6.5074,6.5207,6.611,6.6727,0.0,0.0,0.0,0.0,0.0,0.0,0.0,0.0,0.0,0.0,0.0,0.0,0.0,0.0,6.6727,6.6595,6.5403,6.4601,6.4358,0.0,6.3,6.3152,6.3302,6.3452,6.36,6.36,6.36,6.36,6.36,6.36,6.3639,6.4599,6.539,6.6103,6.7804,6.8506,6.8506,6.8506,6.8506,6.8506,6.8506,6.8506,6.8506,6.5876,0.0,6.5945,0.0,6.5955,6.6117,6.6827,6.669,6.6779,6.736,6.6834,6.6412,6.6364,6.6758,6.7014,6.6812,6.6812,6.6812,6.6812,6.6812,6.6812,6.6812,6.6812,0.0,6.6812,6.6812,6.6812,6.6812,6.6812,0.0,0.0,0.0,0.0,0.0,6.6812,6.6812,6.6812,6.6812,6.6812,6.6812,6.6812,6.6812,6.6812,6.6812,6.6812,6.6812,6.6812,6.6812,6.6812,6.6812,6.6812,6.6812,6.6812,6.6812,6.6812,6.6812,6.6812,6.6812,6.6812,6.6812,6.6812,6.6812,6.6812,6.6812,6.6812,6.6237,6.5425,6.4478,6.4243,6.4393,6.4634,6.5504,6.6172,6.6172,0.0,0.0,0.0,0.0,0.0,0.0,6.6233,6.576,6.5141,6.5468,0.0,0.0,0.0,0.0,0.0,0.0,0.0,0.0,0.0,0.0,6.2923,6.3152,6.3377,6.3526,6.36,6.36,6.36,6.36,6.36,6.3639,6.5101,6.5832,6.6139,6.7594,6.8358,6.8506,6.8506,6.8506,6.8506,6.8506,6.8506,6.8506,6.5876,6.5876,6.6041,6.6642,6.6666,6.6862,6.7454,6.7346,6.718,6.718,6.698,6.6896,6.718,6.698,6.6812,6.6812,6.6812,6.6812,6.6812,6.6812,6.6812,0.0,0.0,6.6812,6.6812,6.6812,6.6812,6.6812,0.0,0.0,6.5696,0.0,6.6102,6.6812,6.6812,6.6812,6.6812,6.6812,6.6812,6.6812,6.6812,6.6812,6.6812,6.6812,6.6812,6.6812,6.6812,6.6812,6.6812,6.6812,6.6812,6.6812,6.6812,6.6812,6.6812,6.6812,6.6812,6.6812,6.6812,6.6812,6.6812,6.6812,6.6812,6.6812,6.6812,6.6237,6.5256,6.3835,6.3478,6.3308,6.2615,6.3643,6.4601,6.4601,0.0,0.0,0.0,0.0,0.0,0.0,6.6391,6.5922,6.3716,6.4873,0.0,0.0,0.0,0.0,0.0,0.0,0.0,6.2459,6.2615,0.0,6.2693,6.3076,6.3302,6.3302,6.3526,6.36,6.36,6.36,6.36,6.3673,6.4669,6.5462,6.6042,6.7176,6.793,6.8506,6.8506,6.8506,6.8506,6.8506,6.8506,6.8506,6.7237,6.7158,6.7261,6.7261,6.7134,6.7073,6.7229,6.7097,6.693,6.693,6.6812,6.6812,6.6896,6.6812,6.6812,0.0,6.6812,6.6812,0.0,6.6812,6.6812,6.6812,6.6812,6.6812,6.6812,6.6812,6.6812,6.6812,0.0,0.0,0.0,6.644,6.6576,6.6812,6.6812,6.6812,6.6812,6.6812,6.6812,6.6812,6.6812,6.6812,6.6812,6.6812,6.6812,6.6812,6.6812,6.6812,6.6812,6.6812,6.6812,6.6812,6.6812,6.6812,6.6812,6.6812,6.6812,6.6812,6.6812,6.6812,6.6812,6.6812,6.6812,6.6812,6.6812,6.5831,6.4512,6.3057,6.3102,6.3457,6.3158,6.3898,6.4738,6.5273,6.5338,0.0,0.0,0.0,0.0,0.0,6.4738,6.4253,6.357,6.3933,0.0,0.0,0.0,0.0,0.0,0.0,0.0,0.0,6.2736,0.0,6.2923,6.3,6.3227,6.3526,6.36,6.36,6.36,6.36,6.36,6.3673,6.4669,6.5462,6.6042,6.712,6.793,6.8506,6.8506,6.8506,6.8506,6.8506,6.8506,6.8506,6.7879,6.7799,6.7719,6.7428,6.7263,6.718,6.7097,6.6896,6.6812,6.6812,6.6812,6.6812,6.6812,6.6812,0.0,6.6812,6.6812,6.6812,6.6812,6.6812,6.6812,6.6812,6.6812,6.6812,6.6812,6.6812,0.0,6.6812,6.6812,6.6812,6.6812,6.6812,6.6812,6.6812,6.6812,6.6812,6.6812,6.6812,6.6812,6.6812,6.6812,6.6812,6.6812,6.6812,6.6812,6.6812,6.6812,6.6812,6.6812,6.6812,6.6812,6.6812,6.6812,6.6812,6.6812,6.6812,6.6812,6.6812,6.6812,6.6812,6.6812,6.6812,6.6812,6.6677,6.6102,6.5256,6.4174,6.2685,6.2736,6.3083,6.3083,6.3422,6.4041,6.4738,6.4669,6.4634,6.5207,0.0,0.0,0.0,0.0,0.0,0.0,6.3531,6.3383,0.0,0.0,0.0,0.0,0.0,0.0,6.3083,6.2659,6.2537,6.2847,6.3,6.3152,6.3526,6.36,6.36,6.36,6.36,6.36,6.3673,6.4428,6.5202,6.6042,6.6895,6.7736,6.8506,6.8506,6.8506,6.8506,6.8506,6.8506,6.8506,6.7799,6.7799,6.7638,0.0,6.718,0.0,6.6812,6.6812,6.6812,6.6812,6.6812,6.6812,6.6812,6.6812,6.6812,6.6812,0.0,0.0,0.0,6.6812,6.6812,6.6812,6.6812,6.6812,6.6812,6.6812,6.6812,6.6812,6.6812,6.6812,6.6812,6.6812,6.6812,6.6812,6.6812,6.6812,6.6812,6.6812,6.6812,6.6812,6.6812,6.6812,6.6812,6.6812,6.6812,6.6812,6.6812,6.6812,6.6812,6.6812,6.6812,6.6812,6.6812,6.6812,6.6812,6.6812,6.6812,6.6812,6.6812,6.6812,6.6812,6.6812,6.6779,6.6373,6.4918,6.4546,6.4106,6.2685,6.2381,6.2381,6.2381,6.2381,6.2659,6.3383,6.2966,6.2931,6.4323,0.0,0.0,0.0,0.0,0.0,0.0,6.3457,6.3158,0.0,0.0,0.0,0.0,0.0,6.2381,6.2381,6.2381,6.2459,6.2693,6.2923,6.3076,6.3302,6.3526,6.36,6.36,6.36,6.36,6.36,6.4037,6.4941,6.6042,6.6451,6.7378,6.8506,6.8506,6.8506,6.8506,6.8506,6.8506,6.8506,0.0,0.0,6.7263,6.6896,6.6896,6.6896,6.6812,6.6812,6.6812,6.6812,6.6812,6.6812,6.6812,6.6812,6.6812,6.6812,6.6812,6.6812,6.6812,6.6812,6.6812,6.6812,6.6812,6.6812,6.6812,6.6812,6.6812,6.6812,6.6812,6.6812,6.6812,6.6812,6.6812,6.6812,6.6812,6.6812,6.6812,6.6812,6.6812,6.6812,6.6812,6.6812,6.6812,6.6812,6.6812,6.6812,6.6812,6.6812,6.6812,6.6812,6.6812,6.6812,6.6812,6.6812,6.6812,6.6812,6.6812,6.6812,6.6812,6.6812,6.6812,6.6812,6.6373,6.573,6.4816,6.4174,6.3497,6.2584,6.2381,6.2381,6.2381,6.2381,6.2659,6.3383,6.3383,6.3383,6.3716,6.357,0.0,0.0,6.2931,6.2889,6.2659,6.2659,6.2615,0.0,0.0,0.0,6.2381,6.2381,6.2381,6.2381,6.2381,6.2537,6.2923,6.3,6.3152,6.3526,6.36,6.36,6.36,6.36,6.36,6.3673,6.4393,6.5237,6.6078,6.6837,6.772,6.8506,6.8506,6.8506,6.8506,6.8506,6.8506,6.8506,6.7557,6.7346,6.7097,6.6812,6.6812,6.6812,6.6812,6.6812,6.6812,6.6812,6.6812,6.6812,6.6812,6.6812,6.6812,6.6812,6.6812,6.6812,6.6812,6.6812,6.6812,6.6812,6.6812,6.6812,6.6812,6.6812,6.6812,6.6812,6.6812,6.6812,6.6812,6.6812,6.6812,6.6812,6.6812,6.6812,6.6812,6.6812,6.6812,6.6812,6.6812,6.6812,6.6812,6.6812,6.6812,6.6812,6.6812,6.6812,6.6812,6.6812,6.6812,6.6812,6.6812,6.6812,6.6812,6.6812,6.6812,6.6812,6.6812,6.6812,6.6812,6.6812,6.6237,6.5493,6.4783,6.4038,6.3294,6.255,6.2381,6.2381,6.2381,6.2381,6.2537,6.2966,6.3042,6.3042,6.3042,6.3042,0.0,6.2459,6.2381,6.2381,6.2381,6.2381,6.2381,6.2381,6.2381,0.0,6.2381,6.2381,6.2381,6.2381,6.2381,6.2537,6.2847,6.3076,6.3302,6.36,6.36,6.36,6.36,6.36,6.36,6.3673,6.4533,6.5303,6.6078,6.7045,6.7826,6.8506,6.8506,6.8506,6.8506,6.8506,6.8506,6.8506,6.7475,6.7263,6.7097,6.6812,6.6812,6.6812,6.6812,6.6812,6.6812,6.6812,6.6812,6.6812,6.6812,6.6812,6.6812,6.6812,6.6812,6.6812,6.6812,6.6812,6.6812,6.6812,6.6812,6.6812,6.6812,6.6812,6.6812,6.6812,6.6812,6.6812,6.6812,6.6812,6.6812,6.6812,6.6812,6.6812,6.6812,6.6812,6.6812,6.6812,6.6812,6.6812,6.6812,6.6812,6.6812,6.6812,6.6812,6.6812,6.6812,6.6812,6.6812,6.6812,6.6812,6.6812,6.6812,6.6812,6.6812,6.6812,6.6812,6.6812,6.6779,6.6677,6.6068,6.5324,6.4613,6.3869,6.3159,6.2516,6.2381,6.2381,6.2381,6.2381,6.2381,6.2381,6.2381,6.2381,6.2381,0.0,6.2381,6.2381,6.2381,6.2381,6.2381,6.2381,6.2381,6.2381,6.2381,6.2381,6.2381,6.2381,6.2381,6.2381,6.2381,6.2459,6.2727,6.3076,6.3377,6.3526,6.36,6.36,6.36,6.36,6.36,6.3673,6.4533,6.5267,6.6078,6.6988,6.7773,6.8506,6.8506,6.8506,6.8506,6.8506,6.8506,6.8506,6.7263,6.7014,6.6812,6.6812,6.6812,6.6812,6.6812,6.6812,6.6812,6.6812,6.6812,6.6812,6.6812,6.6812,6.6812,6.6812,6.6812,6.6812,6.6812,6.6812,6.6812,6.6812,6.6812,6.6812,6.6812,6.6812,6.6812,6.6812,6.6812,6.6812,6.6812,6.6812,6.6812,6.6812,6.6812,6.6812,6.6812,6.6812,6.6812,6.6812,6.6812,6.6812,6.6812,6.6812,6.6812,6.6812,6.6812,6.6812,6.6812,6.6812,6.6812,6.6812,6.6812,6.6812,6.6812,6.6812,6.6812,6.6812,6.6812,6.6812,6.6643,6.6034,6.5324,6.458,6.3835,6.3091,6.2516,6.2415,6.2381,6.2381,6.2381,6.2381,6.2381,6.2381,6.2381,6.2381,6.2381,0.0,6.2381,6.2381,6.2381,6.2381,6.2381,6.2381,6.2381,6.2381,6.2381,6.2381,6.2381,6.2381,6.2381,6.2381,6.2381,6.2459,6.2727,6.3076,6.3302,6.3377,6.3526,6.36,6.36,6.36,6.36,6.3673,6.4358,6.5202,6.6078,6.6801,6.7684,6.8506,6.8506,6.8506,6.8506,6.8506,6.8506,6.8506,6.718,6.698,6.6812,6.6812,6.6812,6.6812,6.6812,6.6812,6.6812,6.6812,6.6812,6.6812,6.6812,6.6812,6.6812,6.6812,6.6812,6.6812,6.6812,6.6812,6.6812,6.6812,6.6812,6.6812,6.6812,6.6812,6.6812,6.6812,6.6812,6.6812,6.6812,6.6812,6.6812,6.6812,6.6812,6.6812,6.6812,6.6812,6.6812,6.6812,6.6812,6.6812,6.6812,6.6812,6.6812,6.6812,6.6812,6.6812,6.6812,6.6812,6.6812,6.6812,6.6812,6.6812,6.6812,6.6812,6.6812,6.6812,6.6812,6.6812,6.6643,6.5865,6.5155,6.441,6.3666,6.2922,6.2381,6.2381,6.2381,6.2381,6.2381,6.2381,6.2381,6.2381,6.2381,0.0,0.0,6.2381,6.2381,6.2381,6.2381,6.2381,6.2381,6.2381,6.2381,6.2381,6.2381,6.2381,6.2381,6.2381,6.2381,6.2381,6.2381,6.2537,6.2847,6.3076,6.3227,6.3452,6.3526,6.36,6.36,6.3967,6.3967,6.3639,6.5141,6.5842,6.6078,6.7176,6.7982,6.8506,6.8506,6.8506,6.8506,6.8506,6.8506,6.8506,6.7097,6.6896,6.6812,6.6812,6.6812,6.6812,6.6812,6.6812,6.6812,6.6812,6.6812,6.6812,6.6812,6.6812,6.6812,6.6812,6.6812,6.6812,6.6812,6.6812,6.6812,6.6812,6.6812,6.6812,6.6812,6.6812,6.6812,6.6812,6.6812,6.6812,6.6812,6.6812,6.6812,6.6812,6.6812,6.6812,6.6812,6.6812,6.6812,6.6812,6.6812,6.6812,6.6812,6.6812,6.6812,6.6812,6.6812,6.6812,6.6812,6.6812,6.6812,6.6812,6.6812,6.6812,6.6812,6.6812,6.6812,6.6812,6.6812,6.6677,6.6373,6.5628,6.4884,6.414,6.3429,6.2821,6.2381,6.2381,6.2381,6.2381,6.2381,6.2381,6.2381,6.2381,0.0,0.0,0.0,6.2381,6.2381,6.2381,6.2381,6.2381,6.2381,6.2381,6.2381,6.2381,6.2381,6.2381,6.2381,6.2381,6.2381,6.2381,6.2381,6.2537,6.2923,6.3,6.3152,6.3526,6.36,6.36,6.36,6.4147,6.4147,6.3895,6.5561,6.6271,6.6319,6.7432,6.8171,6.8506,6.8506,6.8506,6.8506,6.8506,6.8506,6.8506,6.6896,6.6812,6.6812,6.6812,6.6812,6.6812,6.6812,6.6812,6.6812,6.6812,6.6812,6.6812,6.6812,6.6812,6.6812,6.6812,6.6812,6.6812,6.6812,6.6812,6.6812,6.6812,6.6812,6.6812,6.6812,6.6812,6.6812,6.6812,6.6812,6.6812,6.6812,6.6812,6.6812,6.6812,6.6812,6.6812,6.6812,6.6812,6.6812,6.6812,6.6812,6.6812,6.6812,6.6812,6.6812,6.6812,6.6812,6.6812,6.6812,6.6812,6.6812,6.6812,6.6812,6.6812,6.6812,6.6812,6.6812,6.6812,6.6812,6.6305,6.5595,6.4884,6.414,6.3396,6.2651,6.2415,6.2381,6.2381,6.2381,6.2381,6.2381,6.2381,6.2381,6.2381,0.0,0.0,6.2381,6.2381,6.2381,6.2381,6.2381,6.2381,6.2381,6.2381,6.2381,6.2381,6.2381,6.2381,6.2381,6.2381,6.2381,6.2381,6.2381,6.2459,6.2693,6.2923,6.3076,6.3302,6.3526,6.36,6.36,6.3639,6.3967,6.4532,6.4838,6.5743,6.7008,6.7287,6.7841,6.8506,6.8506,6.8506,6.8506,6.8506,6.8506,6.8506,6.6812,6.6812,6.6812,6.6812,6.6812,6.6812,6.6812,6.6812,6.6812,6.6812,6.6812,6.6812,6.6812,6.6812,6.6812,6.6812,6.6812,6.6812,6.6812,6.6812,6.6812,6.6812,6.6812,6.6812,6.6812,6.6812,6.6812,6.6812,6.6812,6.6812,6.6812,6.6812,6.6812,6.6812,6.6812,6.6812,6.6812,6.6812,6.6812,6.6812,6.6812,6.6812,6.6812,6.6812,6.6812,6.6812,6.6812,6.6812,6.6812,6.6812,6.6812,6.6812,6.6812,6.6812,6.6812,6.6812,6.6812,6.6711,6.6237,6.5899,6.5493,6.4783,6.4072,6.3328,6.255,6.2381,6.2381,6.2381,6.2381,6.2381,6.2381,6.2381,6.2381,6.2381,0.0,6.2381,6.2381,6.2381,6.2381,6.2381,6.2381,6.2381,6.2381,6.2381,6.2381,6.2381,6.2381,6.2381,6.2381,6.2381,6.2381,6.2381,6.2381,6.2459,6.2727,6.2923,6.3076,6.3302,6.3526,6.36,6.36,6.4039,6.4358,6.4669,6.5561,6.6427,6.7157,6.763,6.8033,6.8506,6.8506,6.8506,6.8506,6.8506,6.8506,6.8506,6.6812,6.6812,6.6812,6.6812,6.6812,6.6812,6.6812,6.6812,6.6812,6.6812,6.6812,6.6812,6.6812,6.6812,6.6812,6.6812,6.6812,6.6812,6.6812,6.6812,6.6812,6.6812,6.6812,6.6812,6.6812,6.6812,6.6812,6.6812,6.6812,6.6812,6.6812,6.6812,6.6812,6.6812,6.6812,6.6812,6.6812,6.6812,6.6812,6.6812,6.6812,6.6812,6.6812,6.6812,6.6812,6.6812,6.6812,6.6812,6.6812,6.6812,6.6812,6.6812,6.6812,6.6812,6.6812,6.6812,6.6643,6.6339,6.5831,6.5358,6.4884,6.4377,6.37,6.3024,6.2516,6.2381,6.2381,6.2381,6.2381,6.2381,6.2381,6.2381,6.2381,6.2381,6.2381,6.2381,6.2381,6.2381,6.2381,6.2381,6.2381,6.2381,6.2381,6.2381,6.2381,6.2381,6.2381,6.2381,6.2381,6.2381,6.2381,6.2381,6.2459,6.2537,6.2727,6.2923,6.3152,6.3377,6.3526,6.36,6.36,6.4288,6.4738,6.4972,6.6247,6.7045,6.7469,6.8018,6.8358,6.8506,6.8506,6.8506,6.8506,6.8506,6.8506,6.8506,6.6812,6.6812,6.6812,6.6812,6.6812,6.6812,6.6812,6.6812,6.6812,6.6812,6.6812,6.6812,6.6812,6.6812,6.6812,6.6812,6.6812,6.6812,6.6812,6.6812,6.6812,6.6812,6.6812,6.6812,6.6812,6.6812,6.6812,6.6812,6.6812,6.6812,6.6812,6.6812,6.6812,6.6812,6.6812,6.6812,6.6812,6.6812,6.6812,6.6812,6.6812,6.6812,6.6812,6.6812,6.6812,6.6812,6.6812,6.6812,6.6812,6.6812,6.6812,6.6812,6.6812,6.6812,6.6812,6.6812,6.6271,6.5696,6.5662,6.4613,6.3531,6.3531,6.2956,6.2381,6.2381,6.2381,6.2381,6.2381,6.2381,6.2381,6.2381,6.2381,6.2381,6.2381,6.2381,6.2381,6.2381,6.2381,6.2381,6.2381,6.2381,6.2381,6.2381,6.2381,6.2381,6.2381,6.2381,6.2381,6.2381,6.2381,6.2381,6.2381,6.2615,6.2727,6.2693,6.2923,6.3227,6.36,6.36,6.36,6.3673,6.4288,6.4972,6.5653,6.6664,6.7469,6.8121,6.8408,6.8506,6.8506,6.8506,6.8506,6.8506,6.8506,6.8506,6.8506,6.6812,6.6812,6.6812,6.6812,6.6812,6.6812,6.6812,6.6812,6.6812,6.6812,6.6812,6.6812,6.6812,6.6812,6.6812,6.6812,6.6812,6.6812,6.6812,6.6812,6.6812,6.6812,6.6812,6.6812,6.6812,6.6812,6.6812,6.6812,6.6812,6.6812,6.6812,6.6812,6.6812,6.6812,6.6812,6.6812,6.6812,6.6812,6.6812,6.6812,6.6812,6.6812,6.6812,6.6812,6.6812,6.6812,6.6812,6.6812,6.6812,6.6812,6.6812,6.6812,6.6812,6.6812,6.6711,6.617,6.5865,6.5459,6.4444,6.3835,6.3531,6.3531,6.2956,6.2381,6.2381,6.2381,6.2381,6.2381,6.2381,6.2381,6.2381,6.2381,6.2381,6.2381,6.2381,6.2381,6.2381,6.2381,6.2381,6.2381,6.2381,6.2381,6.2381,6.2381,6.2381,6.2381,6.2381,6.2381,6.2381,6.2381,6.2459,6.2649,6.2649,6.2881,6.3076,6.3152,6.3302,6.3377,6.3526,6.3858,6.4288,6.4039,6.4806,6.6344,6.6271,6.6952,6.8121,6.8309,6.8408,6.8506,6.8506,6.8506,6.8506,6.8506,6.8506,6.8506,6.6812,6.6812,6.6812,6.6812,6.6812,6.6812,6.6812,6.6812,6.6812,6.6812,6.6812,6.6812,6.6812,6.6812,6.6812,6.6812,6.6812,6.6812,6.6812,6.6812,6.6812,6.6812,6.6812,6.6812,6.6812,6.6812,6.6728,6.6643,6.6728,6.6728,6.6643,6.6728,6.6812,6.6812,6.6812,6.6812,6.6812,6.6812,6.6812,6.6812,6.6812,6.6812,6.6812,6.6812,6.6812,6.6812,6.6812,6.6812,6.6812,6.6812,6.6812,6.6812,6.6812,6.6812,6.6677,6.5899,6.5493,6.5019,6.3835,6.3294,6.3057,6.3057,6.2719,6.2381,6.2381,6.2381,6.2381,6.2381,6.2381,6.2381,6.2381,6.2381,6.2381,6.2381,6.2381,6.2381,6.2381,6.2381,6.2381,6.2381,6.2381,6.2381,6.2381,6.2381,6.2381,6.2381,6.2381,6.2381,6.2381,6.2381,6.2459,6.2537,6.2693,6.2923,6.3152,6.3302,6.3452,6.3452,6.3526,6.3967,6.4601,6.4463,6.5237,6.6794,6.6722,6.7268,6.8171,6.8309,6.8408,6.8506,6.8506,6.8506,6.8506,6.8506,6.8506,6.8468,6.6812,6.6812,6.6812,6.6812,6.6812,6.6812,6.6812,6.6812,6.6812,6.6812,6.6812,6.6812,6.6812,6.6812,6.6812,6.6812,6.6812,6.6812,6.6812,6.6812,6.6812,6.6812,6.6812,6.6812,6.6812,6.6812,6.6728,6.6507,6.6728,6.6677,6.6507,6.6728,6.6812,6.6812,6.6812,6.6812,6.6812,6.6812,6.6812,6.6812,6.6812,6.6812,6.6812,6.6812,6.6812,6.6812,6.6812,6.6812,6.6812,6.6812,6.6812,6.6812,6.6812,6.6779,6.6576,6.5797,6.5087,6.4343,6.3599,6.2922,6.2381,6.2381,6.2381,6.2381,6.2381,6.2381,6.2381,6.2381,6.2381,6.2381,6.2381,6.2381,6.2381,6.2381,6.2381,6.2381,6.2381,6.2381,6.2381,6.2381,6.2381,6.2381,6.2381,6.2381,6.2381,6.2381,6.2381,6.2381,6.2381,6.2381,6.2381,6.2459,6.2847,6.3,6.3076,6.3452,6.36,6.36,6.3639,6.4039,6.4738,6.5332,6.6125,6.7024,6.772,6.8121,6.8272,6.8457,6.8506,6.8506,6.8506,6.8506,6.8506,6.8506,6.8468,6.8283,6.6812,6.6812,6.6812,6.6812,6.6812,6.6812,6.6812,6.6812,6.6812,6.6812,6.6812,6.6812,6.6812,6.6812,6.6812,6.6812,6.6812,6.6812,6.6812,6.6812,6.6812,6.6812,6.6812,6.6812,6.6812,6.6812,6.6728,6.6507,6.6728,6.6677,6.6507,6.6728,6.6812,6.6812,6.6812,6.6812,6.6812,6.6812,6.6812,6.6812,6.6812,6.6812,6.6812,6.6812,6.6812,6.6812,6.6812,6.6812,6.6812,6.6812,6.6812,6.6812,6.6812,6.6406,6.5797,6.5053,6.4343,6.3599,6.2854,6.2516,6.2381,6.2381,6.2381,6.2381,6.2381,6.2381,6.2381,6.2381,6.2381,6.2381,6.2381,6.2381,6.2381,6.2381,6.2381,6.2381,6.2381,6.2381,6.2381,6.2381,6.2381,6.2381,6.2381,6.2381,6.2381,6.2381,6.2381,6.2381,6.2381,6.2381,6.2537,6.2847,6.3,6.3152,6.3452,6.36,6.36,6.36,6.4147,6.4702,6.5397,6.5526,6.6368,6.7704,6.7415,6.7684,6.8309,6.8457,6.8506,6.8506,6.8506,6.8506,6.8506,6.8506,6.8097,6.7354,6.6812,6.6812,6.6812,6.6812,6.6812,6.6812,6.6812,6.6812,6.6812,6.6812,6.6812,6.6812,6.6812,6.6812,6.6812,6.6812,6.6812,6.6812,6.6812,6.6812,6.6812,6.6812,6.6812,6.6728,6.6677,6.6677,6.6558,6.6302,6.6558,6.6507,6.6162,6.6388,6.6558,6.6677,6.6677,6.6728,6.6812,6.6812,6.6812,6.6812,6.6812,6.6812,6.6812,6.6812,6.6812,6.6812,6.6812,6.6812,6.6812,6.6812,6.6812,6.6745,6.6406,6.6,6.5493,6.441,6.3802,6.3362,6.2584,6.2381,6.2381,6.2381,6.2381,6.2381,6.2381,6.2381,6.2381,6.2381,6.2381,6.2381,6.2381,6.2381,6.2381,6.2381,6.2381,6.2381,6.2381,6.2381,6.2381,6.2381,6.2381,6.2381,6.2381,6.2381,6.2381,6.2381,6.2381,6.2381,6.2381,6.2381,6.2537,6.2847,6.2923,6.3152,6.3452,6.3526,6.36,6.36,6.4288,6.4972,6.559,6.594,6.6758,6.7899,6.7667,6.7826,6.8309,6.8457,6.8506,6.8506,6.8506,6.8506,6.8506,6.8506,6.7763,6.6537,6.6812,6.6812,6.6812,6.6812,6.6812,6.6812,6.6812,6.6812,6.6812,6.6812,6.6812,6.6812,6.6812,6.6812,6.6812,6.6812,6.661,6.6525,6.6525,6.6354,6.6354,6.6525,6.6525,6.6558,6.6507,6.6507,6.6302,6.6009,6.6302,6.6215,6.578,6.6009,6.6215,6.6507,6.6507,6.6592,6.6812,6.6812,6.6812,6.6812,6.6812,6.6812,6.6812,6.6812,6.6812,6.6812,6.6812,6.6812,6.6812,6.6812,6.6745,6.6508,6.5865,6.5527,6.5087,6.3869,6.3429,6.3193,6.255,6.2381,6.2381,6.2381,6.2381,6.2381,6.2381,6.2381,6.2381,6.2381,6.2381,6.2381,6.2381,6.2381,6.2381,6.2381,6.2381,6.2381,6.2381,6.2381,6.2381,6.2381,6.2381,6.2381,6.2381,6.2381,6.2381,6.2381,6.2381,6.2381,6.2381,6.2459,6.2537,6.2693,6.2923,6.3152,6.3377,6.3526,6.36,6.36,6.4428,6.5039,6.559,6.6464,6.723,6.7899,6.8018,6.8208,6.8309,6.8457,6.8506,6.8506,6.8506,6.8506,6.8468,6.8208,6.7168,6.5756,6.6812,6.6812,6.6812,6.6812,6.6812,6.6812,6.6812,6.6812,6.6812,6.6812,6.6812,6.6812,6.6812,6.6812,6.6812,6.6812,6.5975,6.547,6.547,6.472,6.4629,6.547,6.547,6.5801,6.6507,6.6507,6.6335,6.5867,6.6009,6.6009,6.578,6.6009,6.6215,6.6507,6.6507,6.6592,6.6812,6.6812,6.6812,6.6812,6.6812,6.6812,6.6812,6.6812,6.6812,6.6812,6.6812,6.6812,6.6812,6.6812,6.6373,6.5831,6.573,6.4816,6.3768,6.3565,6.3057,6.2516,6.2415,6.2381,6.2381,6.2381,6.2381,6.2381,6.2381,6.2381,6.2381,6.2381,6.2381,6.2381,6.2381,6.2381,6.2381,6.2381,6.2381,6.2381,6.2381,6.2381,6.2381,6.2381,6.2381,6.2381,6.2381,6.2381,6.2381,6.2381,6.2381,6.2381,6.2381,6.2537,6.277,6.2923,6.3152,6.3377,6.36,6.36,6.36,6.36,6.4838,6.5526,6.5653,6.6967,6.7687,6.7899,6.8018,6.8208,6.8309,6.8457,6.8506,6.8506,6.8506,6.8506,6.8357,6.6945,6.5831,6.4865,6.6812,6.6812,6.6812,6.6812,6.6812,6.6812,6.6812,6.632,6.5975,6.5975,6.547,6.5114,6.5114,6.5592,6.5767,6.5204,6.5204,6.5024,6.4538,6.4077,6.3984,6.4447,6.4355,6.4662,6.5392,6.527,6.5359,6.5603,6.5867,6.578,6.5603,6.5658,6.5867,6.6162,6.6162,6.6215,6.644,6.644,6.6473,6.6677,6.6677,6.6728,6.6812,6.6812,6.6812,6.6812,6.6812,6.6812,6.6745,6.6339,6.5967,6.5561,6.4715,6.4038,6.3429,6.3024,6.2651,6.2381,6.2381,6.2381,6.2381,6.2381,6.2381,6.2381,6.2381,6.2381,6.2381,6.2381,6.2381,6.2381,6.2381,6.2381,6.2381,6.2381,6.2381,6.2381,6.2381,6.2381,6.2381,6.2381,6.2381,6.2381,6.2381,6.2381,6.2381,6.2381,6.2381,6.2459,6.2537,6.2615,6.2847,6.3152,6.3227,6.3377,6.36,6.36,6.36,6.36,6.4601,6.5237,6.5653,6.7024,6.7794,6.7899,6.8018,6.8208,6.8309,6.8457,6.8506,6.8506,6.8506,6.8246,6.7651,6.5979,6.5125,6.4679]},{"header":{"parameterUnit":"m.s-1","parameterCategory":1,"la1":30.6,"la2":28.766,"lo1":-90.7593,"lo2":-88.6598,"dy":0.0162,"dx":0.0183,"nx":116,"ny":114,"refTime":"2024-04-16T12:00:00:Z","depth":0,"parameterNumber":3,"parameterNumberName":"V-component_of_WINDS"},"data":[0.0,0.0,0.0,0.0,0.0,0.0,0.0,0.0,0.0,0.0,0.0,0.0,0.0,0.0,0.0,0.0,0.0,0.0,0.0,0.0,0.0,0.0,0.0,0.0,0.0,0.0,0.0,0.0,0.0,0.0,0.0,0.0,0.0,0.0,0.0,0.0,0.0,0.0,0.0,0.0,0.0,0.0,0.0,0.0,0.0,0.0,0.0,0.0,0.0,0.0,0.0,0.0,0.0,0.0,0.0,0.0,0.0,0.0,0.0,0.0,0.0,0.0,0.0,0.0,0.0,0.0,0.0,0.0,0.0,0.0,0.0,0.0,0.0,0.0,0.0,0.0,0.0,0.0,0.0,0.0,0.0,0.0,0.0,0.0,0.0,0.0,0.0,0.0,0.0,0.0,0.0,0.0,0.0,0.0,0.0,0.0,0.0,0.0,0.0,0.0,0.0,0.0,0.0,0.0,0.0,0.0,0.0,0.0,0.0,0.0,0.0,0.0,0.0,0.0,0.0,0.0,0.0,0.0,0.0,0.0,0.0,0.0,0.0,0.0,0.0,0.0,0.0,0.0,0.0,0.0,0.0,0.0,0.0,0.0,0.0,0.0,0.0,0.0,0.0,0.0,0.0,0.0,0.0,0.0,0.0,0.0,0.0,0.0,0.0,0.0,0.0,0.0,0.0,0.0,0.0,0.0,0.0,0.0,0.0,0.0,0.0,0.0,0.0,0.0,0.0,0.0,0.0,0.0,0.0,0.0,0.0,0.0,0.0,0.0,0.0,0.0,0.0,0.0,0.0,0.0,0.0,0.0,0.0,0.0,0.0,0.0,0.0,0.0,0.0,0.0,0.0,0.0,0.0,0.0,0.0,0.0,0.0,0.0,0.0,0.0,0.0,0.0,0.0,0.0,0.0,0.0,0.0,0.0,0.0,0.0,0.0,0.0,0.0,0.0,0.0,0.0,0.0,0.0,0.0,0.0,0.0,0.0,0.0,0.0,0.0,0.0,0.0,0.0,0.0,0.0,0.0,0.0,0.0,0.0,0.0,0.0,0.0,0.0,0.0,0.0,0.0,0.0,0.0,0.0,0.0,0.0,0.0,0.0,0.0,0.0,0.0,0.0,0.0,0.0,0.0,0.0,0.0,0.0,0.0,0.0,0.0,0.0,0.0,0.0,0.0,0.0,0.0,0.0,0.0,0.0,0.0,0.0,0.0,0.0,0.0,0.0,0.0,0.0,0.0,0.0,0.0,0.0,0.0,0.0,0.0,0.0,0.0,0.0,0.0,0.0,0.0,0.0,0.0,0.0,0.0,0.0,0.0,0.0,0.0,0.0,0.0,0.0,0.0,0.0,0.0,0.0,0.0,0.0,0.0,0.0,0.0,0.0,0.0,0.0,0.0,0.0,0.0,0.0,0.0,0.0,0.0,0.0,0.0,0.0,0.0,0.0,0.0,0.0,0.0,0.0,0.0,0.0,0.0,0.0,0.0,0.0,0.0,0.0,0.0,0.0,0.0,0.0,0.0,0.0,0.0,0.0,0.0,0.0,0.0,0.0,0.0,0.0,0.0,0.0,0.0,0.0,0.0,0.0,0.0,0.0,0.0,0.0,0.0,0.0,0.0,0.0,0.0,0.0,0.0,0.0,0.0,0.0,0.0,0.0,0.0,0.0,0.0,0.0,0.0,0.0,0.0,0.0,0.0,0.0,0.0,0.0,0.0,0.0,0.0,0.0,0.0,0.0,0.0,0.0,0.0,0.0,0.0,0.0,0.0,0.0,0.0,0.0,0.0,0.0,0.0,0.0,0.0,0.0,0.0,0.0,0.0,0.0,0.0,0.0,0.0,0.0,0.0,0.0,0.0,0.0,0.0,0.0,0.0,0.0,0.0,0.0,0.0,0.0,0.0,0.0,0.0,0.0,0.0,0.0,0.0,0.0,0.0,0.0,0.0,0.0,0.0,0.0,0.0,0.0,0.0,0.0,0.0,0.0,0.0,0.0,0.0,0.0,0.0,0.0,0.0,0.0,0.0,0.0,0.0,0.0,0.0,0.0,0.0,0.0,0.0,0.0,0.0,0.0,0.0,0.0,0.0,0.0,0.0,0.0,0.0,0.0,0.0,0.0,0.0,0.0,0.0,0.0,0.0,0.0,0.0,0.0,0.0,0.0,0.0,0.0,0.0,0.0,0.0,0.0,0.0,0.0,0.0,0.0,0.0,0.0,0.0,0.0,0.0,0.0,0.0,0.0,0.0,0.0,0.0,0.0,0.0,0.0,0.0,0.0,0.0,0.0,0.0,0.0,0.0,0.0,0.0,0.0,0.0,0.0,0.0,0.0,0.0,0.0,0.0,0.0,0.0,0.0,0.0,0.0,0.0,0.0,0.0,0.0,0.0,0.0,0.0,0.0,0.0,0.0,0.0,0.0,0.0,0.0,0.0,0.0,0.0,0.0,0.0,0.0,0.0,0.0,0.0,0.0,0.0,0.0,0.0,0.0,0.0,0.0,0.0,0.0,0.0,0.0,0.0,0.0,0.0,0.0,0.0,0.0,0.0,0.0,0.0,0.0,0.0,0.0,0.0,0.0,0.0,0.0,0.0,0.0,0.0,0.0,0.0,0.0,0.0,0.0,0.0,0.0,0.0,0.0,0.0,0.0,0.0,0.0,0.0,0.0,0.0,0.0,0.0,0.0,0.0,0.0,0.0,0.0,0.0,0.0,0.0,0.0,0.0,0.0,0.0,0.0,0.0,0.0,0.0,0.0,0.0,0.0,0.0,0.0,0.0,0.0,0.0,0.0,0.0,0.0,0.0,0.0,0.0,0.0,0.0,0.0,0.0,0.0,0.0,0.0,0.0,0.0,0.0,0.0,0.0,0.0,0.0,0.0,0.0,0.0,0.0,0.0,0.0,0.0,0.0,0.0,0.0,0.0,0.0,0.0,0.0,0.0,0.0,0.0,0.0,0.0,0.0,0.0,0.0,0.0,0.0,0.0,0.0,0.0,0.0,0.0,0.0,0.0,0.0,0.0,0.0,0.0,0.0,0.0,0.0,0.0,0.0,0.0,0.0,0.0,0.0,0.0,0.0,0.0,0.0,0.0,0.0,0.0,0.0,0.0,0.0,0.0,0.0,0.0,0.0,0.0,0.0,0.0,0.0,0.0,0.0,0.0,0.0,0.0,0.0,0.0,0.0,0.0,0.0,0.0,0.0,0.0,0.0,0.0,0.0,0.0,0.0,0.0,0.0,0.0,0.0,0.0,0.0,0.0,0.0,0.0,0.0,0.0,0.0,0.0,0.0,0.0,0.0,0.0,0.0,0.0,0.0,0.0,0.0,0.0,0.0,0.0,0.0,0.0,0.0,0.0,0.0,0.0,0.0,0.0,0.0,0.0,0.0,0.0,0.0,0.0,0.0,0.0,0.0,0.0,0.0,0.0,0.0,0.0,0.0,0.0,0.0,0.0,0.0,0.0,0.0,0.0,0.0,0.0,0.0,0.0,0.0,0.0,0.0,0.0,0.0,0.0,0.0,0.0,0.0,0.0,0.0,0.0,0.0,0.0,0.0,0.0,0.0,0.0,0.0,0.0,0.0,0.0,0.0,0.0,0.0,0.0,0.0,0.0,0.0,0.0,0.0,0.0,0.0,0.0,0.0,0.0,0.0,0.0,0.0,0.0,0.0,0.0,0.0,0.0,0.0,0.0,0.0,0.0,0.0,0.0,0.0,0.0,0.0,0.0,0.0,0.0,0.0,0.0,0.0,0.0,0.0,0.0,0.0,0.0,0.0,0.0,0.0,0.0,0.0,0.0,0.0,0.0,0.0,0.0,0.0,0.0,0.0,0.0,0.0,0.0,0.0,0.0,0.0,0.0,0.0,0.0,0.0,0.0,0.0,0.0,0.0,0.0,0.0,0.0,0.0,0.0,0.0,0.0,0.0,0.0,0.0,0.0,0.0,0.0,0.0,0.0,0.0,0.0,0.0,0.0,0.0,0.0,0.0,0.0,0.0,0.0,0.0,0.0,0.0,0.0,0.0,0.0,0.0,0.0,0.0,0.0,0.0,0.0,0.0,0.0,0.0,0.0,0.0,0.0,0.0,0.0,0.0,0.0,0.0,0.0,0.0,0.0,0.0,0.0,0.0,0.0,0.0,0.0,0.0,0.0,0.0,0.0,0.0,0.0,0.0,0.0,0.0,0.0,0.0,0.0,0.0,0.0,0.0,0.0,0.0,0.0,0.0,0.0,0.0,0.0,0.0,0.0,0.0,0.0,0.0,0.0,0.0,0.0,0.0,0.0,0.0,0.0,0.0,0.0,0.0,0.0,0.0,0.0,0.0,0.0,0.0,0.0,0.0,0.0,0.0,0.0,0.0,0.0,0.0,0.0,0.0,0.0,0.0,0.0,0.0,0.0,0.0,0.0,0.0,0.0,0.0,0.0,0.0,0.0,0.0,0.0,0.0,0.0,0.0,0.0,0.0,0.0,0.0,0.0,0.0,0.0,0.0,0.0,0.0,0.0,0.0,0.0,0.0,0.0,0.0,0.0,0.0,0.0,0.0,0.0,0.0,0.0,0.0,0.0,0.0,0.0,0.0,0.0,0.0,0.0,0.0,0.0,0.0,0.0,0.0,0.0,0.0,0.0,0.0,0.0,0.0,0.0,0.0,0.0,0.0,0.0,0.0,0.0,0.0,0.0,0.0,0.0,0.0,0.0,0.0,0.0,0.0,0.0,0.0,0.0,0.0,0.0,0.0,0.0,0.0,0.0,0.0,0.0,0.0,0.0,0.0,0.0,0.0,0.0,0.0,0.0,0.0,0.0,0.0,0.0,0.0,0.0,0.0,0.0,0.0,0.0,0.0,0.0,0.0,0.0,0.0,0.0,0.0,0.0,0.0,0.0,0.0,0.0,0.0,0.0,0.0,0.0,0.0,0.0,0.0,0.0,0.0,0.0,0.0,0.0,0.0,0.0,0.0,0.0,0.0,0.0,0.0,0.0,0.0,0.0,0.0,0.0,0.0,0.0,0.0,0.0,0.0,0.0,0.0,0.0,0.0,0.0,0.0,0.0,0.0,0.0,0.0,0.0,0.0,0.0,0.0,0.0,0.0,0.0,0.0,0.0,0.0,0.0,0.0,0.0,0.0,0.0,0.0,0.0,0.0,0.0,0.0,0.0,0.0,0.0,0.0,0.0,0.0,0.0,0.0,0.0,0.0,0.0,0.0,0.0,0.0,0.0,0.0,0.0,0.0,0.0,0.0,0.0,0.0,0.0,0.0,0.0,0.0,0.0,0.0,0.0,0.0,0.0,0.0,0.0,0.0,0.0,0.0,0.0,0.0,0.0,0.0,0.0,0.0,0.0,0.0,0.0,0.0,0.0,0.0,0.0,0.0,0.0,0.0,0.0,0.0,0.0,0.0,0.0,0.0,0.0,0.0,0.0,0.0,0.0,0.0,0.0,0.0,0.0,0.0,0.0,0.0,0.0,0.0,0.0,0.0,0.0,0.0,0.0,0.0,0.0,0.0,0.0,0.0,0.0,0.0,0.0,0.0,0.0,0.0,0.0,0.0,0.0,0.0,0.0,0.0,0.0,0.0,0.0,0.0,0.0,0.0,0.0,0.0,0.0,0.0,0.0,0.0,0.0,0.0,0.0,0.0,0.0,0.0,0.0,0.0,0.0,0.0,0.0,0.0,0.0,0.0,0.0,0.0,0.0,0.0,0.0,0.0,0.0,0.0,0.0,0.0,0.0,0.0,0.0,0.0,0.0,0.0,0.0,0.0,0.0,0.0,0.0,0.0,0.0,0.0,0.0,0.0,0.0,0.0,0.0,0.0,0.0,0.0,0.0,0.0,0.0,0.0,0.0,0.0,0.0,0.0,0.0,0.0,0.0,0.0,0.0,0.0,0.0,0.0,0.0,0.0,0.0,0.0,0.0,0.0,0.0,0.0,0.0,0.0,0.0,0.0,0.0,0.0,0.0,0.0,0.0,0.0,0.0,0.0,0.0,0.0,0.0,0.0,0.0,0.0,0.0,0.0,0.0,0.0,0.0,0.0,0.0,0.0,0.0,0.0,0.0,0.0,0.0,0.0,0.0,0.0,0.0,0.0,0.0,0.0,0.0,1.906,0.0,0.0,0.0,0.0,0.0,0.0,0.0,0.0,0.0,0.0,0.0,0.0,0.0,0.0,0.0,0.0,0.0,0.0,0.0,0.0,0.0,0.0,0.0,0.0,1.9372,1.9372,1.9372,1.9492,1.9639,1.9786,0.0,0.0,0.0,0.0,0.0,0.0,0.0,2.1109,2.1109,2.1109,2.1109,2.1109,2.1109,2.1109,2.1109,0.0,0.0,0.0,0.0,0.0,0.0,0.0,0.0,0.0,0.0,0.0,0.0,0.0,0.0,0.0,0.0,0.0,0.0,0.0,0.0,0.0,0.0,0.0,0.0,0.0,0.0,0.0,0.0,0.0,0.0,0.0,0.0,0.0,0.0,0.0,0.0,0.0,0.0,0.0,0.0,0.0,0.0,0.0,0.0,0.0,0.0,0.0,0.0,0.0,0.0,0.0,0.0,0.0,0.0,0.0,0.0,0.0,0.0,0.0,0.0,0.0,0.0,0.0,0.0,0.0,0.0,0.0,0.0,0.0,0.0,0.0,1.9979,0.0,0.0,0.0,0.0,0.0,0.0,0.0,0.0,0.0,0.0,0.0,0.0,0.0,0.0,0.0,0.0,0.0,0.0,0.0,0.0,0.0,1.9372,1.9372,1.9372,1.9386,1.9439,1.9666,1.984,1.9947,2.0401,0.0,0.0,0.0,2.1109,2.1109,2.1109,2.1109,2.1109,2.1109,2.1109,2.1109,2.1109,2.1109,2.1109,2.1109,0.0,0.0,0.0,0.0,0.0,0.0,0.0,0.0,0.0,0.0,0.0,0.0,0.0,0.0,0.0,0.0,0.0,0.0,0.0,0.0,0.0,0.0,0.0,0.0,0.0,0.0,0.0,0.0,0.0,0.0,0.0,0.0,0.0,0.0,0.0,0.0,0.0,0.0,0.0,0.0,0.0,0.0,0.0,0.0,0.0,0.0,0.0,0.0,0.0,0.0,0.0,0.0,0.0,0.0,0.0,0.0,0.0,0.0,0.0,0.0,0.0,0.0,0.0,1.9989,2.0373,2.059,2.085,2.1241,2.1437,2.0437,2.0105,2.0503,2.0759,0.0,0.0,0.0,0.0,0.0,0.0,0.0,0.0,0.0,0.0,0.0,0.0,0.0,0.0,0.0,0.0,0.0,0.0,0.0,1.9372,1.9372,1.9372,1.9466,1.972,1.9773,2.0013,2.0521,2.0628,2.0788,2.1042,2.1082,2.1109,2.1109,2.1109,2.1109,2.1109,2.1109,2.1109,2.1109,2.1109,2.1109,2.1109,2.1109,2.1109,2.1109,0.0,0.0,0.0,0.0,0.0,0.0,0.0,0.0,0.0,0.0,0.0,0.0,0.0,0.0,0.0,0.0,0.0,0.0,0.0,0.0,0.0,0.0,0.0,0.0,0.0,0.0,0.0,0.0,0.0,0.0,0.0,0.0,0.0,0.0,0.0,0.0,0.0,0.0,0.0,0.0,0.0,2.0281,2.0588,0.0,0.0,0.0,0.0,0.0,0.0,0.0,0.0,0.0,0.0,0.0,0.0,0.0,1.9955,1.9825,2.0179,2.0302,2.0302,2.0302,2.058,2.0882,2.1014,2.1172,2.1463,2.1384,0.0,2.1739,2.1739,0.0,0.0,0.0,0.0,0.0,0.0,0.0,0.0,0.0,0.0,0.0,0.0,0.0,0.0,0.0,0.0,0.0,0.0,0.0,0.0,0.0,1.9506,1.9666,1.9786,2.0107,2.0401,2.0655,2.0828,2.0975,2.1096,2.1109,2.1109,2.1109,2.1109,2.1109,2.1109,2.1109,2.1109,2.1109,2.1109,2.1109,2.1109,2.1109,2.1109,2.1109,2.1109,0.0,0.0,0.0,0.0,0.0,0.0,0.0,0.0,0.0,0.0,0.0,0.0,0.0,0.0,0.0,0.0,0.0,0.0,0.0,0.0,0.0,0.0,0.0,0.0,0.0,0.0,0.0,0.0,0.0,0.0,0.0,0.0,0.0,0.0,0.0,0.0,0.0,0.0,0.0,2.0615,2.0775,2.0909,2.0922,2.0975,0.0,0.0,0.0,0.0,0.0,0.0,0.0,0.0,0.0,2.0434,2.0691,2.0755,2.0492,2.0882,2.1066,2.1066,2.1198,2.1408,2.1831,2.1831,2.1923,2.235,2.235,2.235,2.2458,2.2124,2.1991,2.1991,0.0,0.0,0.0,0.0,2.1991,2.1991,0.0,0.0,0.0,0.0,0.0,0.0,0.0,0.0,0.0,0.0,0.0,0.0,1.9479,1.9733,1.9947,2.0013,2.0428,2.0708,2.0775,2.0989,2.1109,2.1109,2.1109,2.1109,2.1109,2.1109,2.1109,2.1109,2.1109,2.1109,2.1109,2.1109,2.1109,2.1109,2.1109,2.1109,2.1109,2.1109,2.1109,2.1109,0.0,0.0,0.0,0.0,0.0,0.0,0.0,0.0,0.0,0.0,0.0,0.0,0.0,0.0,0.0,0.0,0.0,0.0,0.0,0.0,0.0,0.0,0.0,0.0,0.0,0.0,0.0,0.0,0.0,0.0,0.0,0.0,0.0,0.0,0.0,0.0,0.0,2.0975,2.1109,2.1109,2.1109,2.1109,0.0,0.0,0.0,0.0,0.0,0.0,2.1124,2.1137,2.111,2.0933,2.1275,2.1314,2.1047,2.1378,2.1684,2.1684,2.1938,2.2191,2.2539,2.2539,2.2645,2.2859,2.2859,2.2859,2.2832,2.2392,2.2205,2.2205,2.2205,2.2205,2.2205,2.2205,2.2205,2.2205,0.0,0.0,0.0,0.0,0.0,0.0,0.0,0.0,0.0,0.0,0.0,1.9773,1.9773,2.004,2.0321,2.0601,2.0655,2.0788,2.1069,2.1096,2.1109,2.1109,2.1109,2.1109,2.1109,2.1109,2.1109,2.1109,2.1109,2.1109,2.1109,2.1109,2.1109,2.1109,2.1109,2.1109,2.1109,2.1109,2.1109,2.1109,2.1109,0.0,0.0,0.0,0.0,0.0,0.0,0.0,0.0,0.0,0.0,0.0,0.0,0.0,0.0,0.0,0.0,0.0,0.0,0.0,0.0,0.0,0.0,0.0,0.0,0.0,0.0,0.0,0.0,0.0,0.0,0.0,0.0,0.0,0.0,0.0,0.0,0.0,0.0,2.1109,2.1109,0.0,0.0,0.0,0.0,2.1537,2.179,2.1819,2.1437,2.1437,2.1317,2.1078,2.12,2.1462,2.1327,2.1594,2.1996,2.2271,2.2271,2.2545,2.2846,2.2846,2.2846,2.2859,2.2859,2.2859,2.2859,2.2832,2.2819,2.2819,2.2819,2.2819,2.2819,2.2819,2.2819,2.2819,0.0,0.0,0.0,0.0,0.0,1.9372,1.9372,1.9372,1.9372,1.9372,1.9626,1.98,1.98,2.0227,2.0561,2.0668,2.0842,2.1002,2.1096,2.1109,2.1109,2.1109,2.1109,2.1109,2.1109,2.1109,2.1203,2.139,2.139,2.1496,2.167,2.167,2.167,2.167,2.167,2.167,2.1643,2.1269,2.1109,2.1109,2.1109,2.1109,0.0,0.0,0.0,0.0,0.0,0.0,0.0,0.0,0.0,0.0,0.0,0.0,0.0,0.0,0.0,0.0,0.0,0.0,0.0,0.0,0.0,0.0,0.0,0.0,0.0,0.0,0.0,0.0,0.0,0.0,0.0,0.0,0.0,0.0,0.0,0.0,0.0,2.1109,2.1283,0.0,2.139,2.1657,2.183,2.183,2.1924,2.2071,2.2125,2.2138,2.2083,2.2281,2.2387,2.244,2.244,2.2395,2.2691,2.2875,2.2875,2.3121,2.3447,2.3447,2.3447,2.3447,2.3447,2.3447,2.3447,2.3447,2.322,2.2859,2.2859,2.2859,2.2859,2.2859,2.2859,2.2859,0.0,0.0,0.0,0.0,0.0,1.9372,1.9372,1.9372,1.9399,1.9506,1.9773,1.9987,2.008,2.0535,2.0815,2.0815,2.1002,2.1109,2.1109,2.1109,2.1109,2.1109,2.1109,2.1162,2.1256,2.1256,2.1403,2.1697,2.1697,2.1804,2.1991,2.1991,2.1991,2.1991,2.2109,2.2123,2.1964,2.1692,2.1531,2.1403,2.1296,2.1256,2.1256,0.0,0.0,0.0,0.0,0.0,0.0,0.0,0.0,0.0,0.0,0.0,0.0,0.0,0.0,0.0,0.0,0.0,0.0,0.0,0.0,0.0,0.0,0.0,0.0,0.0,0.0,0.0,0.0,0.0,0.0,0.0,0.0,0.0,0.0,0.0,2.1296,2.139,2.1577,2.1697,2.1697,2.1964,2.2124,2.2124,2.2231,2.2365,2.2565,2.2565,2.2699,2.3006,2.302,2.3073,2.3166,2.3166,2.3273,2.3474,2.3474,2.3581,2.3768,2.3768,2.3768,2.3768,2.3768,2.3768,2.3768,2.3768,2.3541,2.3166,2.3166,2.3166,2.3166,2.3166,2.3166,2.3166,0.0,0.0,0.0,0.0,0.0,1.9372,1.9372,1.9372,1.9479,1.976,2.0054,2.0361,2.0641,2.0935,2.1109,2.1109,2.1109,2.1109,2.1109,2.1109,2.1109,2.1109,2.1122,2.1256,2.155,2.1563,2.171,2.2004,2.2004,2.2004,2.2017,2.2017,2.2017,2.2017,2.2399,2.2399,2.2149,2.2399,2.2399,2.2123,2.1683,2.1692,2.1666,0.0,0.0,0.0,0.0,0.0,0.0,0.0,0.0,0.0,0.0,0.0,0.0,0.0,0.0,0.0,0.0,0.0,0.0,0.0,0.0,0.0,0.0,0.0,0.0,0.0,0.0,0.0,0.0,0.0,0.0,0.0,0.0,0.0,2.1603,2.1563,2.167,2.1951,2.1991,2.2004,2.2004,2.2258,2.2432,2.2432,2.2712,2.2873,2.2873,2.2886,2.3033,2.3327,2.334,2.3474,2.3768,2.3768,2.3768,2.3781,2.3781,2.3794,2.3794,2.3794,2.3794,2.3794,2.3794,2.3794,2.3794,2.3794,2.3794,2.3794,2.3781,2.3768,2.3768,2.3768,2.3768,2.3768,0.0,0.0,0.0,1.9372,1.9372,1.9372,1.9372,1.9546,1.9706,1.9786,2.0241,2.0588,2.0668,2.0935,2.1109,2.1109,2.1109,2.1109,2.1109,2.1109,2.1109,2.1109,2.1309,2.147,2.155,2.2024,2.2399,2.2712,2.2712,2.2955,2.343,2.316,2.316,2.343,2.3565,2.3565,2.343,2.3565,2.4089,2.4819,2.2717,2.2641,2.3666,0.0,0.0,0.0,0.0,0.0,0.0,0.0,0.0,0.0,0.0,0.0,0.0,0.0,0.0,0.0,0.0,0.0,0.0,0.0,0.0,0.0,0.0,0.0,0.0,0.0,0.0,0.0,0.0,0.0,0.0,0.0,0.0,2.1951,2.1884,2.1871,2.1897,2.1977,2.2164,2.2298,2.2298,2.2565,2.2739,2.2739,2.302,2.3193,2.3193,2.3407,2.3554,2.3647,2.3647,2.3688,2.3768,2.3768,2.3875,2.4088,2.4088,2.4195,2.4396,2.4396,2.4396,2.4396,2.4396,2.4396,2.4396,2.4396,2.4396,2.4356,2.3941,2.3768,2.3768,2.3768,2.3768,2.3768,0.0,0.0,0.0,1.9372,1.9372,1.9412,1.9533,1.9693,1.9893,2.0134,2.0468,2.0722,2.0842,2.1002,2.1109,2.1109,2.1109,2.1109,2.1109,2.1109,2.1162,2.1296,2.1585,2.193,2.2173,2.2613,2.3112,2.3416,2.3416,2.3905,2.4887,2.4602,2.5008,2.5801,2.5278,2.5278,2.5682,2.5278,2.595,2.7089,2.5231,2.4758,2.4885,2.384,2.3536,2.3551,2.2766,2.2263,2.1997,2.1997,0.0,0.0,0.0,0.0,0.0,0.0,0.0,0.0,0.0,0.0,0.0,0.0,0.0,0.0,0.0,0.0,0.0,0.0,0.0,0.0,0.0,0.0,0.0,0.0,2.2271,2.2352,2.2352,2.2245,2.2218,2.2338,2.2498,2.2605,2.2605,2.2886,2.306,2.306,2.334,2.3514,2.3514,2.3674,2.3821,2.3941,2.3955,2.4008,2.4128,2.4142,2.4222,2.4382,2.4382,2.4476,2.4636,2.4636,2.4636,2.4636,2.4636,2.4636,2.4636,2.4636,2.4636,0.0,0.0,0.0,0.0,0.0,2.4431,2.4417,0.0,0.0,0.0,1.9372,1.9399,1.9506,1.976,1.9853,2.008,2.0601,2.0708,2.0828,2.1082,2.1109,2.1109,2.1109,2.1109,2.1109,2.1109,2.1136,2.1283,2.1666,2.2005,2.2421,2.3089,2.3398,2.382,2.4102,2.4102,2.4752,2.6203,2.6203,2.6988,2.8312,2.727,2.7387,2.8312,2.727,2.7652,2.8969,2.8706,2.7589,2.6106,2.568,2.481,2.3665,2.3651,2.3374,2.2807,2.2807,0.0,0.0,0.0,0.0,0.0,0.0,0.0,0.0,0.0,0.0,0.0,0.0,0.0,0.0,0.0,0.0,0.0,0.0,0.0,0.0,0.0,0.0,0.0,0.0,2.2686,2.2873,2.2913,2.2686,2.2619,2.2886,2.2913,2.2926,2.2966,2.322,2.338,2.338,2.3647,2.3821,2.3821,0.0,0.0,0.0,0.0,2.4382,2.4636,2.4636,2.4636,2.4636,2.4636,2.4636,2.4636,2.4636,2.4636,2.4636,2.4636,2.4636,2.4636,2.4636,2.4931,2.5226,2.4931,2.4784,2.4784,2.5079,2.5226,2.5373,0.0,0.0,1.9372,1.9372,1.9559,1.9733,1.9786,2.0201,2.0548,2.0655,2.0882,2.1042,2.1096,2.1109,2.1109,2.1109,2.1109,2.1109,2.1109,2.1336,2.1625,2.1937,2.2531,2.2979,2.3356,2.4011,2.4303,2.436,2.436,2.5292,2.6886,2.6604,2.7403,2.8986,2.8854,2.8854,2.8986,2.8854,2.9492,3.0789,3.0789,3.0366,2.9648,2.8113,2.7457,2.721,2.7178,2.6215,2.4949,2.4949,2.4639,2.3898,2.2752,0.0,0.0,0.0,0.0,0.0,0.0,0.0,0.0,0.0,0.0,0.0,0.0,0.0,0.0,0.0,0.0,0.0,0.0,0.0,0.0,2.2779,2.2819,2.2953,2.3207,2.318,2.3166,2.3233,2.3233,2.3327,2.3567,2.3647,2.3688,2.3688,2.3955,2.4115,2.4115,2.4342,2.4489,2.4556,2.4556,2.4583,2.4636,2.4636,2.4636,2.4636,0.0,0.0,2.4636,2.4636,2.4636,2.4636,2.4636,2.4636,2.4636,2.4931,2.5373,2.5653,2.5653,2.5506,2.5653,2.5653,2.5653,2.5653,0.0,1.9466,1.9412,1.9559,1.9706,1.9893,2.0187,2.0481,2.0722,2.0869,2.1015,2.1109,2.1109,2.1109,2.1109,2.1109,2.1109,2.1176,2.1323,2.147,2.1943,2.2504,2.2937,2.344,2.3983,2.4559,2.4781,2.4781,2.5427,2.662,2.8196,2.8706,2.9752,3.1341,3.0549,3.0678,3.1212,3.0549,3.1065,3.2365,3.2365,3.2237,3.1982,3.0401,2.9361,2.8723,2.8723,2.7538,2.6075,2.6075,2.5321,2.4127,2.349,2.3103,2.2969,0.0,0.0,0.0,0.0,0.0,0.0,0.0,0.0,0.0,0.0,0.0,0.0,0.0,0.0,2.2686,2.2832,0.0,2.31,2.31,2.322,2.3367,2.3527,2.3554,2.3554,2.3554,2.3554,2.3607,2.3754,2.3901,2.3981,2.3981,2.4262,2.4422,2.4422,2.4556,2.4636,2.4636,2.4636,2.4636,2.4636,2.4636,2.4636,2.4636,2.4636,2.4636,2.4636,2.4636,2.4636,2.4636,2.4784,2.4931,2.4931,2.552,2.596,2.6093,2.6399,2.6093,2.58,2.6093,2.6093,2.6093,0.0,0.0,1.9613,1.984,1.9933,2.0134,2.0601,2.0722,2.0842,2.1082,2.1109,2.1109,2.1109,2.1109,2.1109,2.1109,2.1109,2.1229,2.1537,2.1603,2.2133,2.2941,2.3412,2.3834,2.4495,2.4916,2.5052,2.5052,2.6501,2.78,2.9248,3.0678,3.211,3.3292,3.2237,3.2365,3.3292,3.2237,3.2365,3.3418,3.3418,3.3418,3.3292,3.211,3.0807,2.9639,2.99,2.8969,2.7519,2.7519,2.6604,2.5278,2.5022,2.4887,2.4752,2.4495,2.436,0.0,0.0,0.0,0.0,0.0,0.0,0.0,0.0,0.0,2.2886,2.2939,2.2953,2.2966,2.3033,2.3247,2.3407,2.3407,2.3621,2.3794,2.3848,2.3848,2.3875,2.3928,2.3888,2.3875,2.3928,2.4155,2.4289,2.4289,2.4502,2.4636,2.4636,2.4636,2.4636,2.4636,2.4636,2.4636,2.4636,2.4636,2.4636,2.4636,2.4636,2.4636,2.4636,2.4636,2.4636,2.4636,2.5079,2.5226,2.552,2.6107,2.6399,2.6546,2.6838,2.6546,2.6093,2.6399,2.6546,2.6546,0.0,0.0,0.0,2.0174,2.0401,2.0601,2.0668,2.0895,2.1069,2.1109,2.1109,2.1109,2.1109,2.1109,2.1109,2.1109,2.1109,2.1229,2.1537,2.179,2.2217,2.2955,2.3621,2.406,2.4495,2.4916,2.5052,2.5052,2.6501,2.78,2.9248,3.0678,3.211,3.3418,3.3292,3.3292,3.3418,3.3292,3.3292,3.3418,3.3418,3.3418,3.3418,3.3292,3.2237,3.1194,3.2511,3.1982,3.0789,3.0789,3.0401,2.9865,2.8575,2.7916,2.7519,2.6203,0.0,2.5547,2.4224,2.3679,2.3665,2.4858,2.406,2.2859,0.0,0.0,2.2939,2.322,2.3273,2.3354,2.3621,2.3701,2.3728,2.3728,2.3754,2.3861,2.4115,2.4155,2.4249,2.4516,2.4315,2.4262,2.4516,2.4569,2.4596,2.4596,2.4623,2.4636,2.4636,2.4636,2.4636,2.4636,2.4636,2.4636,2.4636,2.4636,2.4636,2.4636,2.4636,2.4636,2.4636,2.4636,2.4636,2.4636,2.5079,2.5667,2.6253,2.6399,2.6546,2.6983,2.6998,2.6983,2.6838,2.6983,2.6983,2.6983,0.0,0.0,0.0,2.0708,2.0708,2.0735,2.0909,2.1029,2.1109,2.1109,2.1109,2.1109,2.1109,2.1109,2.1109,2.1109,2.1109,2.1309,2.1777,2.1924,2.2324,2.3201,2.3746,2.4102,2.4495,2.4916,2.5052,2.5052,2.6501,2.7816,2.9248,3.0678,3.211,3.3418,3.3418,3.3418,3.3418,3.3418,3.3418,3.3418,3.3418,3.3418,3.3418,3.3418,3.3019,3.2638,3.3165,3.2492,0.0,3.1322,3.066,2.9752,2.9248,2.8854,2.846,2.7137,2.6737,0.0,2.4495,2.4474,0.0,0.0,2.3666,2.318,2.3354,2.3394,2.3434,2.3554,2.3581,2.3621,2.3754,2.3915,2.4022,0.0,2.4168,2.4315,2.4436,2.4449,2.4502,2.4623,2.4529,2.4502,2.4623,2.4636,2.4636,2.4636,2.4636,2.4636,2.4636,2.4636,2.4636,2.4636,2.4636,2.4636,2.4636,2.4636,2.4636,2.4636,2.4636,2.4636,2.4636,2.5786,2.6502,2.6939,2.6239,2.6677,2.7955,2.7955,2.8114,2.8259,2.8259,2.7695,2.6983,2.6983,2.6983,2.6983,0.0,0.0,0.0,2.1069,2.0935,2.0869,2.1082,2.1109,2.1109,2.1109,2.1109,2.1109,2.1109,2.1109,2.1109,2.1109,2.1189,2.1443,2.1951,2.2058,2.2459,2.3379,2.3679,2.4088,2.4495,2.4781,2.5187,2.5712,2.7035,2.846,2.977,3.1194,3.2365,3.3418,3.3418,3.3418,3.3418,3.3418,3.3418,3.3418,3.3418,3.3418,3.3418,3.3418,3.3496,3.3594,3.3594,3.2938,3.2022,3.2134,3.1523,3.074,3.074,3.074,3.0478,2.9026,2.836,2.7825,2.6614,0.0,0.0,2.6022,2.5082,2.4456,2.4537,2.4181,2.3924,2.3875,2.3888,2.3915,2.3995,2.4182,2.4329,2.4329,2.4502,2.4636,2.4636,2.4636,2.4636,2.4636,2.4636,2.4636,2.4636,2.4636,2.4636,2.4636,2.4636,2.4636,2.4636,2.4636,2.4636,2.4636,2.4636,2.4636,2.4636,2.5065,2.5212,2.5212,2.5639,2.5918,2.6064,2.7635,2.8644,2.9218,2.8084,2.8243,2.925,2.925,2.8963,2.8532,2.8532,2.7985,2.6983,2.6983,2.6983,2.6983,0.0,0.0,0.0,0.0,2.1096,2.1096,2.1109,2.1109,2.1109,2.1109,2.1109,2.1109,2.1109,2.1109,2.1109,2.1109,2.1376,2.167,2.1964,2.2245,2.2674,2.3393,2.3406,2.3816,2.4495,2.4495,2.5292,2.702,2.846,2.99,3.1322,3.2638,3.3418,3.3418,3.3418,3.3418,3.3418,3.3418,3.3418,3.3418,3.3418,3.3418,3.3418,3.3418,3.3691,3.4062,3.4062,3.4043,3.4121,3.4512,3.4517,3.4517,3.4517,3.4517,0.0,3.2781,3.1425,3.075,3.198,0.0,3.0191,3.1559,2.9373,2.7046,2.6628,2.5397,2.4249,2.4273,2.4195,2.4275,2.4556,2.4623,2.4623,2.4623,2.4623,2.4636,2.4636,2.4636,2.4636,2.4636,2.4636,2.4636,0.0,2.4636,2.4636,2.4636,2.4636,2.4636,2.4636,2.4636,2.4636,2.4636,2.4636,2.4636,2.4636,2.6078,2.6794,2.6794,2.8357,2.9202,2.9631,3.0026,3.0468,3.0768,3.0768,3.0217,2.925,2.925,2.8403,2.7129,2.7129,2.6983,2.6983,2.6983,2.6983,2.6983,0.0,0.0,0.0,0.0,0.0,2.1109,2.1109,2.1109,2.1109,2.1109,2.1109,0.0,0.0,0.0,0.0,0.0,2.139,2.167,2.1964,2.2258,2.2687,2.3393,2.3679,2.3952,2.4495,2.4781,2.5187,2.5712,2.7153,2.8592,2.99,3.1322,3.2511,3.3418,3.3418,3.3418,3.3418,3.3418,3.3418,3.3418,3.3418,3.3418,3.3457,3.375,3.3945,3.4141,0.0,3.4746,3.4512,3.4648,3.4707,3.4707,3.4707,3.4707,3.4425,3.2951,3.2466,3.2205,3.1108,0.0,3.1542,3.084,2.9876,2.897,2.9055,2.8412,2.7891,2.787,2.7757,2.7227,2.6342,2.6078,2.5786,2.4784,2.4636,2.4636,2.4636,2.4636,2.4636,2.4636,2.4636,0.0,0.0,0.0,0.0,2.4636,2.4636,2.4636,2.4636,2.4636,2.5065,2.6078,2.6078,2.6794,2.8053,2.8485,2.8916,2.9186,2.9615,3.0751,3.2036,3.1034,3.1474,3.277,3.1772,3.1632,3.2211,3.2211,3.1367,2.9949,2.9949,2.8835,2.6983,2.6983,2.6983,2.6983,0.0,0.0,0.0,0.0,0.0,0.0,0.0,0.0,0.0,0.0,0.0,0.0,0.0,0.0,0.0,0.0,0.0,2.179,2.1977,2.2485,2.3066,2.3529,2.3816,2.4224,2.4645,2.4781,2.5187,2.5846,2.7153,2.8592,3.003,3.1451,3.2492,3.3418,3.3418,3.3418,3.3418,3.3418,3.3516,3.3652,3.3652,3.375,3.3906,3.418,3.4394,0.0,3.5195,3.5293,3.5176,3.5176,3.5176,3.5176,3.5176,3.5176,3.5023,3.4088,3.4007,3.4003,3.2485,3.302,3.3632,3.2361,3.167,3.1305,3.1405,3.0751,3.0184,3.0042,2.9757,2.9345,2.8357,2.7505,2.6939,2.6488,2.5345,2.4784,2.5359,2.4918,2.4636,2.4636,2.4636,2.4636,0.0,0.0,0.0,2.4636,2.4636,2.4636,2.4636,2.5065,2.5932,2.7085,2.765,2.8629,2.99,3.0468,3.1192,3.1895,3.2036,3.2735,3.4038,3.317,3.3466,3.4471,3.3484,3.3345,3.378,3.378,3.263,3.066,3.066,2.9107,2.6983,2.6983,2.6983,2.6983,0.0,0.0,0.0,0.0,0.0,0.0,0.0,0.0,0.0,0.0,0.0,0.0,0.0,0.0,0.0,0.0,0.0,0.0,2.1991,2.2809,2.3543,2.3966,2.3966,2.4374,2.5052,2.4781,2.5292,2.702,2.846,2.977,3.1176,3.253,3.3204,3.333,3.335,3.3369,3.3496,3.3496,3.373,3.4101,3.4101,3.4336,3.4707,3.4726,3.5019,3.5391,3.541,3.5684,3.6016,3.6016,3.6016,3.6016,3.6016,3.6016,3.6016,3.6016,3.6016,3.6016,3.6016,3.6016,3.6016,3.6016,3.4902,3.3762,3.3448,3.2176,3.1051,3.0593,3.0593,3.0451,0.0,0.0,2.8213,2.9488,2.6925,2.5212,2.6663,2.5653,2.4636,0.0,0.0,0.0,0.0,0.0,0.0,2.4784,0.0,2.4636,2.4784,2.6078,2.723,2.7795,2.9202,3.0184,3.0593,3.2036,3.3466,3.4921,3.5333,3.547,3.5489,3.5879,3.6016,3.6016,3.6016,3.5177,3.3918,3.3762,3.207,2.925,2.925,2.8259,2.6983,2.6983,2.6983,2.6983,0.0,0.0,0.0,0.0,0.0,0.0,0.0,0.0,0.0,0.0,0.0,0.0,0.0,0.0,0.0,0.0,0.0,0.0,2.1991,2.2674,2.327,2.3952,2.3966,2.4374,2.5052,2.5052,2.5187,2.5577,2.702,2.78,2.8196,2.9934,3.1276,3.2339,3.2637,3.3293,3.4375,3.4375,3.4434,3.4531,3.4531,3.4609,3.4746,3.5078,3.5293,3.543,3.5742,3.5937,3.6016,3.6016,3.6016,3.6016,3.6016,3.6016,3.6016,3.6016,3.6016,3.6016,3.6016,3.6016,3.6016,3.6016,3.5743,3.5451,3.5314,3.4746,3.4333,3.4176,3.39,3.3327,0.0,0.0,0.0,2.8357,2.707,0.0,2.5359,2.5786,0.0,2.4784,0.0,2.5786,2.4784,2.4636,0.0,0.0,2.5212,2.5212,2.6648,2.707,2.8501,3.1192,3.1614,3.2613,3.4176,3.4746,3.5314,3.5743,3.5879,3.5879,3.5879,3.6016,3.6016,3.6016,3.6016,3.5743,3.5314,3.4195,3.2648,3.0801,2.9663,2.8259,2.6983,2.6983,2.6983,2.6983,0.0,0.0,0.0,0.0,0.0,0.0,0.0,0.0,0.0,0.0,0.0,0.0,0.0,0.0,0.0,0.0,0.0,0.0,0.0,2.2674,2.327,2.3679,2.4102,2.4374,2.4645,2.4916,2.5125,2.512,2.6429,2.7232,2.7375,2.876,3.0232,3.1689,3.1909,3.2805,3.4141,3.4141,3.4355,0.0,0.0,3.4941,3.5312,3.5566,3.5664,3.5703,3.5937,3.6016,3.6016,3.6016,3.6016,3.6016,3.6016,3.6016,3.6016,3.6016,3.6016,3.6016,3.6016,3.6016,3.6016,3.6016,3.6016,3.6016,3.6016,3.5879,3.5743,3.5743,3.547,0.0,3.4314,3.3188,0.0,0.0,0.0,0.0,2.765,2.723,2.6794,0.0,2.6794,0.0,2.6634,2.6634,2.6925,0.0,2.6502,2.6225,2.736,2.8788,3.0201,3.1755,3.3188,3.4471,3.5743,3.5879,3.6016,3.6016,3.6016,3.6016,3.6016,3.6016,3.6016,3.6016,0.0,3.5606,3.504,3.4195,3.2491,3.0376,2.952,2.8259,2.6983,2.6983,2.6983,2.6983,0.0,0.0,0.0,0.0,0.0,0.0,0.0,0.0,0.0,0.0,2.1109,2.1109,0.0,0.0,0.0,0.0,0.0,0.0,0.0,0.0,2.3406,2.3406,2.3952,2.4224,2.3966,2.4645,2.5047,2.4911,2.6237,2.7044,2.7343,2.8395,2.9709,3.1138,3.1322,3.226,3.3594,3.3594,3.4023,3.4707,3.4707,3.5195,3.5937,0.0,3.5976,3.6016,3.6016,3.6016,3.6016,3.6016,3.6016,3.6016,3.6016,3.6016,3.6016,3.6016,3.6016,3.6016,3.6016,3.6016,3.6016,3.6016,3.6016,3.6016,3.6016,3.6016,3.6016,3.6016,0.0,3.6016,3.6016,3.4314,3.3327,3.449,0.0,3.0058,3.1067,2.9218,2.8068,2.9202,2.8357,2.8068,2.9202,2.9345,2.9345,2.9631,2.8357,2.7795,2.8213,3.0785,3.2053,3.1614,3.4195,3.5762,3.6016,3.6016,3.6016,3.6016,3.6016,3.6016,3.6016,3.6016,3.6016,3.6016,3.5743,0.0,3.378,3.3345,3.1649,2.925,2.8963,2.8114,2.6983,2.6983,2.6983,2.6983,0.0,0.0,0.0,0.0,0.0,0.0,0.0,0.0,0.0,0.0,2.1109,2.1109,0.0,0.0,0.0,0.0,0.0,0.0,0.0,0.0,0.0,2.3406,2.3543,2.3679,2.3952,2.4374,2.4674,2.4581,2.5202,2.5487,2.5546,2.7082,2.8642,3.0258,3.1637,3.3124,3.4473,3.4473,3.457,3.4707,3.4707,3.5019,3.5508,3.5508,0.0,0.0,3.6016,3.6016,3.6016,3.6016,3.6016,3.6016,3.6016,3.6016,3.6016,3.6016,3.6016,3.6016,3.6016,3.6016,3.6016,3.6016,3.6016,3.6016,3.6016,3.6016,0.0,0.0,3.6016,3.6016,3.6016,3.547,3.4609,3.3188,3.2473,3.1614,3.0343,3.0909,3.1192,0.0,3.0768,3.0909,3.0168,0.0,0.0,0.0,0.0,3.1614,3.1755,3.2613,3.3605,3.5021,3.5606,3.5879,3.6016,3.6016,3.6016,3.6016,3.6016,3.6016,3.6016,3.6016,3.6016,3.5879,3.4746,0.0,3.3623,3.1084,2.9663,2.9107,2.784,2.7274,2.6983,2.6983,2.6983,2.6983,0.0,0.0,0.0,0.0,0.0,0.0,0.0,2.1109,2.1109,2.1109,2.1109,2.1109,2.1109,2.1109,2.1109,0.0,0.0,0.0,0.0,0.0,0.0,0.0,2.327,2.3406,2.3406,2.3952,2.4172,2.419,0.0,2.4868,2.5027,2.5952,2.7407,2.9539,3.0373,3.204,3.4043,3.4043,3.416,3.4375,3.4375,3.4648,3.5059,0.0,0.0,0.0,0.0,3.6016,3.6016,3.6016,3.6016,3.6016,3.6016,3.6016,3.6016,3.6016,3.6016,3.6016,3.6016,3.6016,3.6016,3.6016,3.6016,3.6016,3.6016,0.0,0.0,0.0,3.6016,3.6016,3.6016,3.5743,0.0,3.4333,3.39,3.3484,3.2613,3.2473,3.2613,3.2752,3.2473,3.2473,0.0,3.2613,3.277,3.3762,0.0,3.3762,3.291,3.3327,3.4314,3.5879,3.6016,3.6016,3.6016,3.6016,3.6016,3.6016,3.6016,3.6016,3.6016,3.6016,3.6016,3.5879,3.4471,0.0,3.2491,3.0091,2.8676,2.797,2.7274,2.6983,2.6983,2.6983,2.6983,2.6983,0.0,0.0,0.0,0.0,0.0,0.0,2.1109,2.1109,2.1109,2.1109,2.1109,2.1109,2.1109,2.1109,2.1109,0.0,0.0,0.0,0.0,0.0,0.0,0.0,0.0,0.0,0.0,0.0,0.0,2.3762,2.4215,0.0,0.0,0.0,0.0,0.0,2.9117,3.0549,3.2892,3.2892,3.3359,0.0,0.0,3.418,0.0,0.0,0.0,0.0,0.0,3.5937,3.6016,3.6016,3.6016,3.6016,3.6016,3.6016,3.6016,3.6016,3.6016,3.6016,3.6016,3.6016,3.6016,3.6016,3.6016,3.6016,3.6016,3.6016,0.0,3.6016,3.6016,3.6016,3.6016,3.5743,3.5606,0.0,3.5333,3.5059,3.5059,3.4038,3.3743,0.0,3.4038,0.0,3.5059,3.5059,0.0,3.5196,3.547,3.5059,3.3918,3.4057,3.4746,3.6016,3.6016,3.6016,3.6016,3.6016,3.6016,3.6016,3.6016,3.6016,3.6016,3.5743,3.547,3.5451,3.3623,0.0,0.0,2.9393,2.8114,2.6983,2.6983,2.6983,2.6983,2.6983,2.6983,2.6838,0.0,0.0,0.0,0.0,0.0,0.0,2.1109,2.1109,2.1109,2.1109,2.1109,2.1109,2.1109,2.1109,2.1109,0.0,0.0,0.0,0.0,0.0,0.0,0.0,0.0,0.0,0.0,0.0,0.0,2.3447,2.383,0.0,0.0,0.0,0.0,0.0,0.0,3.003,3.1451,3.1451,0.0,0.0,0.0,0.0,0.0,0.0,0.0,0.0,0.0,3.5703,3.6016,3.6016,3.6016,3.6016,3.6016,3.6016,3.6016,3.6016,0.0,0.0,3.6016,3.6016,3.6016,3.6016,3.6016,3.6016,3.6016,0.0,3.6016,3.6016,3.6016,3.6016,3.6016,3.6016,0.0,0.0,0.0,3.5743,3.547,3.5606,3.5743,3.5879,0.0,0.0,3.5879,3.5606,3.5606,3.5879,3.5879,3.5879,3.5743,3.5743,3.5879,3.6016,3.6016,3.6016,3.6016,3.6016,3.6016,3.6016,3.6016,3.6016,3.6016,3.4609,3.4057,3.378,3.0943,0.0,0.0,2.784,2.7129,2.6983,2.6983,2.6983,2.6983,2.6983,2.6838,2.6399,0.0,0.0,0.0,0.0,0.0,0.0,2.1109,2.1109,2.1109,2.1109,2.1109,2.1109,2.1109,2.1109,2.1109,2.1109,0.0,0.0,0.0,0.0,0.0,0.0,0.0,0.0,0.0,0.0,2.3133,2.3133,2.3406,0.0,0.0,0.0,0.0,0.0,0.0,2.8723,3.016,3.0936,0.0,0.0,0.0,0.0,0.0,0.0,0.0,0.0,0.0,0.0,3.6016,3.6016,3.6016,3.6016,3.6016,3.6016,3.6016,3.6016,3.6016,3.6016,3.6016,3.6016,3.6016,3.6016,3.6016,3.6016,3.6016,0.0,3.6016,3.6016,3.6016,3.6016,3.6016,3.6016,3.6016,3.5879,3.5879,3.5879,3.5879,3.5879,3.6016,3.6016,3.5879,0.0,0.0,0.0,3.5879,3.6016,3.6016,3.6016,3.6016,3.6016,3.6016,3.6016,3.6016,3.6016,3.6016,3.6016,3.6016,3.6016,3.6016,3.6016,3.6016,3.5451,3.5177,3.4902,3.193,0.0,0.0,2.7985,2.6983,2.6983,2.6983,2.6838,2.6692,2.6692,2.6399,2.5946,0.0,0.0,0.0,0.0,0.0,2.1109,2.1109,2.1109,2.1109,2.1109,2.1109,2.1109,2.1109,2.1109,2.1109,2.1109,2.1296,0.0,0.0,0.0,0.0,0.0,0.0,0.0,0.0,0.0,2.2859,2.2859,2.3133,2.327,0.0,0.0,0.0,0.0,0.0,0.0,0.0,0.0,0.0,0.0,0.0,0.0,0.0,0.0,0.0,0.0,0.0,0.0,0.0,0.0,0.0,3.6016,3.6016,3.6016,3.6016,3.6016,3.6016,3.6016,3.6016,3.6016,3.6016,3.6016,3.6016,3.6016,0.0,0.0,3.6016,3.6016,3.6016,3.6016,3.6016,3.6016,3.6016,3.6016,3.6016,3.6016,3.6016,3.6016,3.6016,3.6016,0.0,3.6016,0.0,3.6016,3.6016,3.6016,3.6016,3.6016,3.6016,3.6016,3.6016,3.6016,3.6016,3.6016,3.6016,3.6016,3.6016,3.6016,3.6016,3.6016,3.6016,3.5606,3.504,3.4471,3.193,0.0,0.0,2.784,2.6983,2.6838,2.6838,2.6546,2.6239,2.6239,2.5946,2.5506,0.0,0.0,0.0,0.0,0.0,2.1109,2.1109,2.1109,2.1109,2.1109,2.1109,2.1109,2.1109,2.1109,2.1109,2.1109,2.1109,0.0,0.0,0.0,0.0,0.0,0.0,0.0,0.0,0.0,2.2859,2.2859,2.2859,2.3133,2.3406,2.3816,2.4224,2.4495,0.0,0.0,0.0,0.0,0.0,0.0,0.0,0.0,0.0,0.0,0.0,0.0,0.0,0.0,0.0,0.0,0.0,0.0,0.0,3.6016,3.6016,3.6016,3.6016,3.6016,3.6016,3.6016,3.6016,3.6016,3.6016,3.6016,0.0,3.6016,3.6016,3.6016,3.6016,3.6016,3.6016,3.6016,3.6016,3.6016,3.6016,3.6016,3.6016,3.6016,3.6016,0.0,0.0,3.6016,3.6016,3.6016,3.6016,3.6016,3.6016,0.0,3.6016,3.6016,3.6016,3.6016,3.6016,3.6016,3.6016,3.6016,3.6016,3.6016,3.6016,3.6016,3.6016,3.4471,3.2927,3.1508,0.0,0.0,0.0,2.6983,2.6838,2.6399,2.6399,2.6093,2.58,2.58,2.5506,2.5239,0.0,0.0,0.0,0.0,0.0,0.0,2.1109,2.1109,2.1109,2.1109,2.1109,2.1109,2.1109,2.1109,2.1109,2.1109,2.1109,0.0,0.0,0.0,0.0,0.0,0.0,0.0,0.0,0.0,2.2859,2.2859,2.2859,2.2996,2.3133,2.3406,2.3816,2.4224,2.451,0.0,0.0,0.0,0.0,0.0,0.0,0.0,0.0,0.0,0.0,0.0,0.0,0.0,0.0,0.0,0.0,0.0,0.0,0.0,0.0,3.6016,3.6016,3.6016,3.6016,3.6016,3.6016,3.6016,3.6016,3.6016,3.6016,3.6016,3.6016,3.6016,3.6016,3.6016,3.6016,3.6016,3.6016,3.6016,3.6016,3.6016,3.6016,0.0,0.0,3.6016,3.6016,3.6016,0.0,0.0,3.6016,3.6016,3.6016,3.6016,3.6016,3.6016,3.6016,3.6016,3.6016,3.6016,3.6016,3.6016,3.6016,3.6016,3.6016,3.6016,3.6016,3.5451,3.4471,0.0,0.0,0.0,0.0,2.7114,2.6546,2.6399,2.6093,2.58,2.5373,2.5373,2.5079,2.4784,0.0,0.0,0.0,0.0,0.0,0.0,2.1109,2.1109,2.1109,2.1109,2.1109,2.1109,2.1109,2.1109,2.1109,2.1109,2.1109,0.0,0.0,0.0,0.0,0.0,0.0,0.0,2.2859,2.2859,2.2859,2.2859,2.2859,2.2859,2.2859,2.327,2.3543,2.3816,2.4088,2.451,0.0,0.0,0.0,0.0,0.0,0.0,3.3418,0.0,0.0,0.0,0.0,0.0,0.0,0.0,0.0,0.0,0.0,0.0,0.0,0.0,3.6016,3.6016,3.6016,3.6016,3.6016,3.6016,3.6016,3.6016,3.6016,3.6016,3.6016,3.6016,3.6016,3.6016,3.6016,3.6016,3.6016,3.6016,3.6016,3.6016,0.0,0.0,0.0,3.6016,0.0,0.0,0.0,3.6016,3.6016,3.6016,3.6016,3.6016,3.6016,3.6016,3.6016,3.6016,3.6016,3.6016,3.6016,3.6016,3.6016,3.6016,3.6016,3.6016,3.6016,3.5451,3.4333,0.0,0.0,0.0,0.0,2.6677,2.6093,2.596,2.5653,2.5373,2.4931,2.4931,2.4784,2.4636,0.0,0.0,0.0,0.0,0.0,0.0,0.0,2.1109,2.1109,2.1109,2.1109,2.1109,2.1109,2.1109,2.1109,2.1109,2.1109,0.0,0.0,0.0,0.0,0.0,0.0,0.0,2.2819,2.2846,2.2859,2.2859,2.2859,2.2859,2.2859,2.327,2.3406,2.3406,2.3816,2.4088,0.0,0.0,0.0,0.0,3.0531,3.1963,0.0,0.0,0.0,0.0,0.0,0.0,0.0,0.0,0.0,0.0,0.0,0.0,0.0,0.0,0.0,0.0,0.0,3.6016,3.6016,3.6016,3.6016,3.6016,3.6016,3.6016,0.0,3.6016,3.6016,3.6016,3.6016,3.6016,3.6016,3.6016,0.0,0.0,0.0,3.6016,0.0,0.0,3.6016,0.0,3.6016,3.6016,3.6016,3.6016,3.6016,3.6016,3.6016,3.6016,3.6016,3.6016,3.6016,3.6016,3.6016,3.6016,3.6016,3.6016,3.5879,3.5879,3.5743,3.4333,3.2788,0.0,0.0,0.0,0.0,2.5946,2.5506,2.5226,2.5226,2.4931,2.4636,2.4636,2.4636,2.4636,0.0,0.0,0.0,0.0,0.0,0.0,0.0,0.0,0.0,0.0,2.1109,2.1109,2.1109,2.1109,2.1109,0.0,0.0,0.0,0.0,0.0,0.0,0.0,0.0,0.0,2.2525,2.2752,2.2859,2.2859,2.2859,2.2859,2.2859,2.2996,2.3133,2.3406,2.3543,2.3952,0.0,0.0,0.0,0.0,2.9117,3.0549,0.0,0.0,0.0,0.0,3.3926,3.4336,0.0,0.0,0.0,0.0,0.0,0.0,0.0,0.0,3.6016,3.6016,3.6016,0.0,3.6016,3.6016,3.6016,3.6016,0.0,3.6016,3.6016,3.6016,0.0,3.6016,3.6016,3.6016,3.6016,0.0,0.0,3.6016,3.6016,0.0,0.0,3.6016,3.6016,3.6016,3.6016,3.6016,3.6016,3.6016,3.6016,3.6016,3.6016,3.6016,3.6016,3.6016,3.6016,3.6016,3.6016,3.6016,3.6016,3.6016,3.4902,3.4333,3.4333,3.2788,3.1084,0.0,0.0,0.0,2.5946,2.552,2.5226,2.5226,2.4931,2.4636,2.4636,2.4636,2.4636,2.4636,0.0,0.0,0.0,0.0,0.0,0.0,0.0,0.0,0.0,0.0,2.1109,2.1109,2.1109,2.1109,2.1109,0.0,0.0,0.0,0.0,0.0,0.0,0.0,0.0,2.2285,2.2418,2.2712,2.2859,2.2859,2.2859,2.2859,2.2859,2.2859,2.2996,2.3133,2.3543,2.3952,0.0,0.0,0.0,0.0,2.8854,0.0,0.0,0.0,0.0,0.0,3.3691,3.418,0.0,3.498,3.5488,3.6016,0.0,0.0,0.0,0.0,3.6016,3.6016,3.6016,3.6016,3.6016,3.6016,3.6016,3.6016,3.6016,3.6016,3.6016,3.6016,3.6016,3.6016,3.6016,3.6016,3.6016,0.0,3.6016,0.0,0.0,0.0,3.6016,3.6016,3.6016,3.6016,0.0,0.0,3.6016,3.6016,3.6016,3.6016,3.6016,3.6016,3.6016,3.6016,3.6016,3.6016,3.6016,3.6016,3.6016,3.6016,3.4471,3.378,3.3762,3.1508,2.9806,0.0,0.0,0.0,2.552,2.5079,2.4931,2.4931,2.4636,2.4636,2.4636,2.4636,2.4636,2.4636,0.0,0.0,0.0,0.0,0.0,0.0,0.0,0.0,0.0,0.0,0.0,0.0,0.0,0.0,0.0,0.0,0.0,0.0,0.0,0.0,0.0,0.0,2.1804,2.2098,2.2352,2.2686,2.2859,2.2859,2.2859,2.2859,2.2859,2.2859,2.2859,2.2859,2.3543,2.4088,0.0,0.0,0.0,0.0,2.8986,0.0,0.0,0.0,0.0,0.0,0.0,0.0,0.0,3.4707,3.5293,3.6016,3.6016,0.0,0.0,0.0,0.0,0.0,3.6016,3.6016,3.6016,3.6016,3.6016,3.6016,3.6016,3.6016,3.6016,3.6016,3.6016,3.6016,3.6016,3.6016,0.0,0.0,0.0,0.0,3.6016,3.6016,3.6016,3.6016,3.6016,0.0,3.6016,3.6016,3.6016,3.6016,3.6016,3.6016,3.6016,3.6016,3.6016,3.6016,3.6016,3.6016,3.6016,3.6016,3.5879,3.5606,3.4195,3.3345,3.3067,3.0091,2.8532,2.8228,0.0,0.0,2.5079,2.4784,2.4636,2.4636,2.4636,2.4636,2.4636,2.4636,2.4636,2.4636,0.0,0.0,0.0,0.0,0.0,0.0,0.0,0.0,0.0,0.0,0.0,0.0,0.0,0.0,0.0,0.0,0.0,0.0,0.0,0.0,0.0,2.1176,2.1697,2.2004,2.2044,2.2579,2.2859,2.2859,2.2859,2.2859,2.2859,2.2859,2.2859,2.2859,2.327,2.3679,2.4088,0.0,0.0,2.5981,2.8213,0.0,0.0,0.0,0.0,0.0,0.0,0.0,0.0,3.4707,3.5293,3.6016,3.6016,0.0,0.0,0.0,0.0,0.0,3.6016,3.6016,3.6016,3.6016,3.6016,3.6016,3.6016,3.6016,3.6016,3.6016,3.6016,3.6016,3.6016,3.6016,3.6016,0.0,0.0,3.6016,0.0,0.0,3.6016,3.6016,0.0,3.6016,3.6016,3.6016,3.6016,3.6016,3.6016,3.6016,3.6016,3.6016,3.6016,3.6016,3.6016,3.6016,3.6016,3.6016,3.5314,3.4057,3.263,3.1226,2.9806,2.7825,2.6677,2.6225,0.0,2.5079,2.4636,2.4636,2.4636,2.4636,2.4636,2.4636,2.4636,2.4636,2.4636,2.4636,0.0,0.0,0.0,0.0,0.0,0.0,0.0,0.0,0.0,0.0,0.0,0.0,0.0,0.0,0.0,0.0,0.0,0.0,0.0,0.0,2.1109,2.1109,2.167,2.1991,2.1991,2.2565,2.2859,2.2859,2.2859,2.2859,2.2859,2.2859,2.2996,2.3133,2.327,2.3679,2.3952,2.4374,2.5427,2.7153,0.0,0.0,0.0,0.0,0.0,0.0,0.0,0.0,0.0,0.0,3.5488,3.6016,3.6016,0.0,0.0,0.0,0.0,0.0,3.6016,3.6016,3.6016,3.6016,3.6016,3.6016,3.6016,3.6016,3.6016,3.6016,3.6016,3.6016,3.6016,0.0,3.6016,3.6016,0.0,3.6016,3.6016,3.6016,3.6016,0.0,0.0,3.6016,3.6016,3.6016,3.6016,3.6016,3.6016,3.6016,3.6016,3.6016,3.6016,3.6016,3.6016,3.6016,3.6016,3.6016,3.5606,3.4902,3.1789,3.0376,3.0376,2.768,2.6239,2.58,0.0,2.4931,2.4636,2.4636,2.4636,2.4636,2.4636,2.4636,2.4636,2.4636,2.4636,2.4636,0.0,0.0,0.0,0.0,0.0,0.0,0.0,0.0,0.0,0.0,0.0,0.0,0.0,0.0,0.0,0.0,0.0,0.0,0.0,2.1109,2.1136,2.1203,2.171,2.1991,2.1991,2.2565,2.2859,2.2859,2.2859,2.2859,2.2859,2.2859,2.2996,2.327,2.3406,2.3543,2.3816,2.436,2.595,2.8312,0.0,0.0,0.0,0.0,0.0,0.0,0.0,0.0,0.0,0.0,0.0,0.0,0.0,0.0,0.0,3.6016,3.6016,3.6016,3.6016,3.6016,3.6016,3.6016,3.6016,3.6016,3.6016,3.6016,3.6016,0.0,0.0,0.0,0.0,3.6016,0.0,3.6016,3.6016,3.6016,3.6016,0.0,0.0,0.0,0.0,3.6016,3.6016,3.6016,3.6055,3.6172,3.6172,3.6211,3.6309,3.623,3.6172,3.6172,3.6074,3.6016,3.6016,3.5606,3.5451,3.5451,3.1649,3.0233,3.0801,2.7665,2.6093,2.58,2.5226,2.4931,2.4636,2.4636,2.4636,2.4636,2.4636,2.4636,2.4636,2.4636,2.4636,2.4636,0.0,0.0,0.0,0.0,0.0,0.0,0.0,0.0,0.0,0.0,0.0,0.0,0.0,0.0,0.0,0.0,0.0,0.0,0.0,2.1109,2.1229,2.151,2.1817,2.1991,2.1991,2.2565,2.2859,2.2859,2.2859,2.2859,2.2859,2.2859,2.2859,2.2996,2.327,2.3406,2.3543,2.4224,2.5427,2.6871,2.8592,0.0,0.0,0.0,0.0,0.0,0.0,0.0,0.0,0.0,0.0,0.0,0.0,0.0,3.6016,3.6016,3.6016,3.6016,3.6016,3.6016,3.6016,3.6016,3.6016,3.6016,3.6016,3.6016,0.0,3.6016,0.0,0.0,0.0,3.6016,3.6016,3.6016,3.6016,3.6016,3.6016,0.0,3.6016,3.6016,3.6016,3.6016,3.6016,3.6016,3.6191,3.6601,3.6621,3.6797,3.7187,3.6836,3.6621,3.6621,3.623,3.6016,3.6016,3.4609,3.3918,3.3918,3.2211,3.066,2.925,2.6954,2.58,2.58,2.4918,2.4636,2.4636,2.4636,2.4636,2.4636,2.4636,2.4636,2.4636,2.4636,2.4636,2.4488,0.0,0.0,0.0,0.0,0.0,0.0,0.0,0.0,0.0,0.0,0.0,0.0,0.0,0.0,0.0,0.0,0.0,0.0,0.0,2.1109,2.1243,2.1537,2.183,2.2071,2.2258,2.2659,2.2859,2.2859,2.2859,2.2859,2.2859,2.2859,2.2859,2.2859,2.2996,2.3133,2.3133,2.3816,2.5547,2.7652,2.8723,3.0549,0.0,0.0,0.0,0.0,0.0,0.0,0.0,0.0,3.5879,3.6016,3.6016,3.6016,3.6016,3.6016,3.6016,3.6016,3.6016,3.6016,3.6016,3.6016,3.6016,0.0,0.0,3.6016,3.6016,3.6016,3.6016,0.0,0.0,0.0,3.6016,3.6016,3.6016,3.6016,3.6016,3.6016,3.6016,3.6016,3.6016,3.6133,3.6406,3.6426,3.6601,3.7031,3.7051,3.7129,3.7285,3.7148,3.6934,3.668,3.5635,3.4872,3.4609,3.3067,3.2351,3.2351,3.0801,2.9663,2.8804,2.6808,2.5653,2.5373,2.4784,2.4636,2.4636,2.4636,2.4636,2.4636,2.4636,2.4636,2.4636,2.4636,2.4636,2.4488,0.0,0.0,0.0,0.0,0.0,0.0,0.0,0.0,0.0,0.0,0.0,0.0,0.0,0.0,0.0,0.0,0.0,0.0,2.1109,2.1203,2.1376,2.167,2.1964,2.2258,2.2552,2.2752,2.2859,2.2859,2.2859,2.2859,2.2859,2.2859,2.2859,2.2859,2.2859,2.2859,2.2996,2.3679,2.5278,2.7503,2.8723,3.0549,0.0,0.0,0.0,0.0,0.0,0.0,0.0,0.0,3.6016,3.6016,3.6016,3.6016,3.6016,3.6016,3.6016,3.6016,3.6016,3.6016,3.6016,3.6016,3.6016,0.0,3.6016,3.6016,3.6016,3.6016,3.6016,3.6016,3.6016,0.0,0.0,0.0,3.6016,3.6016,3.6016,3.6016,3.6016,3.6016,3.6152,3.6191,3.5927,3.6499,3.6891,3.6732,3.677,3.6828,3.6962,3.6399,3.5905,3.5623,3.4353,3.3516,3.3247,3.2123,3.1226,3.0801,2.9663,2.8947,2.866,2.6663,2.5506,2.5239,2.4784,2.4636,2.4636,2.4636,2.4636,2.4636,2.4636,2.4636,2.4636,2.4636,2.4488,2.4341,0.0,0.0,0.0,0.0,0.0,0.0,0.0,0.0,2.1109,2.1109,2.1109,0.0,0.0,0.0,0.0,0.0,0.0,0.0,2.1109,2.139,2.1683,2.1977,2.2258,2.2565,2.2859,2.2859,2.2859,2.2859,2.2859,2.2859,2.2859,2.2859,2.2859,2.2859,2.2859,2.2859,2.2996,2.3679,2.4617,2.5786,2.8196,2.99,3.1083,0.0,0.0,0.0,0.0,0.0,0.0,0.0,3.6016,3.6016,3.6016,3.6016,3.6016,3.6016,3.6016,3.6016,3.6016,3.6016,3.6016,3.6016,3.6016,0.0,3.6016,3.6016,3.6016,3.6016,3.6016,3.6016,3.6016,0.0,0.0,3.6016,3.6016,3.6016,3.6016,3.6016,3.6016,3.6016,3.6406,3.5946,3.4367,3.6028,3.6751,3.554,3.5413,3.5742,3.6146,3.4285,3.3055,3.3037,3.2321,3.1929,3.1929,3.1696,3.066,2.9091,2.8804,2.866,2.866,2.6663,2.5506,2.5226,2.4784,2.4636,2.4636,2.4636,2.4636,2.4636,2.4636,2.4636,2.4636,2.4636,2.4341,2.3896,0.0,0.0,0.0,0.0,0.0,0.0,0.0,0.0,2.1109,2.1109,2.1109,0.0,0.0,0.0,0.0,0.0,0.0,0.0,2.1403,2.151,2.1777,2.2271,2.2378,2.2565,2.2859,2.2859,2.2859,2.2859,2.2859,2.2859,2.2859,2.2859,2.2859,2.2859,2.2859,2.2859,2.2859,2.3406,2.4331,2.5667,2.7122,2.9093,3.1389,0.0,0.0,0.0,0.0,0.0,0.0,0.0,0.0,0.0,3.6016,3.6016,3.6016,3.6016,3.6016,3.6016,3.6016,3.6016,3.6016,3.6016,3.6016,0.0,0.0,3.6016,0.0,0.0,3.6016,3.5743,3.4609,0.0,0.0,0.0,0.0,3.277,3.277,3.277,3.2877,3.3162,3.3287,3.3429,3.3395,3.3992,3.4368,3.4294,3.4179,3.4232,3.4486,3.3782,3.346,3.3055,3.1695,3.0746,3.0357,2.8702,2.768,2.7245,2.6808,2.6648,2.6663,2.58,2.5226,2.4784,2.4636,2.4636,2.4636,2.4636,2.4636,2.4636,2.4636,2.4636,2.4636,2.4341,2.4044,2.3896,0.0,0.0,0.0,0.0,0.0,0.0,0.0,0.0,2.1109,2.1109,2.1109,2.1109,0.0,0.0,0.0,0.0,0.0,0.0,0.0,2.1764,2.2058,2.2405,2.2539,2.2672,2.2859,2.2859,2.2859,2.2859,2.2859,2.2859,2.2859,2.2859,2.2859,2.2859,2.2859,2.2859,2.2873,2.3392,2.3983,2.4818,2.718,2.9075,3.0723,0.0,0.0,0.0,0.0,0.0,0.0,0.0,0.0,0.0,3.6016,3.6016,3.6016,3.6016,3.6016,3.6016,3.6016,3.6016,3.6016,3.6016,3.6016,3.6016,3.6016,0.0,0.0,0.0,3.6016,3.5606,3.4057,3.378,0.0,3.1789,3.1508,3.1508,3.1508,3.1645,3.1816,3.2056,3.2185,3.2397,3.211,3.2875,3.3194,3.2826,3.269,3.269,3.269,3.2081,3.1678,3.1469,2.9953,2.9015,2.8816,2.7041,2.6093,2.6093,2.58,2.5506,2.5506,2.5373,2.4931,2.4636,2.4636,2.4636,2.4636,2.4636,2.4636,2.4636,2.4488,2.4341,2.4341,2.3896,2.3748,2.3451,0.0,0.0,2.1109,2.1109,0.0,0.0,0.0,0.0,2.1109,2.1109,2.1109,2.1109,0.0,0.0,0.0,0.0,0.0,0.0,0.0,2.2124,2.2432,2.2458,2.2712,2.2859,2.2859,2.2859,2.2859,2.2859,2.2859,2.2859,2.2859,2.2859,2.2859,2.2859,2.2859,2.2873,2.2926,2.361,2.3606,2.366,2.7937,2.9303,2.9456,3.3606,0.0,0.0,0.0,0.0,0.0,0.0,0.0,0.0,3.6016,3.6016,3.6016,3.6016,3.6016,3.6016,3.6016,3.6016,3.6016,3.6016,3.6016,3.6016,3.5879,3.5743,3.5879,3.6016,0.0,3.5314,3.39,3.3484,3.2927,3.1367,3.1084,3.1101,3.1135,3.1422,3.1676,3.1743,3.2187,3.216,3.0719,3.2205,3.269,3.1178,3.1024,3.1024,3.1024,2.9649,2.8886,2.8886,2.7841,2.7373,2.7344,2.6284,2.5828,2.58,2.5373,2.5092,2.5092,2.5092,2.4931,2.4636,2.4636,2.4636,2.4636,2.4636,2.4636,2.4488,2.4193,2.4044,2.3896,2.3438,2.3154,2.2856,0.0,0.0,2.1109,2.1109,0.0,0.0,0.0,0.0,0.0,2.1109,0.0,0.0,0.0,0.0,0.0,0.0,0.0,0.0,0.0,2.2352,2.2525,2.2752,2.2832,2.2859,2.2859,2.2859,2.2859,2.2859,2.2859,2.2859,2.2859,2.2859,2.2859,2.2859,2.2859,2.2993,2.3233,2.3426,2.3601,2.3971,2.6899,2.785,2.7881,3.2069,3.3495,0.0,0.0,0.0,0.0,0.0,0.0,0.0,3.6016,3.6016,3.6016,3.6016,3.6016,3.6016,3.6016,3.6016,3.6016,3.6016,3.6016,3.5743,3.4471,3.4333,3.4609,3.5743,3.504,3.3762,3.2211,3.0943,2.9663,2.8259,2.7985,2.8076,2.8334,2.844,2.8683,2.9049,2.9245,2.9426,2.9374,2.9604,2.9804,2.9508,2.9353,2.9353,2.9353,2.8744,2.8588,2.8886,2.7903,2.7282,2.7344,2.621,2.5607,2.5373,2.4931,2.4784,2.4784,2.4784,2.4636,2.4636,2.4636,2.4636,2.4636,2.4636,2.4636,2.4488,2.4193,2.4044,2.3896,2.3302,2.3005,2.2856,0.0,0.0,0.0,0.0,0.0,0.0,0.0,0.0,0.0,0.0,0.0,0.0,0.0,0.0,0.0,0.0,0.0,0.0,0.0,0.0,2.2699,2.2859,2.2859,2.2859,2.2859,2.2859,2.2859,2.2859,2.2859,2.2859,2.2859,2.2859,2.2859,2.2873,2.302,2.318,2.334,2.3621,2.3834,2.4139,2.6544,2.738,2.7666,3.1405,3.2752,3.2752,3.3918,0.0,0.0,0.0,0.0,0.0,0.0,0.0,3.6016,3.6016,3.6016,3.6016,3.6016,3.5451,3.4746,3.4038,3.39,3.3623,3.291,3.2648,3.2927,3.3623,3.3206,3.2211,3.066,2.9806,2.8676,2.7274,2.7115,2.7276,2.7452,2.7744,2.8066,2.8403,2.8564,2.871,2.8871,2.8886,2.8886,2.8886,2.8744,2.8744,2.8886,2.8275,2.8118,2.8588,2.7509,2.6892,2.6738,2.5828,2.5229,2.4931,2.4636,2.4636,2.4636,2.4636,2.4636,2.4636,2.4636,2.4636,2.4636,2.4636,2.4488,2.4341,2.3883,2.3587,2.3451,2.2856,2.2558,2.2558,0.0,0.0,0.0,0.0,0.0,0.0,0.0,0.0,0.0,0.0,0.0,0.0,0.0,0.0,0.0,0.0,0.0,0.0,0.0,0.0,0.0,2.2859,2.2859,2.2859,2.2859,2.2859,2.2859,2.2859,2.2859,2.2859,2.2859,2.2859,2.2886,2.2953,2.3207,2.338,2.3514,2.3995,2.4235,2.4434,2.6677,2.736,2.736,0.0,0.0,0.0,3.277,3.3918,3.4902,3.4057,0.0,0.0,0.0,0.0,3.5177,3.5177,3.5177,3.5177,3.5177,3.4333,3.3067,3.1789,3.1508,3.1367,3.1226,3.1084,3.1084,3.0801,3.0943,3.066,2.9377,2.8963,2.8418,2.7203,2.7305,2.7525,2.7627,2.8095,2.8461,2.8505,2.8739,2.8886,2.8886,2.8886,2.8886,2.873,2.8431,2.8431,2.873,2.7947,2.7647,2.8118,2.7042,2.6443,2.6129,2.5375,2.493,2.4636,2.4636,2.4636,2.4636,2.4636,2.4636,2.4636,2.4636,2.4636,2.4636,2.4488,2.4341,2.3896,2.3438,2.3154,2.2856,2.2408,2.2259,2.2259,0.0,0.0,0.0,0.0,0.0,0.0,0.0,0.0,0.0,0.0,2.1897,2.1924,0.0,2.2191,2.2365,2.2365,2.2632,2.2806,2.2806,0.0,0.0,2.2859,2.2859,2.2859,2.2859,2.2859,2.2859,2.2859,2.2859,2.2859,2.2859,2.2859,2.3006,2.326,2.3313,2.3607,2.4088,2.4168,2.4342,2.473,2.6765,2.6502,0.0,0.0,0.0,0.0,0.0,0.0,3.3031,3.3623,3.3918,0.0,0.0,0.0,3.207,3.207,3.207,3.207,3.207,3.193,3.1789,3.1508,3.1508,3.1084,2.9806,2.952,2.9107,0.0,2.8691,2.9377,2.925,2.8114,2.7363,2.7364,2.7452,2.7671,2.8227,2.8388,2.8534,2.8798,2.8871,2.8886,2.8886,2.8886,2.8744,2.8446,2.8289,2.8118,2.779,2.7333,2.7333,2.7633,2.6575,2.6121,2.6129,2.5375,2.493,2.4636,2.4636,2.4636,2.4636,2.4636,2.4636,2.4636,2.4636,2.4636,2.4636,2.4193,2.4044,2.3896,2.3302,2.3005,2.2856,2.2408,2.2259,2.2259,0.0,0.0,0.0,0.0,0.0,0.0,0.0,0.0,0.0,0.0,0.0,2.2231,2.2231,2.2485,2.2672,2.2672,2.2792,2.2859,2.2859,2.2859,2.2859,2.2859,2.2859,2.2859,2.2859,2.2859,2.2859,2.2859,2.2859,2.2859,0.0,2.3046,2.3193,2.334,2.35,2.3808,2.4209,2.4382,2.4516,2.4784,2.6502,2.6794,0.0,0.0,0.0,0.0,0.0,0.0,0.0,0.0,3.2351,3.2351,3.1649,0.0,0.0,0.0,3.1508,3.1226,3.0233,2.9949,2.9663,2.8516,2.8372,2.8084,2.752,2.723,2.7245,2.6692,2.7114,2.768,2.797,2.7569,2.7305,2.7452,2.7773,2.811,2.8403,2.8578,2.8739,2.8871,2.8886,2.8886,2.8886,2.8886,2.89,2.8588,2.8118,2.7961,2.7961,2.7175,2.686,2.7175,2.6418,2.5966,2.5824,2.5375,2.493,2.4636,2.4636,2.4636,2.4636,2.4636,2.4636,2.4636,2.4341,2.4193,2.4193,2.3896,2.36,2.3302,2.3005,2.2707,2.2558,2.2408,2.2259,2.2259,0.0,0.0,0.0,0.0,0.0,0.0,0.0,0.0,0.0,0.0,0.0,2.239,2.2525,0.0,0.0,0.0,2.2859,2.2859,2.2859,2.2859,2.2859,2.2859,2.2859,2.2859,2.2859,2.2859,2.2859,2.2859,2.2859,0.0,2.2979,2.322,2.3407,0.0,2.3781,2.4035,0.0,0.0,0.0,0.0,0.0,0.0,0.0,0.0,0.0,0.0,0.0,0.0,0.0,0.0,0.0,0.0,0.0,0.0,0.0,0.0,0.0,3.0091,2.8676,2.8243,2.7955,2.6385,2.5946,2.5946,2.5946,2.5946,2.6093,2.6546,2.6603,2.6807,2.7115,2.732,2.7525,2.77,2.8125,2.8461,2.8534,2.8739,2.8886,2.8886,2.8886,2.8886,2.8744,2.8886,2.873,2.8417,2.7947,2.7633,2.7805,2.686,2.6517,2.6765,2.6155,2.5705,2.5411,2.5117,2.485,2.4636,2.4636,2.4636,2.4636,2.4636,2.4636,2.4636,2.4193,2.3896,2.3896,2.3451,2.3154,2.2856,2.2856,2.2558,2.2259,2.2259,2.2259,2.2259,0.0,0.0,0.0,0.0,0.0,0.0,0.0,0.0,0.0,0.0,0.0,2.2421,2.2832,2.2846,2.2859,2.2859,2.2859,2.2859,2.2859,2.2859,2.2859,2.2859,2.2859,0.0,2.2859,2.2859,2.2859,2.2859,0.0,0.0,2.33,2.3313,2.3621,2.4155,2.4168,2.4342,2.4609,0.0,0.0,0.0,0.0,0.0,0.0,0.0,0.0,0.0,0.0,0.0,0.0,0.0,0.0,0.0,0.0,0.0,0.0,0.0,0.0,0.0,2.7129,2.7129,2.6983,2.6546,2.6399,2.6399,2.6399,2.6399,2.6546,2.6838,2.7232,2.7452,2.7452,2.7466,2.7671,2.8286,2.8417,2.8534,2.8827,2.8886,2.8886,2.8886,2.8886,2.873,2.8446,2.8744,2.8431,2.7189,2.749,2.7319,2.6544,2.6386,2.6266,2.5985,2.5692,2.5398,2.5104,2.481,2.4649,2.4636,2.4636,2.4636,2.4636,2.4636,2.4636,2.4636,2.4193,2.3735,2.3438,2.3005,2.2856,2.2856,2.2408,2.2259,2.2259,2.2259,2.2259,2.2259,0.0,0.0,0.0,0.0,0.0,0.0,0.0,0.0,0.0,0.0,0.0,0.0,0.0,2.2859,2.2859,2.2859,2.2859,2.2859,2.2859,2.2859,2.2859,2.2859,2.2859,2.2859,2.2859,2.2859,2.2953,2.3153,2.3153,2.3313,2.3621,2.3808,2.4008,2.4209,2.4209,2.4369,2.4636,2.4636,0.0,0.0,0.0,0.0,0.0,0.0,0.0,0.0,0.0,0.0,0.0,0.0,0.0,0.0,0.0,0.0,0.0,0.0,2.6983,2.6983,2.6692,2.6546,2.6546,2.6093,2.5814,2.5667,2.5667,2.5373,2.5373,2.5814,2.6362,2.6929,2.7294,2.7798,2.8169,2.8403,2.8608,2.8769,2.8871,2.8886,2.8886,2.8886,2.8886,2.8886,2.8744,2.8886,2.8573,2.7961,2.7647,2.7319,2.686,2.637,2.6066,2.5959,2.5491,2.509,2.4796,2.469,2.4636,2.4636,2.4636,2.4636,2.4636,2.4636,2.4341,2.3896,2.3748,2.36,2.329,2.2707,2.2558,2.2558,2.2408,2.2259,2.2259,2.2259,2.2259,2.2259,0.0,0.0,0.0,0.0,0.0,2.231,2.231,2.2173,2.2173,2.231,0.0,0.0,0.0,0.0,2.2859,2.2859,2.2859,2.2859,2.2859,2.2859,2.2913,2.3006,2.302,2.306,2.3166,2.2966,2.306,2.3474,2.3273,2.342,2.3915,2.4115,2.4249,2.4342,2.4342,2.4449,0.0,0.0,0.0,2.6357,0.0,0.0,3.1333,0.0,0.0,0.0,0.0,0.0,0.0,0.0,0.0,0.0,0.0,0.0,0.0,0.0,0.0,0.0,2.6546,2.6239,2.6093,2.5653,2.552,2.5373,2.5226,2.5079,2.5106,2.5497,2.6057,2.6664,2.7293,2.7913,2.8438,2.8438,2.8599,2.8886,2.8744,2.873,2.8886,2.8744,2.8886,2.873,2.8417,2.8588,2.8588,2.8118,2.7647,0.0,2.6881,2.6378,2.5865,2.5665,2.5184,2.4836,2.4636,2.4636,2.4636,2.4636,2.4636,2.4636,2.4636,2.4636,2.4193,2.36,2.3438,2.329,2.3005,2.2558,2.2259,2.2259,2.2259,2.2259,2.2259,2.2259,2.2259,2.2259,0.0,0.0,2.2859,2.2859,2.2585,2.231,2.231,2.2035,2.1897,2.231,0.0,0.0,0.0,0.0,0.0,2.2886,2.2886,2.2886,2.2886,2.2886,2.302,2.3327,2.334,2.3474,2.3768,2.3193,2.318,2.3781,2.3193,2.3354,2.4222,2.4222,2.4369,2.4636,2.4636,2.4636,2.4636,0.0,2.4636,2.5065,0.0,2.9472,2.8772,0.0,0.0,0.0,3.4883,3.4176,0.0,0.0,0.0,0.0,0.0,0.0,0.0,0.0,0.0,0.0,0.0,0.0,0.0,2.5373,2.552,2.5667,2.5387,2.5534,2.5912,2.6206,2.6514,2.6822,2.713,2.7749,2.8289,2.8289,2.8588,2.8744,2.8289,2.8588,2.8744,2.8289,2.8588,2.8573,2.779,2.8118,2.8118,2.7619,2.7162,2.6881,2.658,2.6243,2.5665,2.5077,2.4783,2.4636,2.4636,2.4636,2.4636,2.4636,2.4636,2.4636,2.4636,2.4636,2.4341,2.3896,2.3587,2.3005,2.2259,2.2259,2.2259,2.2259,2.2259,2.2259,2.2259,2.2259,2.2259,2.2259,0.0,2.2859,2.2859,2.2859,2.2859,2.2722,2.2722,2.2722,2.2585,0.0,0.0,0.0,0.0,0.0,2.3287,2.35,2.3514,2.3514,2.3514,2.3514,2.3554,2.3647,2.3647,2.3688,2.3768,2.3607,2.3701,2.4088,2.3915,2.4219,2.497,2.4663,2.4703,2.5079,2.5079,2.4931,2.4636,2.4636,0.0,0.0,2.8197,2.9916,0.0,0.0,0.0,0.0,0.0,3.5451,0.0,0.0,3.4471,3.2648,0.0,0.0,0.0,0.0,0.0,0.0,2.6093,0.0,0.0,0.0,0.0,0.0,2.5987,2.6318,2.65,2.613,2.6697,2.6933,2.6876,2.7281,2.7647,2.7347,2.7961,2.8275,2.779,2.8118,2.8431,2.8289,2.8431,2.8431,2.8573,2.8431,2.8033,0.0,2.7156,2.6721,2.5805,2.5438,2.5144,2.477,2.4676,2.4636,2.4636,2.4636,2.4636,2.4636,2.4636,2.4636,2.4636,2.4636,2.4193,2.36,2.3438,2.3005,2.2259,2.2259,2.2259,2.2259,2.2259,2.2259,2.2259,2.2259,2.2259,2.2259,2.2859,2.2859,2.2859,2.2859,2.2859,2.2859,2.2859,2.2859,2.2859,0.0,0.0,0.0,0.0,0.0,0.0,2.3754,2.3768,2.3768,2.3768,2.3768,2.3821,2.3941,2.3955,2.4296,2.5124,2.486,2.4943,2.5388,2.5124,2.5077,2.5226,0.0,0.0,2.5373,2.5079,2.4931,2.4784,0.0,0.0,0.0,2.8485,0.0,0.0,3.3762,3.4471,0.0,0.0,0.0,3.4314,3.5606,3.4609,0.0,0.0,0.0,0.0,0.0,0.0,0.0,0.0,0.0,0.0,0.0,0.0,0.0,2.5813,2.6349,2.6613,2.6139,2.6443,2.6607,2.6588,2.6908,2.7175,2.6874,2.7333,2.7647,2.7333,2.7805,2.7961,2.7819,2.7961,2.8061,2.7933,2.7777,2.7495,2.7018,2.6682,2.6099,2.5344,2.505,2.481,2.4636,2.4636,2.4636,2.4636,2.4636,2.4636,2.4636,2.4636,2.4636,2.4636,2.4636,2.4193,2.3438,2.3438,2.3005,2.2259,2.2259,2.2259,2.2259,2.2259,2.2259,2.2259,2.2259,2.2259,2.2259,0.0,2.2859,2.2859,2.2859,2.2859,2.2859,2.2859,2.2859,2.2859,0.0,0.0,0.0,0.0,0.0,0.0,0.0,2.3875,2.3875,2.3875,2.3875,2.3981,2.4235,2.4249,2.4939,2.6648,2.6084,2.6069,2.6648,2.6339,0.0,0.0,0.0,0.0,0.0,2.5065,2.4931,2.5226,0.0,0.0,2.5345,2.9059,2.9774,0.0,0.0,3.4195,0.0,3.504,3.4314,3.2351,3.504,3.4038,0.0,0.0,0.0,0.0,0.0,2.6692,0.0,0.0,0.0,0.0,0.0,0.0,0.0,2.5472,2.6006,2.6739,2.6256,2.6155,2.6235,2.6346,2.6702,2.6874,2.6544,2.6702,2.6874,2.6874,2.7333,2.749,2.7189,2.7305,2.7323,2.6763,2.6708,2.6556,2.6696,2.5881,2.5304,2.5037,2.4783,2.4636,2.4636,2.4636,2.4636,2.4636,2.4636,2.4636,2.4636,2.4636,2.4636,2.4636,2.4636,2.4193,2.3438,2.3438,2.3005,2.2259,2.2259,2.2259,2.2259,2.2259,2.2259,2.2259,2.2259,2.2259,2.2259,2.2859,2.2859,2.2859,2.2859,2.2859,2.2859,2.2859,2.2859,2.2859,2.2859,2.3086,0.0,0.0,0.0,0.0,0.0,2.4462,2.4462,2.4462,2.4462,2.4489,2.4556,2.4556,2.4716,2.5065,2.4943,2.4943,2.5065,0.0,0.0,0.0,0.0,0.0,0.0,2.58,2.5653,2.58,0.0,0.0,2.749,2.8644,0.0,3.1067,3.3345,3.4609,3.5177,3.5743,3.5587,3.5177,0.0,3.4038,3.1508,0.0,0.0,0.0,0.0,0.0,0.0,0.0,0.0,0.0,0.0,0.0,0.0,2.6348,2.6932,2.7323,2.6922,2.6779,2.6648,2.6373,2.6386,2.6544,2.6874,2.6716,2.6544,2.6544,2.7175,2.7633,2.7476,2.7423,2.741,2.7508,2.6962,2.653,2.5923,2.5229,2.4783,2.473,2.4676,2.4636,2.4636,2.4636,2.4636,2.4636,2.4636,2.4636,2.4636,2.4636,2.4636,2.4636,2.4636,2.4193,2.3438,2.3438,2.3005,2.2259,2.2259,2.2259,2.2259,2.2259,2.2259,2.2259,2.2259,2.2259,2.2259,2.2859,2.2859,2.2859,2.2859,2.2859,2.2859,2.2859,2.2859,2.2926,2.3073,2.3487,0.0,0.0,0.0,0.0,0.0,0.0,0.0,0.0,2.4636,2.4918,2.5639,2.5786,2.6502,2.8068,2.8068,2.7795,2.7215,0.0,0.0,0.0,0.0,0.0,0.0,2.7505,2.7085,2.7375,0.0,2.8228,2.752,3.0217,0.0,3.2473,3.4195,3.5314,3.6016,3.6016,3.6016,3.5879,3.5177,3.3472,0.0,0.0,2.9521,2.7232,0.0,2.679,2.6524,0.0,0.0,0.0,2.5415,0.0,0.0,0.0,2.6799,2.7175,2.6702,2.6702,2.6702,2.6386,2.6386,2.6544,2.6874,2.6581,2.6383,2.6991,2.7038,2.7112,2.6785,2.6835,2.6892,2.6752,2.6584,2.621,2.5472,2.4864,2.4636,2.4636,2.4636,2.4636,2.4636,2.4636,2.4636,2.4636,2.4636,2.4636,2.4636,2.4636,2.4636,2.4636,2.4636,2.4193,2.3438,2.3438,2.3005,2.2259,2.2259,2.2259,2.2259,2.2259,2.2259,2.2259,2.2259,2.2259,2.2259,2.2873,2.2859,2.2859,2.2859,2.2859,2.2886,2.2939,2.2953,2.3086,2.3447,0.0,0.0,0.0,0.0,0.0,0.0,0.0,0.0,0.0,0.0,2.5506,2.6371,2.6794,2.8084,3.0501,3.0926,3.0785,2.979,3.0217,0.0,0.0,0.0,0.0,0.0,0.0,0.0,0.0,0.0,0.0,2.781,0.0,3.3188,3.2752,3.5021,3.5879,3.5587,3.5879,3.6016,3.5762,3.4426,0.0,3.1895,3.1372,2.9502,0.0,0.0,0.0,0.0,0.0,0.0,0.0,0.0,0.0,2.6439,0.0,0.0,0.0,2.6386,2.6386,2.6386,2.6386,2.6386,2.6531,2.6949,2.6629,0.0,0.0,2.7101,0.0,2.6411,2.6558,2.6391,2.6004,2.6057,2.5917,2.5387,2.4931,2.4636,2.4636,2.4636,2.4636,2.4636,2.4636,2.4636,2.4636,2.4636,2.4636,2.4636,2.4636,2.4636,2.4636,2.4636,2.4193,2.3438,2.3438,2.3005,2.2259,2.2259,2.2259,2.2259,2.2259,2.2259,2.2259,2.2259,2.2259,2.2259,2.2913,2.2859,2.2859,2.2859,2.2859,2.2953,2.3233,2.3273,2.3474,0.0,0.0,0.0,0.0,0.0,0.0,0.0,0.0,0.0,2.6794,0.0,0.0,2.4918,2.6225,2.7085,2.736,2.9059,2.9916,2.9774,3.1474,3.1491,3.0075,0.0,0.0,0.0,2.8932,0.0,0.0,0.0,3.1084,0.0,3.3067,3.207,0.0,3.4314,3.5177,3.4195,3.5587,3.6016,3.5801,0.0,3.318,3.1837,0.0,2.9179,0.0,0.0,0.0,0.0,0.0,0.0,0.0,0.0,2.6243,0.0,0.0,0.0,2.6386,2.6386,0.0,0.0,0.0,0.0,0.0,0.0,0.0,0.0,2.7364,2.7264,2.7335,2.762,2.6819,2.6453,2.6723,2.6157,2.5828,2.58,2.5373,2.4931,2.4636,2.4636,2.4636,2.4636,2.4636,2.4636,2.4636,2.4636,2.4636,2.4636,2.4636,2.4636,2.4636,2.4636,2.4193,2.3438,2.3438,2.3005,2.2259,2.2259,2.2259,2.2259,2.2259,2.2259,2.2259,2.2259,2.2259,2.2259,2.2953,2.2859,2.3133,2.3938,2.3557,2.3444,2.4386,2.4159,2.3928,0.0,0.0,0.0,0.0,0.0,0.0,0.0,0.0,2.765,0.0,0.0,0.0,0.0,2.8788,0.0,3.1226,3.1789,3.193,3.1508,3.207,3.1508,3.0091,0.0,0.0,0.0,3.1209,0.0,3.0518,0.0,3.0943,0.0,0.0,0.0,0.0,3.4314,3.5606,3.5215,3.6034,3.6406,3.6327,0.0,3.4432,0.0,0.0,0.0,0.0,0.0,0.0,0.0,0.0,0.0,0.0,0.0,0.0,0.0,0.0,0.0,2.6386,0.0,0.0,0.0,0.0,0.0,0.0,0.0,2.6989,0.0,0.0,0.0,2.6602,2.6914,0.0,0.0,2.6894,2.6471,2.6093,2.58,2.5373,2.5079,2.4636,2.4636,2.4636,2.4636,2.4636,2.4636,2.4636,2.4636,2.5065,2.5932,2.5932,2.5932,2.5932,2.5932,2.5051,2.3748,2.3451,2.3154,2.2558,2.2408,2.2259,2.2259,2.2259,2.2259,2.2259,2.2259,2.2259,2.2259,2.322,0.0,2.4052,2.5135,2.4925,2.4833,2.5586,2.5242,0.0,0.0,0.0,0.0,2.4636,2.5345,0.0,0.0,0.0,2.866,0.0,0.0,2.9631,0.0,0.0,0.0,0.0,0.0,3.3678,3.3242,3.2824,3.2105,3.1084,3.1226,0.0,0.0,0.0,3.263,3.207,0.0,3.1084,3.0518,3.1649,3.1859,3.152,3.4482,3.578,3.625,3.668,3.6836,3.6914,3.6881,3.5465,0.0,3.4448,0.0,0.0,0.0,0.0,0.0,2.9138,0.0,0.0,0.0,0.0,0.0,0.0,0.0,0.0,0.0,0.0,0.0,0.0,0.0,0.0,0.0,0.0,2.7122,0.0,2.6906,0.0,0.0,0.0,0.0,0.0,2.6692,2.6399,2.58,2.552,2.5079,2.4636,2.4636,2.4636,2.4636,2.4636,2.4636,2.4636,2.4636,2.5359,2.6939,2.6939,2.7085,2.7505,2.7505,2.6502,2.4609,2.4166,2.3587,2.2856,2.2408,2.2259,2.2259,2.2259,2.2259,2.2259,2.2259,2.2259,2.2259,2.3794,2.4975,0.0,0.0,2.7169,2.771,2.6638,0.0,0.0,0.0,0.0,0.0,0.0,0.0,0.0,0.0,0.0,3.2945,3.1508,0.0,3.0926,0.0,0.0,3.1649,0.0,0.0,0.0,3.437,3.437,3.4232,3.4232,3.2788,3.3067,0.0,3.2053,3.2053,3.3623,3.207,3.2351,3.3623,3.3762,3.4853,3.6363,0.0,3.535,3.6699,3.7129,0.0,0.0,3.5992,3.554,0.0,0.0,0.0,0.0,0.0,0.0,0.0,0.0,0.0,0.0,2.7647,0.0,0.0,0.0,0.0,2.6874,0.0,0.0,0.0,0.0,0.0,0.0,0.0,0.0,0.0,0.0,0.0,0.0,0.0,0.0,0.0,0.0,2.6983,2.6692,0.0,2.58,2.5506,2.4636,2.4636,2.4636,2.4636,2.4636,2.4636,2.4636,2.4636,2.5359,2.6939,2.6939,2.765,2.9059,2.9059,2.8068,2.6196,2.5758,2.4596,2.2856,2.2408,2.2259,2.2259,2.2259,2.2259,2.2259,2.2259,2.2259,2.2259,2.7335,0.0,0.0,0.0,0.0,0.0,0.0,2.7431,0.0,0.0,0.0,0.0,0.0,0.0,2.9631,0.0,0.0,3.2228,3.193,3.2648,0.0,0.0,0.0,3.3641,0.0,0.0,0.0,0.0,0.0,3.4075,3.2927,3.3918,3.3484,3.193,0.0,3.4038,0.0,0.0,0.0,0.0,0.0,3.5406,3.709,0.0,0.0,3.7148,3.7559,3.7715,0.0,3.7605,3.6863,3.6128,3.6719,3.5402,3.3902,3.5103,3.4504,0.0,0.0,0.0,3.3734,3.0238,0.0,0.0,0.0,0.0,0.0,0.0,0.0,0.0,0.0,0.0,0.0,0.0,0.0,0.0,0.0,0.0,0.0,0.0,0.0,0.0,0.0,0.0,0.0,0.0,2.5506,0.0,2.4636,2.4636,2.4636,2.4636,2.4636,2.4636,2.4636,2.5639,2.6939,2.8501,2.9504,3.0217,3.0785,3.0785,2.979,2.8068,2.6474,2.5318,2.4596,2.2992,2.2259,2.2259,2.2259,2.2259,2.2259,2.2259,2.2259,2.2259,2.9202,3.0501,0.0,0.0,0.0,0.0,0.0,0.0,0.0,0.0,2.8357,0.0,2.9059,0.0,3.0359,0.0,3.2088,3.2648,3.2927,3.3659,0.0,3.3605,3.4214,0.0,0.0,0.0,0.0,0.0,0.0,3.4352,3.3067,3.4765,3.4333,3.2351,0.0,3.504,3.4627,3.4205,3.426,0.0,0.0,3.6398,0.0,0.0,3.7656,3.7578,0.0,3.8164,3.8203,3.8476,3.797,3.7217,3.8263,3.7217,3.57,3.6775,3.6312,3.5253,3.4804,3.4954,0.0,3.2201,3.2065,0.0,2.8715,0.0,0.0,0.0,0.0,0.0,0.0,0.0,0.0,0.0,0.0,0.0,0.0,2.6983,0.0,0.0,0.0,0.0,0.0,0.0,0.0,0.0,0.0,0.0,0.0,2.4636,2.4636,2.4636,2.4636,2.4636,2.4636,2.6078,2.765,2.9202,3.0785,3.1789,3.2368,3.2368,3.1508,2.9932,2.7765,2.6314,2.5465,2.3426,2.2408,2.2259,2.2259,2.2259,2.2259,2.2259,2.2259,2.2259,2.9488,3.0643,0.0,0.0,3.2806,0.0,0.0,0.0,3.0926,0.0,2.9345,2.9345,2.9488,3.0785,3.1649,3.1649,3.3363,0.0,3.4508,3.4784,0.0,0.0,3.5196,3.5059,3.5489,0.0,0.0,0.0,0.0,0.0,3.4921,3.5333,3.5489,3.547,3.437,0.0,3.5938,3.4939,3.5406,3.6797,3.7598,3.793,3.8008,3.8418,3.832,3.8008,3.8418,3.8574,3.8574,3.8574,3.8574,3.8574,3.8574,3.8574,3.8574,3.8574,3.8574,3.8282,3.6756,3.5103,3.3885,3.3415,0.0,0.0,0.0,0.0,3.0083,0.0,0.0,0.0,0.0,0.0,0.0,0.0,0.0,0.0,0.0,0.0,0.0,0.0,0.0,0.0,0.0,0.0,0.0,0.0,0.0,0.0,0.0,2.4784,2.4636,2.4636,2.4636,2.4636,2.4784,2.6225,2.7795,2.9345,3.0926,3.2368,3.3817,3.3817,3.2945,3.1508,2.9615,2.7605,2.5597,2.3722,2.2707,2.2259,2.2259,2.2259,2.2259,2.2259,2.2259,2.2259,3.2648,3.2945,3.3242,0.0,3.3521,3.3678,0.0,0.0,0.0,0.0,3.1649,3.1367,3.2508,3.2945,3.3381,3.3659,3.4094,0.0,0.0,0.0,0.0,3.5879,3.547,3.547,3.5879,3.5743,0.0,3.5743,0.0,0.0,3.5333,3.5743,3.5743,3.5489,3.5797,3.6208,3.6523,3.6514,3.7022,3.7617,3.7832,3.8125,3.8418,0.0,3.8496,3.8418,3.8535,3.8574,3.8574,3.8574,3.8574,3.8574,3.8574,3.8574,3.8574,3.8574,3.8574,3.8574,3.8117,3.7677,3.707,3.57,3.5103,3.4504,0.0,0.0,0.0,0.0,0.0,0.0,0.0,0.0,0.0,0.0,0.0,0.0,0.0,0.0,0.0,2.6983,0.0,0.0,0.0,0.0,0.0,0.0,0.0,0.0,2.4784,0.0,2.4931,2.4636,2.4636,2.5212,2.6371,2.778,2.9361,3.0926,3.2508,3.3381,3.3817,3.3817,3.3521,3.3085,3.1209,2.9171,2.7301,2.529,2.3709,2.2259,2.2259,2.2259,2.2259,2.2259,2.2259,2.2259,3.3817,3.3817,0.0,3.3817,0.0,0.0,3.3817,0.0,0.0,3.3678,3.3085,0.0,3.3678,3.3955,3.4094,3.437,3.4646,0.0,0.0,0.0,0.0,3.6016,3.5879,3.5743,3.6016,3.6016,0.0,3.6309,0.0,0.0,3.6305,3.6444,3.6444,3.6305,3.6697,3.6953,3.6973,3.7402,3.7812,3.8203,3.8203,3.8359,0.0,3.8574,3.8574,3.8574,3.8574,3.8574,3.8574,3.8574,3.8574,3.8574,3.8574,3.8574,3.8574,3.8574,3.8574,3.8574,3.8574,3.8117,3.7511,3.7364,3.6775,3.5867,3.4786,3.3734,3.2624,0.0,0.0,0.0,0.0,0.0,0.0,0.0,0.0,0.0,0.0,0.0,0.0,0.0,2.6983,0.0,0.0,0.0,0.0,0.0,0.0,0.0,0.0,0.0,2.6078,2.5653,2.6488,2.7215,2.7939,2.9647,3.0785,3.1508,3.3085,3.3817,3.3817,3.3817,3.3817,3.3678,3.193,2.99,2.7863,2.6022,2.4153,2.2259,2.2259,2.2259,2.2259,2.2259,2.2259,2.2259,3.3817,0.0,0.0,0.0,0.0,0.0,0.0,3.3817,0.0,3.3817,0.0,3.3817,3.3817,3.4288,3.4445,3.4583,0.0,3.5643,3.578,3.6054,3.6191,3.6191,3.6191,3.6191,3.6191,3.6191,0.0,0.0,0.0,0.0,3.7305,3.7305,3.7305,3.7305,3.7363,3.7402,3.748,3.7851,3.8223,3.8574,3.8574,3.8574,3.8574,3.8574,3.8574,3.8574,3.8574,3.8574,3.8574,3.8574,3.8574,3.8574,3.8574,3.8574,3.8574,3.8574,3.8574,3.8574,3.8574,3.753,3.6922,3.8263,3.753,3.646,3.646,3.6312,3.5294,3.1776,3.0687,2.9759,0.0,0.0,0.0,0.0,0.0,0.0,0.0,0.0,0.0,0.0,0.0,0.0,0.0,0.0,0.0,0.0,0.0,0.0,0.0,0.0,2.736,2.6939,2.8788,2.9631,2.9488,3.1209,3.193,3.1789,3.3103,3.3817,3.3817,3.3817,3.3817,3.3678,3.2368,3.0343,2.7879,2.6605,2.4583,2.2259,2.2259,2.2259,2.2259,2.2259,2.2259,2.2259,0.0,0.0,0.0,0.0,0.0,3.3817,3.3817,3.3817,3.3817,3.3817,3.3817,3.3955,3.4232,3.4668,3.5153,3.5711,3.6157,0.0,0.0,0.0,0.0,3.707,3.707,3.707,3.707,3.707,3.7109,0.0,0.0,0.0,0.0,3.7305,3.7305,3.7305,3.7656,3.8008,3.8359,3.8437,0.0,3.8574,3.8574,3.8574,3.8574,3.8574,3.8574,3.8574,3.8574,3.8574,3.8574,3.8574,3.8574,3.8574,3.8574,3.8574,3.8574,3.8574,3.8574,3.8574,3.8574,3.8428,3.8282,3.8574,3.8428,3.8117,3.8117,3.7217,3.5591,3.3272,3.1564,2.9759,2.7822,0.0,0.0,0.0,0.0,0.0,0.0,0.0,0.0,0.0,0.0,2.6983,0.0,0.0,0.0,0.0,0.0,0.0,0.0,0.0,2.7665,0.0,2.8501,2.9916,0.0,0.0,3.2228,3.3381,3.3678,3.3817,3.3817,3.3817,3.3817,3.3817,3.3521,3.135,2.8007,2.7734,2.5437,2.2259,2.2259,2.2259,2.2259,2.2259,2.2259,2.2259,0.0,0.0,0.0,0.0,0.0,0.0,0.0,3.411,0.0,3.3835,3.3982,3.425,3.4687,3.5182,3.5849,3.6412,3.6746,3.7144,3.7305,3.7305,3.7305,3.7305,3.7305,0.0,3.7305,3.7305,3.7402,3.7617,0.0,0.0,0.0,0.0,0.0,3.7969,3.8164,3.8379,3.8574,0.0,0.0,3.8574,3.8574,3.8574,3.8574,3.8574,3.8574,3.8574,3.8574,3.8574,3.8574,3.8574,3.8574,3.8574,3.8574,3.8574,3.8574,3.8574,3.8574,3.8574,3.8574,3.8574,3.8574,3.8574,3.8574,3.8574,3.8574,3.797,3.6882,3.463,3.2904,3.0713,2.7747,2.71,0.0,0.0,0.0,0.0,0.0,0.0,0.0,0.0,0.0,0.0,0.0,0.0,0.0,0.0,0.0,2.6546,2.5506,0.0,2.9234,0.0,0.0,0.0,3.2945,0.0,3.3224,3.3817,3.3817,3.3817,3.3817,3.3817,3.3817,3.3817,3.3817,3.1632,2.7879,2.5862,2.3992,2.2259,2.2259,2.2259,2.2259,2.2259,2.2259,2.2259,0.0,3.3817,0.0,0.0,3.3945,0.0,3.4477,3.4532,3.4563,3.411,3.4471,3.4815,3.5238,3.6039,3.657,3.6997,3.7378,3.7578,3.7578,3.7578,3.7578,3.7578,3.7578,3.7578,3.7578,3.7578,3.7734,0.0,0.0,0.0,0.0,0.0,0.0,0.0,0.0,0.0,0.0,0.0,3.8574,3.8574,3.8574,3.8574,3.8574,3.8574,3.8574,3.8574,3.8574,3.8574,3.8574,3.8574,3.8574,3.8574,3.8574,3.8574,3.8574,3.8574,3.8574,3.8574,3.8574,3.8574,3.8574,3.8574,3.8574,3.8574,3.8574,3.8574,3.7885,3.555,3.3371,3.1198,2.8496,2.742,0.0,0.0,0.0,0.0,0.0,0.0,0.0,0.0,0.0,0.0,2.784,0.0,0.0,0.0,0.0,2.6838,2.6371,2.9234,3.0943,0.0,0.0,3.4646,3.437,0.0,3.4094,3.3817,3.3817,3.3817,3.3817,3.3817,3.3817,3.3817,3.3817,3.1632,2.7719,2.3844,2.2259,2.2259,2.2259,2.2259,2.2259,2.2259,2.2259,2.2259,0.0,0.0,0.0,0.0,0.0,0.0,3.4917,3.524,3.5364,3.4917,3.5222,3.5669,3.6096,3.6761,3.7441,3.7728,3.8223,3.8457,3.8457,3.8457,3.8457,3.8457,3.8457,3.8457,3.8457,3.8457,3.8476,0.0,0.0,0.0,0.0,0.0,0.0,0.0,0.0,0.0,0.0,3.8574,3.8574,3.8574,3.8574,3.8574,3.8574,3.8574,3.8574,3.8574,3.8574,3.8574,3.8574,3.8574,3.8574,3.8574,3.8574,3.8574,3.8574,3.8574,3.8574,3.8574,3.8574,3.8574,3.8574,3.8574,3.8574,3.8574,3.8574,3.8574,3.7885,3.555,3.2073,2.9887,3.096,2.8835,2.742,0.0,0.0,0.0,0.0,0.0,0.0,0.0,0.0,0.0,0.0,2.8547,0.0,0.0,2.755,2.7405,2.8213,2.9949,3.1367,3.2333,3.378,3.437,3.437,3.4094,3.3817,3.3817,3.3817,3.3817,3.3817,3.3817,3.3817,3.3817,3.3817,3.1632,2.7719,2.3844,2.2259,2.2259,2.2259,2.2259,2.2259,2.2259,2.2259,2.2259,0.0,0.0,0.0,0.0,0.0,0.0,0.0,3.6099,3.6318,3.6436,3.6393,3.6512,3.6818,3.749,3.7885,3.832,3.8476,3.8574,3.8574,3.8574,3.8574,3.8574,3.8574,3.8574,3.8574,3.8574,3.8574,0.0,0.0,0.0,0.0,0.0,0.0,0.0,0.0,3.8574,3.8574,3.8574,3.8574,3.8574,3.8574,3.8574,3.8574,3.8574,3.8574,3.8574,3.8574,3.8574,3.8574,3.8574,3.8574,3.8574,3.8574,3.8574,3.8574,3.8574,3.8574,3.8574,3.8574,3.8574,3.8574,3.8574,3.8574,3.8574,3.8574,3.8379,3.7864,3.6674,3.3304,3.0518,3.0233,2.8403,2.7129,0.0,0.0,0.0,0.0,0.0,0.0,0.0,0.0,0.0,0.0,0.0,0.0,0.0,0.0,2.7129,2.7245,2.9806,3.1508,3.1913,0.0,3.4921,3.4646,3.437,3.4094,3.3817,3.3817,3.3817,3.3817,3.3817,3.3817,3.3659,3.1333,2.9456,2.7719,2.3844,2.2259,2.2259,2.2259,2.2259,2.2259,2.2259,2.2259,2.2259,3.5027,0.0,3.5064,0.0,3.5624,3.5899,3.6473,3.6967,3.7207,3.753,3.7429,3.7383,3.7547,3.7962,3.8302,3.8574,3.8574,3.8574,3.8574,3.8574,3.8574,3.8574,3.8574,0.0,3.8574,3.8574,3.8574,3.8574,3.8574,0.0,0.0,0.0,0.0,0.0,3.8574,3.8574,3.8574,3.8574,3.8574,3.8574,3.8574,3.8574,3.8574,3.8574,3.8574,3.8574,3.8574,3.8574,3.8574,3.8574,3.8574,3.8574,3.8574,3.8574,3.8574,3.8574,3.8574,3.8574,3.8574,3.8574,3.8574,3.8574,3.8574,3.8574,3.8574,3.8242,3.7773,3.7226,3.4519,3.193,3.135,2.9679,2.8259,2.8259,0.0,0.0,0.0,0.0,0.0,0.0,2.8114,2.9107,3.0376,2.9663,0.0,0.0,0.0,0.0,0.0,0.0,0.0,0.0,0.0,0.0,3.5059,3.4646,3.4232,3.3955,3.3817,3.3817,3.3817,3.3817,3.3817,3.3659,3.0184,2.8454,2.7734,2.4435,2.2707,2.2259,2.2259,2.2259,2.2259,2.2259,2.2259,2.2259,3.5027,3.5027,3.5299,3.5996,3.6197,3.6492,3.7198,3.7715,3.8009,3.8009,3.8282,3.8428,3.8009,3.8282,3.8574,3.8574,3.8574,3.8574,3.8574,3.8574,3.8574,0.0,0.0,3.8574,3.8574,3.8574,3.8574,3.8574,0.0,0.0,3.793,0.0,3.8164,3.8574,3.8574,3.8574,3.8574,3.8574,3.8574,3.8574,3.8574,3.8574,3.8574,3.8574,3.8574,3.8574,3.8574,3.8574,3.8574,3.8574,3.8574,3.8574,3.8574,3.8574,3.8574,3.8574,3.8574,3.8574,3.8574,3.8574,3.8574,3.8574,3.8574,3.8574,3.8574,3.8242,3.7676,3.6855,3.5186,3.4195,3.5606,3.3484,3.1508,3.1508,0.0,0.0,0.0,0.0,0.0,0.0,2.784,2.8835,3.3345,3.0943,0.0,0.0,0.0,0.0,0.0,0.0,0.0,3.5879,3.5606,0.0,3.547,3.4784,3.437,3.437,3.3955,3.3817,3.3817,3.3817,3.3817,3.3678,3.1367,2.9488,2.7863,2.5451,2.3722,2.2259,2.2259,2.2259,2.2259,2.2259,2.2259,2.2259,3.6128,3.6274,3.633,3.6901,3.7213,3.7563,3.7843,3.8155,3.8448,3.8448,3.8574,3.8574,3.8428,3.8574,3.8574,0.0,3.8574,3.8574,0.0,3.8574,3.8574,3.8574,3.8574,3.8574,3.8574,3.8574,3.8574,3.8574,0.0,0.0,0.0,3.8359,3.8437,3.8574,3.8574,3.8574,3.8574,3.8574,3.8574,3.8574,3.8574,3.8574,3.8574,3.8574,3.8574,3.8574,3.8574,3.8574,3.8574,3.8574,3.8574,3.8574,3.8574,3.8574,3.8574,3.8574,3.8574,3.8574,3.8574,3.8574,3.8574,3.8574,3.8574,3.8574,3.8574,3.8008,3.7246,3.6406,3.4978,3.3918,3.4471,3.291,3.1226,3.0091,2.9949,0.0,0.0,0.0,0.0,0.0,3.1226,3.2211,3.3623,3.2927,0.0,0.0,0.0,0.0,0.0,0.0,0.0,0.0,3.5314,0.0,3.5059,3.4921,3.4508,3.3955,3.3817,3.3817,3.3817,3.3817,3.3817,3.3678,3.1367,2.9488,2.7863,2.5597,2.3722,2.2259,2.2259,2.2259,2.2259,2.2259,2.2259,2.2259,3.6664,3.6812,3.696,3.7568,3.7862,3.8009,3.8155,3.8428,3.8574,3.8574,3.8574,3.8574,3.8574,3.8574,0.0,3.8574,3.8574,3.8574,3.8574,3.8574,3.8574,3.8574,3.8574,3.8574,3.8574,3.8574,0.0,3.8574,3.8574,3.8574,3.8574,3.8574,3.8574,3.8574,3.8574,3.8574,3.8574,3.8574,3.8574,3.8574,3.8574,3.8574,3.8574,3.8574,3.8574,3.8574,3.8574,3.8574,3.8574,3.8574,3.8574,3.8574,3.8574,3.8574,3.8574,3.8574,3.8574,3.8574,3.8574,3.8574,3.8574,3.8574,3.8574,3.8496,3.8164,3.7676,3.7051,3.6191,3.5314,3.4609,3.4609,3.39,3.263,3.1226,3.1367,3.135,3.0233,0.0,0.0,0.0,0.0,0.0,0.0,3.378,3.4057,0.0,0.0,0.0,0.0,0.0,0.0,3.4609,3.5451,3.5743,3.5196,3.4921,3.4646,3.3955,3.3817,3.3817,3.3817,3.3817,3.3817,3.3678,3.1947,3.0058,2.7863,2.6182,2.4153,2.2259,2.2259,2.2259,2.2259,2.2259,2.2259,2.2259,3.6812,3.6812,3.7107,0.0,3.8009,0.0,3.8574,3.8574,3.8574,3.8574,3.8574,3.8574,3.8574,3.8574,3.8574,3.8574,0.0,0.0,0.0,3.8574,3.8574,3.8574,3.8574,3.8574,3.8574,3.8574,3.8574,3.8574,3.8574,3.8574,3.8574,3.8574,3.8574,3.8574,3.8574,3.8574,3.8574,3.8574,3.8574,3.8574,3.8574,3.8574,3.8574,3.8574,3.8574,3.8574,3.8574,3.8574,3.8574,3.8574,3.8574,3.8574,3.8574,3.8574,3.8574,3.8574,3.8574,3.8574,3.8574,3.8574,3.8574,3.8574,3.8555,3.832,3.748,3.7266,3.7012,3.6191,3.6016,3.6016,3.6016,3.6016,3.5451,3.4057,3.4902,3.4883,3.207,0.0,0.0,0.0,0.0,0.0,0.0,3.3918,3.4471,0.0,0.0,0.0,0.0,0.0,3.6016,3.6016,3.6016,3.5879,3.547,3.5059,3.4784,3.437,3.3955,3.3817,3.3817,3.3817,3.3817,3.3817,3.2981,3.0801,2.7863,2.7186,2.5024,2.2259,2.2259,2.2259,2.2259,2.2259,2.2259,2.2259,0.0,0.0,3.7862,3.8428,3.8428,3.8428,3.8574,3.8574,3.8574,3.8574,3.8574,3.8574,3.8574,3.8574,3.8574,3.8574,3.8574,3.8574,3.8574,3.8574,3.8574,3.8574,3.8574,3.8574,3.8574,3.8574,3.8574,3.8574,3.8574,3.8574,3.8574,3.8574,3.8574,3.8574,3.8574,3.8574,3.8574,3.8574,3.8574,3.8574,3.8574,3.8574,3.8574,3.8574,3.8574,3.8574,3.8574,3.8574,3.8574,3.8574,3.8574,3.8574,3.8574,3.8574,3.8574,3.8574,3.8574,3.8574,3.8574,3.8574,3.8574,3.8574,3.832,3.7949,3.7422,3.7051,3.666,3.6133,3.6016,3.6016,3.6016,3.6016,3.5451,3.4057,3.4057,3.4057,3.3345,3.3623,0.0,0.0,3.4883,3.504,3.5451,3.5451,3.5606,0.0,0.0,0.0,3.6016,3.6016,3.6016,3.6016,3.6016,3.5743,3.5059,3.4921,3.4646,3.3955,3.3817,3.3817,3.3817,3.3817,3.3817,3.3678,3.2105,3.0075,2.7879,2.6328,2.4314,2.2259,2.2259,2.2259,2.2259,2.2259,2.2259,2.2259,3.7255,3.7715,3.8155,3.8574,3.8574,3.8574,3.8574,3.8574,3.8574,3.8574,3.8574,3.8574,3.8574,3.8574,3.8574,3.8574,3.8574,3.8574,3.8574,3.8574,3.8574,3.8574,3.8574,3.8574,3.8574,3.8574,3.8574,3.8574,3.8574,3.8574,3.8574,3.8574,3.8574,3.8574,3.8574,3.8574,3.8574,3.8574,3.8574,3.8574,3.8574,3.8574,3.8574,3.8574,3.8574,3.8574,3.8574,3.8574,3.8574,3.8574,3.8574,3.8574,3.8574,3.8574,3.8574,3.8574,3.8574,3.8574,3.8574,3.8574,3.8574,3.8574,3.8242,3.7812,3.7402,3.6973,3.6543,3.6113,3.6016,3.6016,3.6016,3.6016,3.5743,3.4902,3.4765,3.4765,3.4765,3.4765,0.0,3.5879,3.6016,3.6016,3.6016,3.6016,3.6016,3.6016,3.6016,0.0,3.6016,3.6016,3.6016,3.6016,3.6016,3.5743,3.5196,3.4784,3.437,3.3817,3.3817,3.3817,3.3817,3.3817,3.3817,3.3678,3.1824,2.9932,2.7879,2.5904,2.4018,2.2259,2.2259,2.2259,2.2259,2.2259,2.2259,2.2259,3.7402,3.7862,3.8155,3.8574,3.8574,3.8574,3.8574,3.8574,3.8574,3.8574,3.8574,3.8574,3.8574,3.8574,3.8574,3.8574,3.8574,3.8574,3.8574,3.8574,3.8574,3.8574,3.8574,3.8574,3.8574,3.8574,3.8574,3.8574,3.8574,3.8574,3.8574,3.8574,3.8574,3.8574,3.8574,3.8574,3.8574,3.8574,3.8574,3.8574,3.8574,3.8574,3.8574,3.8574,3.8574,3.8574,3.8574,3.8574,3.8574,3.8574,3.8574,3.8574,3.8574,3.8574,3.8574,3.8574,3.8574,3.8574,3.8574,3.8574,3.8555,3.8496,3.8144,3.7715,3.7305,3.6875,3.6465,3.6094,3.6016,3.6016,3.6016,3.6016,3.6016,3.6016,3.6016,3.6016,3.6016,0.0,3.6016,3.6016,3.6016,3.6016,3.6016,3.6016,3.6016,3.6016,3.6016,3.6016,3.6016,3.6016,3.6016,3.6016,3.6016,3.5879,3.5489,3.4784,3.4232,3.3955,3.3817,3.3817,3.3817,3.3817,3.3817,3.3678,3.1824,2.9916,2.7879,2.605,2.4166,2.2259,2.2259,2.2259,2.2259,2.2259,2.2259,2.2259,3.7862,3.8302,3.8574,3.8574,3.8574,3.8574,3.8574,3.8574,3.8574,3.8574,3.8574,3.8574,3.8574,3.8574,3.8574,3.8574,3.8574,3.8574,3.8574,3.8574,3.8574,3.8574,3.8574,3.8574,3.8574,3.8574,3.8574,3.8574,3.8574,3.8574,3.8574,3.8574,3.8574,3.8574,3.8574,3.8574,3.8574,3.8574,3.8574,3.8574,3.8574,3.8574,3.8574,3.8574,3.8574,3.8574,3.8574,3.8574,3.8574,3.8574,3.8574,3.8574,3.8574,3.8574,3.8574,3.8574,3.8574,3.8574,3.8574,3.8574,3.8476,3.8125,3.7715,3.7285,3.6855,3.6426,3.6094,3.6035,3.6016,3.6016,3.6016,3.6016,3.6016,3.6016,3.6016,3.6016,3.6016,0.0,3.6016,3.6016,3.6016,3.6016,3.6016,3.6016,3.6016,3.6016,3.6016,3.6016,3.6016,3.6016,3.6016,3.6016,3.6016,3.5879,3.5489,3.4784,3.437,3.4232,3.3955,3.3817,3.3817,3.3817,3.3817,3.3678,3.2088,3.0058,2.7879,2.6314,2.4301,2.2259,2.2259,2.2259,2.2259,2.2259,2.2259,2.2259,3.8009,3.8282,3.8574,3.8574,3.8574,3.8574,3.8574,3.8574,3.8574,3.8574,3.8574,3.8574,3.8574,3.8574,3.8574,3.8574,3.8574,3.8574,3.8574,3.8574,3.8574,3.8574,3.8574,3.8574,3.8574,3.8574,3.8574,3.8574,3.8574,3.8574,3.8574,3.8574,3.8574,3.8574,3.8574,3.8574,3.8574,3.8574,3.8574,3.8574,3.8574,3.8574,3.8574,3.8574,3.8574,3.8574,3.8574,3.8574,3.8574,3.8574,3.8574,3.8574,3.8574,3.8574,3.8574,3.8574,3.8574,3.8574,3.8574,3.8574,3.8476,3.8027,3.7617,3.7187,3.6758,3.6328,3.6016,3.6016,3.6016,3.6016,3.6016,3.6016,3.6016,3.6016,3.6016,0.0,0.0,3.6016,3.6016,3.6016,3.6016,3.6016,3.6016,3.6016,3.6016,3.6016,3.6016,3.6016,3.6016,3.6016,3.6016,3.6016,3.6016,3.5743,3.5196,3.4784,3.4508,3.4094,3.3955,3.3817,3.3817,3.2945,3.2945,3.3659,3.0376,2.8629,2.7879,2.5451,2.3574,2.2259,2.2259,2.2259,2.2259,2.2259,2.2259,2.2259,3.8155,3.8428,3.8574,3.8574,3.8574,3.8574,3.8574,3.8574,3.8574,3.8574,3.8574,3.8574,3.8574,3.8574,3.8574,3.8574,3.8574,3.8574,3.8574,3.8574,3.8574,3.8574,3.8574,3.8574,3.8574,3.8574,3.8574,3.8574,3.8574,3.8574,3.8574,3.8574,3.8574,3.8574,3.8574,3.8574,3.8574,3.8574,3.8574,3.8574,3.8574,3.8574,3.8574,3.8574,3.8574,3.8574,3.8574,3.8574,3.8574,3.8574,3.8574,3.8574,3.8574,3.8574,3.8574,3.8574,3.8574,3.8574,3.8574,3.8496,3.832,3.7891,3.7461,3.7031,3.6621,3.6269,3.6016,3.6016,3.6016,3.6016,3.6016,3.6016,3.6016,3.6016,0.0,0.0,0.0,3.6016,3.6016,3.6016,3.6016,3.6016,3.6016,3.6016,3.6016,3.6016,3.6016,3.6016,3.6016,3.6016,3.6016,3.6016,3.6016,3.5743,3.5059,3.4921,3.4646,3.3955,3.3817,3.3817,3.3817,3.2508,3.2508,3.3085,2.9361,2.762,2.7301,2.4877,2.3141,2.2259,2.2259,2.2259,2.2259,2.2259,2.2259,2.2259,3.8428,3.8574,3.8574,3.8574,3.8574,3.8574,3.8574,3.8574,3.8574,3.8574,3.8574,3.8574,3.8574,3.8574,3.8574,3.8574,3.8574,3.8574,3.8574,3.8574,3.8574,3.8574,3.8574,3.8574,3.8574,3.8574,3.8574,3.8574,3.8574,3.8574,3.8574,3.8574,3.8574,3.8574,3.8574,3.8574,3.8574,3.8574,3.8574,3.8574,3.8574,3.8574,3.8574,3.8574,3.8574,3.8574,3.8574,3.8574,3.8574,3.8574,3.8574,3.8574,3.8574,3.8574,3.8574,3.8574,3.8574,3.8574,3.8574,3.8281,3.7871,3.7461,3.7031,3.6601,3.6172,3.6035,3.6016,3.6016,3.6016,3.6016,3.6016,3.6016,3.6016,3.6016,0.0,0.0,3.6016,3.6016,3.6016,3.6016,3.6016,3.6016,3.6016,3.6016,3.6016,3.6016,3.6016,3.6016,3.6016,3.6016,3.6016,3.6016,3.6016,3.5879,3.547,3.5059,3.4784,3.437,3.3955,3.3817,3.3817,3.3659,3.2945,3.1649,3.0926,2.8757,2.589,2.5157,2.3857,2.2259,2.2259,2.2259,2.2259,2.2259,2.2259,2.2259,3.8574,3.8574,3.8574,3.8574,3.8574,3.8574,3.8574,3.8574,3.8574,3.8574,3.8574,3.8574,3.8574,3.8574,3.8574,3.8574,3.8574,3.8574,3.8574,3.8574,3.8574,3.8574,3.8574,3.8574,3.8574,3.8574,3.8574,3.8574,3.8574,3.8574,3.8574,3.8574,3.8574,3.8574,3.8574,3.8574,3.8574,3.8574,3.8574,3.8574,3.8574,3.8574,3.8574,3.8574,3.8574,3.8574,3.8574,3.8574,3.8574,3.8574,3.8574,3.8574,3.8574,3.8574,3.8574,3.8574,3.8574,3.8516,3.8242,3.8047,3.7812,3.7402,3.6992,3.6562,3.6113,3.6016,3.6016,3.6016,3.6016,3.6016,3.6016,3.6016,3.6016,3.6016,0.0,3.6016,3.6016,3.6016,3.6016,3.6016,3.6016,3.6016,3.6016,3.6016,3.6016,3.6016,3.6016,3.6016,3.6016,3.6016,3.6016,3.6016,3.6016,3.5879,3.5489,3.5059,3.4784,3.437,3.3955,3.3817,3.3817,3.2806,3.2088,3.1367,2.9361,2.7346,2.5611,2.4449,2.3426,2.2259,2.2259,2.2259,2.2259,2.2259,2.2259,2.2259,3.8574,3.8574,3.8574,3.8574,3.8574,3.8574,3.8574,3.8574,3.8574,3.8574,3.8574,3.8574,3.8574,3.8574,3.8574,3.8574,3.8574,3.8574,3.8574,3.8574,3.8574,3.8574,3.8574,3.8574,3.8574,3.8574,3.8574,3.8574,3.8574,3.8574,3.8574,3.8574,3.8574,3.8574,3.8574,3.8574,3.8574,3.8574,3.8574,3.8574,3.8574,3.8574,3.8574,3.8574,3.8574,3.8574,3.8574,3.8574,3.8574,3.8574,3.8574,3.8574,3.8574,3.8574,3.8574,3.8574,3.8476,3.8301,3.8008,3.7734,3.7461,3.7168,3.6777,3.6387,3.6094,3.6016,3.6016,3.6016,3.6016,3.6016,3.6016,3.6016,3.6016,3.6016,3.6016,3.6016,3.6016,3.6016,3.6016,3.6016,3.6016,3.6016,3.6016,3.6016,3.6016,3.6016,3.6016,3.6016,3.6016,3.6016,3.6016,3.6016,3.5879,3.5743,3.5489,3.5059,3.4646,3.4232,3.3955,3.3817,3.3817,3.2228,3.1226,3.0643,2.778,2.5904,2.4891,2.3587,2.2707,2.2259,2.2259,2.2259,2.2259,2.2259,2.2259,2.2259,3.8574,3.8574,3.8574,3.8574,3.8574,3.8574,3.8574,3.8574,3.8574,3.8574,3.8574,3.8574,3.8574,3.8574,3.8574,3.8574,3.8574,3.8574,3.8574,3.8574,3.8574,3.8574,3.8574,3.8574,3.8574,3.8574,3.8574,3.8574,3.8574,3.8574,3.8574,3.8574,3.8574,3.8574,3.8574,3.8574,3.8574,3.8574,3.8574,3.8574,3.8574,3.8574,3.8574,3.8574,3.8574,3.8574,3.8574,3.8574,3.8574,3.8574,3.8574,3.8574,3.8574,3.8574,3.8574,3.8574,3.8262,3.793,3.791,3.7305,3.668,3.668,3.6348,3.6016,3.6016,3.6016,3.6016,3.6016,3.6016,3.6016,3.6016,3.6016,3.6016,3.6016,3.6016,3.6016,3.6016,3.6016,3.6016,3.6016,3.6016,3.6016,3.6016,3.6016,3.6016,3.6016,3.6016,3.6016,3.6016,3.6016,3.6016,3.6016,3.5606,3.5489,3.547,3.5059,3.4508,3.3817,3.3817,3.3817,3.3678,3.2228,3.0643,2.9059,2.6765,2.4891,2.329,2.2558,2.2259,2.2259,2.2259,2.2259,2.2259,2.2259,2.2259,2.2259,3.8574,3.8574,3.8574,3.8574,3.8574,3.8574,3.8574,3.8574,3.8574,3.8574,3.8574,3.8574,3.8574,3.8574,3.8574,3.8574,3.8574,3.8574,3.8574,3.8574,3.8574,3.8574,3.8574,3.8574,3.8574,3.8574,3.8574,3.8574,3.8574,3.8574,3.8574,3.8574,3.8574,3.8574,3.8574,3.8574,3.8574,3.8574,3.8574,3.8574,3.8574,3.8574,3.8574,3.8574,3.8574,3.8574,3.8574,3.8574,3.8574,3.8574,3.8574,3.8574,3.8574,3.8574,3.8516,3.8203,3.8027,3.7793,3.7207,3.6855,3.668,3.668,3.6348,3.6016,3.6016,3.6016,3.6016,3.6016,3.6016,3.6016,3.6016,3.6016,3.6016,3.6016,3.6016,3.6016,3.6016,3.6016,3.6016,3.6016,3.6016,3.6016,3.6016,3.6016,3.6016,3.6016,3.6016,3.6016,3.6016,3.6016,3.5879,3.5626,3.5626,3.5215,3.4784,3.4646,3.437,3.4232,3.3955,3.3242,3.2228,3.2806,3.1084,2.765,2.762,2.6036,2.329,2.2856,2.2558,2.2259,2.2259,2.2259,2.2259,2.2259,2.2259,2.2259,3.8574,3.8574,3.8574,3.8574,3.8574,3.8574,3.8574,3.8574,3.8574,3.8574,3.8574,3.8574,3.8574,3.8574,3.8574,3.8574,3.8574,3.8574,3.8574,3.8574,3.8574,3.8574,3.8574,3.8574,3.8574,3.8574,3.872,3.8865,3.872,3.872,3.8865,3.872,3.8574,3.8574,3.8574,3.8574,3.8574,3.8574,3.8574,3.8574,3.8574,3.8574,3.8574,3.8574,3.8574,3.8574,3.8574,3.8574,3.8574,3.8574,3.8574,3.8574,3.8574,3.8574,3.8496,3.8047,3.7812,3.7539,3.6855,3.6543,3.6406,3.6406,3.6211,3.6016,3.6016,3.6016,3.6016,3.6016,3.6016,3.6016,3.6016,3.6016,3.6016,3.6016,3.6016,3.6016,3.6016,3.6016,3.6016,3.6016,3.6016,3.6016,3.6016,3.6016,3.6016,3.6016,3.6016,3.6016,3.6016,3.6016,3.5879,3.5743,3.547,3.5059,3.4646,3.437,3.4094,3.4094,3.3955,3.2945,3.1508,3.1789,3.0075,2.6648,2.6619,2.5318,2.3141,2.2856,2.2558,2.2259,2.2259,2.2259,2.2259,2.2259,2.2259,2.2247,3.8574,3.8574,3.8574,3.8574,3.8574,3.8574,3.8574,3.8574,3.8574,3.8574,3.8574,3.8574,3.8574,3.8574,3.8574,3.8574,3.8574,3.8574,3.8574,3.8574,3.8574,3.8574,3.8574,3.8574,3.8574,3.8574,3.872,3.9176,3.872,3.8885,3.9176,3.872,3.8574,3.8574,3.8574,3.8574,3.8574,3.8574,3.8574,3.8574,3.8574,3.8574,3.8574,3.8574,3.8574,3.8574,3.8574,3.8574,3.8574,3.8574,3.8574,3.8574,3.8574,3.8555,3.8437,3.7988,3.7578,3.7148,3.6719,3.6328,3.6016,3.6016,3.6016,3.6016,3.6016,3.6016,3.6016,3.6016,3.6016,3.6016,3.6016,3.6016,3.6016,3.6016,3.6016,3.6016,3.6016,3.6016,3.6016,3.6016,3.6016,3.6016,3.6016,3.6016,3.6016,3.6016,3.6016,3.6016,3.6016,3.6016,3.6016,3.5879,3.5196,3.4921,3.4784,3.4094,3.3817,3.3817,3.3659,3.2806,3.1226,2.9774,2.8068,2.6064,2.4314,2.329,2.2843,2.2408,2.2259,2.2259,2.2259,2.2259,2.2259,2.2259,2.2247,2.2186,3.8574,3.8574,3.8574,3.8574,3.8574,3.8574,3.8574,3.8574,3.8574,3.8574,3.8574,3.8574,3.8574,3.8574,3.8574,3.8574,3.8574,3.8574,3.8574,3.8574,3.8574,3.8574,3.8574,3.8574,3.8574,3.8574,3.872,3.9176,3.872,3.8885,3.9176,3.872,3.8574,3.8574,3.8574,3.8574,3.8574,3.8574,3.8574,3.8574,3.8574,3.8574,3.8574,3.8574,3.8574,3.8574,3.8574,3.8574,3.8574,3.8574,3.8574,3.8574,3.8574,3.834,3.7988,3.7559,3.7148,3.6719,3.6289,3.6094,3.6016,3.6016,3.6016,3.6016,3.6016,3.6016,3.6016,3.6016,3.6016,3.6016,3.6016,3.6016,3.6016,3.6016,3.6016,3.6016,3.6016,3.6016,3.6016,3.6016,3.6016,3.6016,3.6016,3.6016,3.6016,3.6016,3.6016,3.6016,3.6016,3.6016,3.5743,3.5196,3.4921,3.4646,3.4094,3.3817,3.3817,3.3817,3.2508,3.1209,2.9631,2.9345,2.749,2.4475,2.5038,2.4301,2.2856,2.2408,2.2259,2.2259,2.2259,2.2259,2.2259,2.2259,2.2126,2.1885,3.8574,3.8574,3.8574,3.8574,3.8574,3.8574,3.8574,3.8574,3.8574,3.8574,3.8574,3.8574,3.8574,3.8574,3.8574,3.8574,3.8574,3.8574,3.8574,3.8574,3.8574,3.8574,3.8574,3.872,3.8885,3.8885,3.9011,3.9445,3.9011,3.9176,3.9754,3.9301,3.9011,3.8885,3.8885,3.872,3.8574,3.8574,3.8574,3.8574,3.8574,3.8574,3.8574,3.8574,3.8574,3.8574,3.8574,3.8574,3.8574,3.8574,3.8574,3.8535,3.834,3.8105,3.7812,3.7187,3.6836,3.6582,3.6133,3.6016,3.6016,3.6016,3.6016,3.6016,3.6016,3.6016,3.6016,3.6016,3.6016,3.6016,3.6016,3.6016,3.6016,3.6016,3.6016,3.6016,3.6016,3.6016,3.6016,3.6016,3.6016,3.6016,3.6016,3.6016,3.6016,3.6016,3.6016,3.6016,3.6016,3.6016,3.5743,3.5196,3.5059,3.4646,3.4094,3.3955,3.3817,3.3817,3.2228,3.0643,2.9202,2.8501,2.6634,2.4044,2.4462,2.4018,2.2856,2.2408,2.2259,2.2259,2.2259,2.2259,2.2259,2.2259,2.2017,2.1619,3.8574,3.8574,3.8574,3.8574,3.8574,3.8574,3.8574,3.8574,3.8574,3.8574,3.8574,3.8574,3.8574,3.8574,3.8574,3.8574,3.8846,3.8991,3.8991,3.9281,3.9281,3.8991,3.8991,3.9011,3.9176,3.9176,3.9445,3.9858,3.9445,3.959,4.031,3.9858,3.959,3.9176,3.9176,3.903,3.8574,3.8574,3.8574,3.8574,3.8574,3.8574,3.8574,3.8574,3.8574,3.8574,3.8574,3.8574,3.8574,3.8574,3.8535,3.8398,3.8027,3.7832,3.7578,3.6875,3.6621,3.6484,3.6113,3.6016,3.6016,3.6016,3.6016,3.6016,3.6016,3.6016,3.6016,3.6016,3.6016,3.6016,3.6016,3.6016,3.6016,3.6016,3.6016,3.6016,3.6016,3.6016,3.6016,3.6016,3.6016,3.6016,3.6016,3.6016,3.6016,3.6016,3.6016,3.6016,3.6016,3.5879,3.5743,3.547,3.5059,3.4646,3.4232,3.3955,3.3817,3.3817,3.1947,3.0501,2.9202,2.736,2.5639,2.4044,2.3587,2.3154,2.2856,2.2408,2.2259,2.2259,2.2259,2.2259,2.2247,2.2162,2.1824,2.1366,3.8574,3.8574,3.8574,3.8574,3.8574,3.8574,3.8574,3.8574,3.8574,3.8574,3.8574,3.8574,3.8574,3.8574,3.8574,3.8574,3.9838,4.0514,4.0514,4.163,4.1771,4.0514,4.0514,4.0126,3.9176,3.9176,3.9465,4.0166,3.9858,3.9858,4.031,3.9858,3.959,3.9176,3.9176,3.903,3.8574,3.8574,3.8574,3.8574,3.8574,3.8574,3.8574,3.8574,3.8574,3.8574,3.8574,3.8574,3.8574,3.8574,3.832,3.8008,3.7949,3.7422,3.6816,3.6699,3.6406,3.6094,3.6035,3.6016,3.6016,3.6016,3.6016,3.6016,3.6016,3.6016,3.6016,3.6016,3.6016,3.6016,3.6016,3.6016,3.6016,3.6016,3.6016,3.6016,3.6016,3.6016,3.6016,3.6016,3.6016,3.6016,3.6016,3.6016,3.6016,3.6016,3.6016,3.6016,3.6016,3.5743,3.5333,3.5059,3.4646,3.4232,3.3817,3.3817,3.3817,3.3817,3.0926,2.9345,2.9059,2.621,2.4636,2.4044,2.3587,2.3154,2.2856,2.2408,2.2259,2.2259,2.2259,2.2259,2.2211,2.1752,2.139,2.1076,3.8574,3.8574,3.8574,3.8574,3.8574,3.8574,3.8574,3.9261,3.9838,3.9838,4.0514,4.1084,4.1084,4.0392,4.0105,4.0942,4.0942,4.1226,4.1912,4.2613,4.2753,4.2052,4.2193,4.1792,4.0862,4.0983,4.0841,4.0596,4.0166,4.031,4.0596,4.0433,4.0166,3.9754,3.9754,3.959,3.9136,3.9136,3.9156,3.8885,3.8885,3.872,3.8574,3.8574,3.8574,3.8574,3.8574,3.8574,3.8535,3.8301,3.8086,3.7851,3.7363,3.6973,3.6621,3.6387,3.6172,3.6016,3.6016,3.6016,3.6016,3.6016,3.6016,3.6016,3.6016,3.6016,3.6016,3.6016,3.6016,3.6016,3.6016,3.6016,3.6016,3.6016,3.6016,3.6016,3.6016,3.6016,3.6016,3.6016,3.6016,3.6016,3.6016,3.6016,3.6016,3.6016,3.6016,3.5879,3.5743,3.5606,3.5196,3.4646,3.4508,3.4232,3.3817,3.3817,3.3817,3.3817,3.1508,3.0075,2.9059,2.6064,2.4341,2.4044,2.3587,2.3154,2.2856,2.2408,2.2259,2.2259,2.2259,2.2174,2.1981,2.1438,2.116,2.1016]}]]